GFSGBSN_700_spd_000.txt.gz
Wind_Speed
34 33 31 29 27 27 27 27 28 28 27 29 30 30 31 28 22 17 14 11 8 11 12 10 8 10 11 12 12 11 11 15 8 5 6 5 6 9 12 16 12 6 13 4 18 18 14
35 33 32 30 27 27 26 26 26 26 26 28 29 30 28 22 17 14 11 10 11 14 13 11 14 16 15 15 11 13 13 10 10 10 6 7 7 7 11 11 5 5 10 10 15 14 11
36 34 33 31 27 27 25 24 25 25 25 26 27 27 23 16 13 11 10 12 13 14 14 14 17 15 14 12 9 14 13 14 11 12 11 10 8 9 9 11 7 12 13 13 15 16 13
37 35 33 31 28 27 24 24 24 23 24 24 26 22 18 11 9 10 12 14 15 16 16 18 19 16 14 9 8 12 13 11 10 7 7 9 3 9 12 13 16 14 7 11 15 16 10
41 36 34 32 29 27 24 24 24 22 23 22 21 15 12 9 9 10 12 14 15 15 17 20 17 12 9 14 12 12 13 9 6 5 9 6 7 7 16 25 17 10 7 7 12 9 7
44 39 35 33 30 27 25 23 23 21 21 19 15 10 9 10 10 12 14 16 17 17 17 18 14 9 8 11 16 13 11 10 6 4 6 5 14 21 21 22 12 11 12 11 9 10 8
46 41 37 34 31 28 26 22 21 20 18 13 10 10 11 12 15 16 17 16 14 14 19 15 10 4 9 9 16 13 10 10 8 5 10 8 11 13 12 10 8 5 8 12 12 10 14
48 42 38 36 31 28 25 22 20 19 14 10 11 13 14 16 20 19 16 14 13 13 20 10 10 9 10 8 15 16 13 11 11 10 13 8 7 7 6 3 1 5 7 9 13 19 15
49 43 39 37 32 28 25 22 20 17 11 12 14 17 20 24 22 18 16 14 13 14 13 10 10 8 5 4 12 22 17 11 11 11 9 9 5 5 3 3 2 4 6 10 17 16 9
51 44 40 39 33 29 26 23 20 16 14 15 18 23 27 25 20 16 15 16 13 11 9 13 11 7 5 10 9 13 13 10 10 10 9 7 5 5 5 4 4 9 8 9 16 16 9
53 46 43 40 35 30 27 25 22 18 18 20 24 29 28 24 17 16 17 17 13 13 3 14 13 7 8 9 13 12 10 9 13 12 12 8 7 6 5 5 6 7 5 6 7 10 12
55 48 45 42 37 33 29 27 23 22 22 25 31 31 28 22 19 18 20 18 13 4 3 12 15 14 10 8 13 12 10 12 13 10 7 7 9 8 8 8 10 12 7 7 5 6 3
57 49 47 44 40 36 33 31 26 25 26 31 34 30 29 21 18 21 23 18 7 3 12 11 17 16 11 10 12 14 13 15 10 10 9 8 8 10 9 9 9 11 10 2 1 0 4
59 52 50 46 42 39 37 34 30 29 31 35 34 30 30 22 20 24 22 18 6 4 13 14 16 17 12 11 11 17 15 13 9 8 12 7 5 9 12 11 6 9 14 5 6 3 4
58 52 50 47 44 42 41 37 34 32 35 37 34 31 31 25 23 23 23 18 2 5 8 14 18 17 11 13 10 15 14 14 11 10 7 8 5 9 11 12 8 5 5 9 3 3 2
54 51 49 48 47 46 44 40 38 35 36 37 34 31 31 29 26 24 24 17 4 5 10 19 17 17 13 13 12 13 13 12 12 12 14 7 6 9 7 8 8 5 7 2 3 3 2
53 51 49 49 49 48 46 43 41 38 36 37 35 33 30 32 27 26 26 21 5 6 16 21 16 13 13 15 13 15 8 7 12 14 16 11 8 10 10 5 10 8 3 2 2 1 5
53 50 49 49 49 49 48 45 43 40 38 38 38 35 31 31 28 29 30 21 7 7 15 18 15 14 13 17 16 17 12 7 10 13 14 15 8 14 12 9 8 7 5 4 3 3 3
54 50 49 49 49 49 48 46 44 44 39 38 36 35 32 29 31 29 32 18 9 8 11 13 14 16 11 12 17 16 12 10 7 11 12 14 8 9 5 8 11 9 8 7 6 6 7
53 51 50 49 48 48 47 46 44 44 40 37 35 33 32 32 32 32 34 19 10 10 10 10 11 11 11 13 16 10 14 11 10 10 13 15 9 13 13 4 9 11 12 11 9 6 7
53 51 49 48 47 46 46 45 44 43 41 39 38 34 35 35 34 33 35 16 13 11 11 11 12 12 11 11 12 8 8 11 11 11 13 15 10 18 11 9 9 10 11 13 16 16 16
52 50 48 46 45 44 42 43 44 43 42 41 41 32 35 24 32 34 36 21 17 12 9 11 10 13 13 11 10 9 10 12 10 11 14 15 9 12 15 13 13 13 14 17 20 21 23
51 49 46 44 42 39 40 42 43 43 43 42 39 36 27 33 24 35 38 26 17 14 11 9 7 13 13 11 9 7 7 8 8 9 11 15 15 9 8 14 15 16 19 20 23 24 22
50 47 44 41 38 37 37 40 42 42 42 40 36 31 23 28 25 36 33 28 15 12 16 12 9 9 8 5 5 5 4 5 6 7 9 12 13 11 6 8 1 17 17 16 16 16 21
47 44 41 36 34 35 36 37 39 40 40 38 33 27 24 21 23 33 34 24 21 15 12 10 10 10 7 6 7 6 7 8 10 11 11 12 13 9 6 12 16 14 16 17 18 20 23
45 41 36 33 33 33 34 35 36 38 39 36 27 25 24 22 26 32 31 26 23 20 19 14 10 10 11 10 11 8 4 3 4 5 10 16 16 16 10 5 5 10 12 12 18 28 25
41 37 33 32 30 30 31 32 34 36 36 34 25 20 19 19 23 30 28 26 22 21 20 18 16 13 13 12 14 14 12 10 7 7 10 11 14 19 21 15 13 18 19 18 13 21 12
38 35 33 30 28 28 28 31 33 35 40 32 23 26 14 22 24 25 23 21 20 19 19 18 18 16 14 18 17 16 11 13 14 18 17 14 8 12 12 11 12 16 19 18 17 16 22
36 34 31 30 29 27 28 32 33 38 42 31 19 17 15 18 20 21 20 19 17 19 18 14 12 10 11 13 17 16 15 16 17 17 18 16 19 15 14 13 17 22 23 22 21 27 28

GFSGBSN_700_spd_003.txt.gz
Wind_Speed
40 37 34 32 31 28 27 26 26 26 25 24 25 25 28 30 31 29 21 15 11 12 12 8 7 8 10 10 11 10 10 16 11 8 6 5 7 11 17 16 14 8 3 9 21 17 12
43 41 37 33 31 28 27 26 26 26 23 22 24 24 28 29 28 22 17 14 13 13 11 10 10 13 14 15 13 12 10 10 8 11 9 7 8 9 12 13 10 1 4 6 18 16 11
47 43 39 35 32 28 28 26 26 25 21 22 23 24 28 28 22 17 15 14 15 13 12 12 14 14 16 11 13 13 10 8 9 10 10 10 14 15 10 10 7 6 8 14 19 18 16
49 45 40 36 33 29 28 26 25 23 20 21 23 24 26 23 16 14 12 14 14 13 14 14 18 14 17 13 13 12 12 11 10 7 7 11 14 10 11 9 11 12 9 13 16 14 11
51 47 43 38 34 30 28 25 25 22 19 22 23 23 22 18 12 10 11 12 13 14 16 19 18 13 12 13 13 16 12 11 6 3 4 7 13 20 16 19 18 10 7 9 14 13 9
54 50 45 41 35 32 28 26 24 20 20 22 21 21 18 14 10 9 11 12 13 16 17 19 14 9 9 11 15 14 13 10 5 3 5 4 10 13 22 23 12 11 11 13 13 10 6
58 53 48 43 38 33 29 27 24 20 20 21 19 18 15 11 10 10 12 13 14 14 18 13 12 5 10 9 17 16 14 12 9 2 5 12 15 14 21 19 8 9 11 13 14 11 9
60 57 50 46 39 34 30 28 23 21 20 19 17 14 14 10 11 13 14 14 14 14 18 9 12 9 10 10 18 15 11 12 9 3 11 14 18 15 16 12 10 8 7 10 13 15 11
63 58 54 48 41 35 32 28 23 22 19 17 16 13 14 13 16 17 15 12 11 16 19 7 8 8 9 8 12 19 15 11 9 7 10 9 10 11 10 7 6 3 2 3 13 18 10
63 60 56 51 43 36 33 29 24 23 19 16 16 16 17 22 20 17 15 14 10 14 11 11 10 8 5 9 11 21 18 11 9 11 13 10 9 7 6 6 6 3 1 1 10 15 7
61 63 58 52 44 38 35 30 27 24 20 19 19 21 27 24 18 16 16 15 13 15 3 10 13 7 7 9 14 14 15 12 14 17 12 10 9 6 4 4 5 7 7 6 13 8 6
61 66 61 52 46 41 37 32 29 26 22 23 24 28 31 25 20 17 17 15 15 7 4 12 16 11 9 7 14 12 15 14 17 15 11 12 10 7 6 3 2 5 10 10 8 5 3
63 68 62 54 48 43 40 36 33 29 27 27 30 34 30 23 20 18 19 17 9 4 10 12 20 14 10 12 16 12 17 18 13 12 10 9 8 6 4 5 6 7 13 3 1 2 3
63 71 64 52 50 47 43 40 37 33 31 32 36 36 32 26 21 20 21 18 6 5 15 13 19 18 11 11 17 14 16 16 10 9 12 9 4 7 10 10 7 11 14 6 5 4 3
61 73 68 53 54 50 46 44 40 37 36 38 41 37 34 27 23 21 22 18 7 6 13 17 18 19 12 10 11 16 15 12 10 9 7 9 6 8 8 12 9 7 11 14 4 2 2
50 76 74 60 58 53 50 48 43 41 39 41 41 37 35 26 27 22 22 19 9 6 13 16 16 17 13 13 8 14 14 12 11 11 11 7 5 9 8 11 11 7 8 5 6 4 3
52 83 69 62 58 56 52 51 46 43 42 43 42 37 35 27 27 27 24 25 8 7 13 16 18 17 13 14 10 13 9 6 13 12 12 11 7 8 9 9 11 10 8 5 4 3 3
47 70 60 56 58 57 55 54 50 46 46 48 45 39 36 32 29 30 27 25 9 8 15 18 18 9 11 15 13 11 12 7 6 12 14 14 8 8 12 8 10 10 8 7 4 4 6
47 79 59 58 59 56 56 55 53 50 49 49 46 38 37 34 33 30 29 27 14 10 11 16 16 12 11 11 16 16 14 11 9 9 11 14 9 7 5 10 13 13 13 11 8 7 7
47 72 61 57 59 57 56 55 53 49 47 46 44 33 38 35 33 33 30 28 16 10 10 11 11 14 14 10 13 13 17 14 11 11 14 15 15 12 16 7 10 17 17 14 12 7 9
63 53 56 58 57 56 56 55 53 49 47 46 46 38 43 39 36 32 30 26 18 11 9 11 11 10 12 10 15 14 14 12 13 13 15 16 16 17 14 11 9 10 11 13 16 17 15
73 51 55 57 56 54 54 54 53 51 49 47 43 40 36 25 35 31 31 27 23 12 10 11 9 11 13 9 9 8 7 9 11 13 15 16 12 16 15 16 13 15 15 16 19 21 23
50 52 57 54 53 53 52 54 52 51 50 48 42 36 35 37 23 34 34 32 20 15 11 8 10 10 12 12 11 10 10 10 10 12 12 15 17 13 9 14 16 15 22 22 22 22 22
54 55 53 51 50 49 50 52 52 50 49 44 42 37 28 30 34 31 32 29 22 16 13 10 8 9 10 8 7 5 5 6 8 9 9 11 14 13 7 9 3 17 19 18 18 15 17
55 52 48 47 46 46 48 49 49 48 44 42 40 37 34 23 27 25 34 30 26 18 15 15 11 10 8 8 7 5 5 6 9 9 9 10 11 8 5 10 17 12 13 17 21 21 16
49 46 44 43 42 43 44 45 46 45 43 40 37 33 26 24 26 26 29 31 32 22 16 15 13 11 11 10 9 6 4 3 3 3 8 12 13 13 9 5 4 6 7 13 20 23 19
45 42 40 38 39 39 39 41 42 41 42 41 33 29 24 20 16 26 29 33 34 27 21 18 16 13 10 11 10 10 11 8 4 4 5 8 9 14 16 13 10 14 18 20 11 13 11
40 38 37 35 34 34 35 36 38 40 41 38 32 25 22 21 17 20 27 33 28 26 23 22 20 19 15 15 13 12 9 11 10 14 14 12 6 8 8 7 7 9 9 10 13 21 23
38 36 33 30 30 30 31 33 36 38 38 35 30 24 17 18 18 24 29 24 24 25 22 20 19 14 15 13 14 11 12 14 16 15 16 14 15 10 9 9 13 21 24 23 24 23 24

GFSGBSN_700_spd_006.txt.gz
Wind_Speed
41 39 39 37 34 32 30 26 24 24 24 22 23 24 25 25 25 27 28 23 18 14 11 9 8 8 8 6 6 6 9 14 11 10 9 7 7 10 13 13 16 11 6 17 11 12 9
43 43 42 39 37 33 32 28 25 23 23 22 22 24 23 25 25 27 25 20 15 13 11 10 9 11 12 12 9 9 12 13 8 7 5 6 8 11 12 10 9 5 4 14 21 9 10
45 45 45 42 40 35 33 30 27 24 22 21 21 24 22 24 25 26 21 16 14 13 11 11 11 14 16 12 11 11 8 5 4 4 6 9 11 12 11 8 10 3 5 17 22 13 16
45 47 46 45 43 37 34 31 28 25 22 20 20 23 22 24 25 23 16 12 12 12 11 12 14 15 16 16 13 11 9 7 4 4 6 10 14 12 10 10 11 11 10 11 16 17 16
42 46 47 46 44 40 36 32 28 25 21 20 20 22 21 23 23 17 13 10 11 10 13 15 17 14 14 18 14 12 11 8 4 3 3 9 10 12 11 10 11 11 10 13 15 16 14
40 43 47 47 45 42 38 34 29 26 21 20 20 21 20 21 19 13 10 10 10 11 14 17 14 12 12 15 15 14 9 6 2 4 7 11 21 19 17 16 15 11 11 15 14 13 7
42 42 45 48 46 43 39 35 30 27 22 21 20 20 18 18 14 11 10 10 10 12 15 15 14 7 12 11 16 14 12 8 6 4 2 7 12 15 16 15 6 10 10 14 13 13 10
44 44 44 47 48 44 41 36 32 28 23 22 19 18 16 14 13 11 11 12 12 12 16 11 14 11 12 12 19 17 11 9 11 4 7 5 10 11 17 17 10 6 12 12 16 16 13
47 45 45 45 49 45 43 37 33 28 25 23 19 16 14 13 11 13 14 14 12 14 16 9 12 12 10 11 16 19 12 9 9 4 10 14 13 14 13 11 10 9 10 10 13 20 14
51 47 47 46 49 48 45 39 34 30 26 24 19 16 14 15 17 18 15 13 11 13 10 8 10 9 11 10 12 24 17 13 12 7 10 9 11 12 11 7 7 8 2 1 4 17 12
53 50 49 47 49 49 44 40 36 31 28 25 20 18 18 21 22 18 17 13 13 18 6 10 12 9 8 11 8 22 19 13 11 13 10 9 12 10 8 7 7 7 5 5 7 9 8
56 53 50 51 51 51 47 42 38 34 31 26 22 22 25 27 23 20 20 14 17 10 5 11 16 11 11 9 13 18 18 15 12 14 11 14 13 10 7 7 7 9 8 9 7 6 9
56 55 54 56 53 53 49 45 41 37 34 29 26 28 31 28 25 22 22 17 10 10 6 11 19 14 12 12 14 15 19 18 12 13 10 10 11 10 8 6 7 9 11 6 7 7 9
63 59 59 60 56 57 49 48 44 41 36 32 30 35 36 32 27 23 23 19 10 11 10 11 19 15 12 13 16 13 17 16 17 13 14 14 7 9 10 10 8 11 10 7 5 6 7
57 69 65 64 61 59 53 49 48 44 40 35 37 42 39 33 28 25 24 17 12 8 14 14 20 18 12 14 13 15 15 14 14 12 10 9 5 10 10 13 10 10 11 11 5 3 5
55 50 53 63 68 62 54 52 52 48 43 40 41 45 38 35 30 26 25 19 13 10 17 17 18 17 16 14 12 16 15 15 11 10 9 9 4 9 9 10 12 10 7 4 7 3 5
57 53 49 45 71 65 56 56 55 51 46 42 47 47 41 37 31 28 25 21 18 10 18 19 16 14 15 14 12 14 12 10 15 11 11 8 6 6 9 9 9 12 9 8 5 4 3
53 54 53 49 76 64 60 60 58 54 49 49 53 46 43 38 34 28 26 24 17 13 16 18 17 12 14 13 12 10 12 13 11 15 13 13 9 6 10 12 14 15 10 10 8 5 5
48 48 49 50 70 70 58 61 62 59 57 54 56 38 42 40 33 31 24 28 21 12 16 18 18 14 13 12 12 15 14 13 9 7 12 15 9 6 4 8 12 12 16 15 13 9 8
44 43 46 53 73 78 59 64 65 61 54 52 53 35 44 44 32 29 27 26 24 13 14 18 18 15 12 13 13 10 17 14 12 10 10 12 15 11 13 6 8 14 20 18 13 7 9
38 42 41 46 70 56 63 65 64 58 55 56 51 35 40 50 41 29 25 26 21 17 15 16 14 14 16 15 13 16 15 17 15 12 12 14 13 18 18 14 12 12 13 19 21 17 12
40 42 45 49 59 60 61 65 62 57 57 59 46 35 39 26 40 32 29 24 24 18 15 14 11 14 13 12 10 13 15 18 15 13 16 16 14 17 18 18 17 17 16 17 19 20 23
38 37 50 59 47 61 62 65 61 60 60 60 41 31 38 29 41 36 32 26 25 20 14 12 11 12 13 13 9 7 9 10 12 14 14 17 17 13 8 17 18 15 25 25 24 23 23
35 35 56 50 55 65 66 65 61 59 55 56 35 31 34 39 26 38 31 29 23 23 16 14 10 14 13 12 12 12 11 10 12 13 13 13 16 13 8 7 4 14 18 18 19 18 18
28 52 46 56 62 63 63 63 60 56 51 50 34 30 30 29 33 22 35 31 28 21 20 15 11 9 11 12 9 7 8 7 9 10 10 11 11 8 5 8 15 13 12 13 16 17 15
52 36 60 60 59 58 58 58 55 53 50 47 42 31 28 25 32 28 25 34 33 27 23 20 16 13 13 15 11 7 5 5 4 4 13 14 13 13 8 4 4 7 9 12 14 13 12
48 57 55 55 55 54 54 53 51 50 48 44 42 37 30 24 22 28 30 35 34 31 25 21 19 16 15 15 14 9 7 7 4 4 5 6 8 14 15 11 7 12 15 15 5 6 9
51 52 48 48 49 48 49 49 49 47 45 43 39 33 25 22 19 18 29 30 37 33 29 24 21 21 18 15 13 10 9 10 10 11 8 7 5 6 7 6 6 7 5 5 10 20 26
51 49 45 43 43 43 44 45 46 45 43 41 36 31 27 23 17 19 25 23 32 34 29 25 23 16 20 15 14 9 10 9 11 8 11 10 12 8 7 6 12 18 19 19 21 24 25

GFSGBSN_700_spd_009.txt.gz
Wind_Speed
39 37 37 36 35 34 32 31 29 27 26 24 23 23 22 23 23 22 24 27 26 19 13 11 9 9 6 5 1 2 3 9 9 8 9 11 9 8 10 12 13 13 6 8 9 10 6
40 39 37 36 37 36 35 32 30 29 27 24 23 23 21 23 22 21 24 27 22 16 11 9 10 9 8 8 4 4 10 9 8 4 4 9 5 8 9 11 13 10 8 9 8 13 10
36 38 39 38 36 37 36 34 31 28 28 24 24 23 21 21 21 20 23 24 19 13 9 10 10 10 11 8 8 6 6 4 1 5 9 9 10 6 4 9 11 4 8 13 9 8 11
33 33 35 38 38 36 36 35 33 30 28 25 24 23 21 20 21 19 22 20 15 10 9 11 11 13 14 13 10 6 4 1 1 3 8 11 11 13 10 9 8 8 12 18 17 13 12
35 34 34 34 37 38 36 35 34 32 29 26 24 23 21 20 19 18 19 16 12 8 10 12 13 14 12 16 11 6 4 2 1 4 3 8 14 12 8 9 11 11 12 13 13 12 11
39 37 36 35 34 36 37 35 34 33 30 26 24 22 21 20 17 15 14 12 9 9 11 13 14 10 12 13 11 9 3 3 3 5 4 4 7 7 9 14 13 9 13 15 14 13 11
44 42 40 39 36 35 37 36 35 35 30 27 25 22 20 19 16 12 11 9 6 7 12 16 12 7 11 12 18 12 5 1 2 6 3 8 6 16 13 14 6 8 9 14 15 11 11
50 47 44 43 39 37 37 37 36 36 32 28 26 23 20 18 14 11 11 10 13 11 11 14 14 11 13 10 17 13 11 6 7 6 10 11 18 13 10 14 8 6 7 11 9 12 10
56 52 48 46 44 40 37 38 37 36 33 29 27 23 19 16 13 10 11 13 12 11 12 12 15 14 8 12 15 14 14 10 10 9 10 10 15 19 14 12 11 9 11 12 11 13 11
61 57 53 49 47 44 39 39 38 37 35 30 28 24 19 16 13 12 14 14 12 12 8 12 12 14 11 11 12 19 16 10 12 6 10 6 10 10 12 9 7 9 5 10 5 14 21
65 61 56 53 49 46 42 40 39 39 36 33 29 25 19 19 15 20 19 15 14 16 5 12 13 11 10 12 4 18 21 13 14 9 8 9 8 10 10 6 11 8 8 6 5 10 16
68 64 61 57 53 49 46 43 42 41 39 35 31 26 23 21 23 21 21 17 17 12 8 11 14 13 12 12 9 9 19 13 16 12 6 11 13 7 5 7 6 5 6 7 10 13 10
68 66 63 60 56 52 49 46 44 43 40 38 33 29 24 26 30 27 23 17 13 15 9 14 18 15 14 12 10 11 19 18 16 12 13 7 8 11 8 6 6 7 9 14 13 12 10
67 68 65 62 60 56 53 49 47 46 43 40 36 32 30 35 32 30 26 22 16 18 15 8 17 15 15 13 12 12 17 20 21 21 20 17 11 13 12 11 7 12 15 16 7 7 12
69 70 68 65 63 60 58 53 50 48 46 43 40 36 37 39 35 32 30 21 22 14 16 12 16 18 16 14 12 13 15 19 18 19 18 16 6 12 11 10 8 12 13 12 11 6 11
63 63 72 72 68 66 62 57 55 51 49 46 42 37 40 41 37 33 30 26 21 12 14 14 20 20 18 17 15 18 16 13 13 15 14 6 5 6 9 10 12 12 5 7 11 6 11
68 61 57 60 74 72 66 62 60 54 51 46 43 39 47 44 38 35 30 28 21 14 12 16 20 16 17 17 17 19 15 10 15 14 13 12 13 6 8 12 13 10 15 12 7 6 5
56 51 57 55 53 59 66 67 63 57 51 53 47 41 52 46 44 35 32 28 18 15 13 14 17 14 16 17 17 15 19 13 15 14 14 13 10 10 13 11 15 7 11 13 11 8 6
48 44 52 57 52 52 74 71 62 61 62 57 52 37 46 46 43 35 28 27 21 16 14 18 18 14 13 15 15 16 15 17 12 15 13 13 12 11 10 10 10 13 14 13 11 11 11
43 43 46 57 52 53 78 77 59 64 62 58 43 38 47 52 40 32 31 31 24 17 15 16 16 16 12 14 15 11 14 14 16 14 12 14 16 16 16 9 4 13 14 16 16 12 13
37 37 43 56 47 57 78 75 54 62 63 57 42 44 48 57 48 34 32 27 28 19 14 17 16 18 16 13 14 13 12 15 17 16 15 14 12 16 17 11 11 10 12 15 20 21 18
32 37 43 47 47 53 72 77 55 60 60 61 43 44 39 32 42 31 33 29 31 21 19 19 16 18 15 13 15 13 14 13 15 18 16 16 11 15 17 14 18 15 16 17 18 19 21
34 35 43 47 52 52 59 85 60 64 68 67 43 38 39 33 46 35 34 28 31 23 19 17 17 16 13 14 13 11 15 12 11 12 14 13 17 13 10 10 10 15 25 22 21 20 18
33 37 43 42 53 60 50 64 66 70 70 62 40 29 41 35 46 40 30 26 27 24 17 18 15 13 15 15 13 11 9 10 13 15 15 16 15 9 6 3 1 11 12 15 16 19 21
37 40 43 46 46 59 72 59 67 70 67 56 39 30 36 35 35 36 28 26 24 25 15 20 17 13 14 13 11 8 9 10 12 13 14 14 14 8 5 10 11 12 12 9 8 11 8
38 41 43 46 52 67 49 65 67 68 62 52 42 35 21 37 25 32 29 29 24 25 24 19 16 14 12 15 13 7 6 6 5 4 14 13 13 10 8 4 4 4 8 8 9 9 4
37 38 37 42 49 52 63 68 65 66 61 46 43 30 23 23 27 21 30 29 25 20 21 25 21 15 14 17 16 8 8 7 5 6 5 10 13 14 11 8 7 9 13 12 6 3 10
32 32 44 63 39 62 68 65 66 62 59 45 38 34 27 21 20 24 20 24 26 26 26 27 22 21 20 19 16 9 9 9 8 7 6 6 5 6 7 6 7 9 5 2 7 14 19
38 47 51 45 62 62 61 62 61 57 53 45 37 33 31 20 20 23 28 28 27 24 21 24 20 19 18 13 13 10 10 9 10 6 9 5 9 5 7 4 10 10 15 13 21 23 22

GFSGBSN_700_spd_015.txt.gz
Wind_Speed
27 29 32 33 35 34 34 34 33 31 29 28 26 24 22 19 18 20 20 20 21 22 24 20 14 10 8 3 3 6 8 7 4 3 9 14 7 2 8 6 8 12 13 7 10 12 9
27 27 27 28 31 33 34 34 35 32 31 29 26 23 21 20 17 19 20 20 21 21 22 17 11 8 5 1 3 3 4 5 7 8 11 14 5 5 16 14 10 9 8 4 3 5 12
30 29 28 27 26 27 30 33 34 34 33 30 27 23 21 20 17 18 19 20 20 21 19 14 9 8 4 6 5 9 4 2 5 3 10 11 1 7 9 12 3 7 4 4 5 9 5
32 31 31 29 28 26 25 27 32 33 33 32 28 24 21 19 17 17 18 19 19 20 17 11 7 6 4 6 6 5 4 4 4 5 2 3 8 13 9 3 4 3 5 5 8 7 3
38 36 36 34 31 29 26 24 25 30 33 33 29 25 21 19 17 17 17 17 17 18 14 9 6 6 7 7 9 3 1 4 9 9 3 8 7 3 7 6 4 9 8 8 11 14 4
46 43 40 38 37 33 30 26 24 25 28 32 30 25 21 19 17 17 16 16 16 15 12 7 7 6 4 4 6 1 1 3 3 7 6 1 1 4 5 2 6 5 17 7 9 12 10
53 50 47 43 40 39 35 31 28 25 25 28 30 26 22 20 19 16 14 14 14 16 13 9 10 10 17 10 6 10 4 2 3 2 8 6 4 3 3 2 5 1 9 12 9 8 11
59 55 52 49 45 41 40 36 31 28 26 26 28 27 23 21 20 16 14 11 18 17 14 13 12 21 20 18 15 15 12 8 4 2 2 2 1 9 2 12 6 7 16 16 24 15 10
65 61 57 54 50 46 42 40 36 33 31 28 27 27 24 21 20 16 13 9 16 15 16 12 14 22 17 15 13 17 16 11 12 9 7 9 13 10 9 10 13 7 11 6 13 6 11
70 67 64 60 56 52 47 44 40 37 34 32 28 26 24 24 20 16 12 12 14 11 8 9 14 22 22 9 14 21 16 11 10 11 7 11 16 13 20 19 15 21 11 5 4 4 7
73 71 69 66 62 57 53 47 45 40 37 34 31 27 26 26 20 19 15 15 13 7 3 3 13 7 21 16 4 21 15 16 16 2 8 13 5 18 16 19 2 7 8 7 7 9 11
81 76 71 68 66 63 58 53 49 45 40 38 34 29 30 27 21 16 16 15 13 6 8 11 13 18 16 12 15 10 20 20 11 11 10 12 12 8 20 8 5 6 7 9 9 14 6
82 81 77 73 69 65 62 58 53 48 45 41 37 32 31 30 25 24 22 20 13 8 8 13 21 17 18 20 16 11 19 20 24 12 10 10 12 5 16 13 8 6 5 2 3 4 3
71 81 81 79 75 70 65 61 56 51 47 44 40 35 34 32 31 26 27 26 13 9 17 12 19 18 16 20 17 17 17 17 27 18 12 16 2 14 11 14 10 11 11 6 5 1 6
60 58 65 79 79 74 69 64 60 54 49 47 43 41 41 34 33 29 33 32 20 19 23 12 17 20 19 19 17 20 20 23 23 24 20 12 12 13 5 5 5 4 4 9 9 5 1
47 59 54 62 77 75 72 67 63 58 52 50 48 46 40 35 36 35 40 37 30 20 11 17 17 21 21 23 23 21 19 22 26 26 26 16 8 13 14 13 11 13 11 3 1 5 4
48 53 52 50 59 68 72 70 66 62 56 51 49 47 40 38 40 41 52 40 35 30 16 10 19 20 23 22 21 21 18 20 21 19 27 18 12 8 15 26 16 15 15 12 9 4 5
49 50 52 53 47 59 67 70 69 64 60 54 49 51 42 44 47 51 56 45 40 33 20 14 15 25 22 20 23 21 23 14 13 24 16 11 7 8 24 12 11 12 8 9 14 6 4
50 50 53 57 49 47 52 50 60 67 65 59 52 50 36 39 53 56 52 51 43 35 23 10 24 20 22 20 14 24 21 14 21 15 15 16 6 9 10 8 11 15 15 17 11 17 15
48 50 54 53 48 49 51 49 49 51 65 64 55 41 41 44 55 55 51 54 48 39 23 13 21 22 18 13 18 22 20 12 18 19 17 17 10 11 13 11 7 9 12 13 14 11 11
46 48 53 49 50 52 46 50 54 50 69 69 58 56 46 56 60 52 50 52 51 43 32 19 21 26 19 16 19 13 17 14 20 15 13 15 19 16 17 15 14 14 10 12 16 16 18
41 48 50 56 42 45 50 52 58 58 74 71 54 57 49 35 56 50 43 55 52 43 27 24 19 24 21 17 19 17 17 15 17 15 15 15 15 14 15 19 18 13 13 18 13 13 12
39 42 54 48 42 44 49 56 58 64 74 75 55 56 48 45 27 54 57 55 49 40 26 26 21 22 23 23 19 18 21 19 14 14 18 19 18 17 15 15 17 18 22 21 21 19 17
41 44 50 47 43 45 53 58 56 66 78 75 63 53 35 46 38 59 53 50 46 43 27 23 21 24 22 21 20 23 17 14 15 18 11 22 19 13 7 9 0 10 6 9 7 3 8
36 38 39 42 44 45 53 57 54 64 81 71 57 57 27 44 43 40 57 56 44 40 26 30 27 32 24 25 24 17 10 7 5 9 17 19 16 11 6 12 11 13 8 9 8 4 7
33 33 34 34 40 45 49 58 61 70 68 66 58 58 29 26 50 45 55 49 47 36 32 37 29 27 27 23 20 11 9 11 9 12 18 19 17 15 11 5 6 5 7 7 7 8 10
32 33 29 37 36 49 51 54 57 76 56 70 55 47 38 33 33 37 56 54 44 36 36 39 32 32 28 28 18 12 12 11 11 9 7 13 16 16 14 8 6 8 10 12 9 8 12
31 30 27 36 34 52 48 53 57 82 50 70 49 48 40 18 30 37 48 51 43 35 37 37 35 32 27 19 19 14 11 17 9 8 7 8 11 13 14 7 8 12 13 12 12 15 13
36 32 31 34 43 47 52 52 61 86 53 67 56 50 42 23 40 36 54 34 36 34 36 33 33 32 23 20 14 18 12 19 14 12 9 9 8 9 7 3 5 6 10 9 13 13 18

GFSGBSN_700_spd_018.txt.gz
Wind_Speed
26 26 27 28 30 31 31 32 33 33 32 31 28 26 25 23 21 19 19 19 19 19 20 19 18 14 7 4 3 3 6 12 12 2 10 12 12 5 7 15 15 17 2 4 12 13 9
27 26 24 23 22 24 26 30 31 32 32 31 29 27 25 24 21 19 19 18 18 18 18 18 15 11 5 5 1 4 7 6 8 7 14 10 5 2 8 8 9 10 5 4 4 6 13
30 28 26 25 21 19 20 23 27 30 32 31 29 28 26 24 21 19 18 17 17 18 18 17 13 9 5 6 3 7 4 4 6 5 12 4 1 1 5 3 2 6 3 1 4 18 11
37 33 30 29 25 23 23 20 23 25 28 29 29 28 27 24 21 19 18 17 17 17 17 15 11 6 6 9 7 8 5 3 4 3 11 8 6 6 6 3 1 12 4 7 14 9 5
44 40 36 33 32 28 27 26 24 23 23 25 28 28 25 23 21 19 18 17 18 17 17 14 9 6 8 7 5 9 7 3 5 6 6 11 4 8 5 3 3 4 4 6 10 8 3
50 47 43 40 35 33 30 34 39 26 24 22 22 26 23 22 22 20 18 18 17 17 17 13 9 7 7 6 9 7 8 2 4 6 6 3 3 10 7 2 2 6 6 7 8 23 15
58 54 50 46 42 38 35 31 31 37 27 24 20 21 22 22 21 20 18 19 17 18 15 10 9 13 17 19 14 11 9 2 3 4 4 5 4 5 5 2 7 4 4 9 10 9 10
63 61 58 53 48 44 38 35 35 32 33 28 23 19 19 20 21 20 17 17 17 17 18 14 14 19 24 21 18 14 10 8 5 2 1 1 2 2 3 4 3 3 3 11 14 16 14
68 65 61 59 56 50 45 39 38 36 32 31 26 21 17 19 23 19 17 18 20 17 18 10 13 21 24 20 18 15 19 11 8 7 5 5 4 10 4 14 6 8 11 10 3 6 11
72 71 67 63 60 56 51 45 41 38 36 32 27 23 17 21 20 19 19 19 16 14 10 10 15 22 29 21 21 17 20 13 14 15 10 11 11 11 9 18 11 19 9 13 4 3 6
79 75 73 69 65 61 56 51 46 43 38 35 30 27 21 22 22 21 20 16 14 9 3 3 14 12 26 24 3 24 21 19 17 14 12 10 7 14 24 20 12 15 11 12 8 9 5
80 80 75 73 70 67 62 57 52 47 44 40 36 30 27 24 21 24 20 17 14 7 8 10 13 17 28 25 15 27 20 16 11 19 9 10 8 13 12 15 11 8 7 8 7 8 2
77 80 79 77 74 70 67 62 58 52 48 45 40 35 30 24 25 28 21 17 12 8 8 15 18 17 19 25 20 22 16 21 19 15 16 14 7 6 11 17 13 11 8 3 0 1 4
53 68 70 77 77 73 69 66 63 58 53 50 44 39 34 27 31 29 25 24 15 9 16 11 22 17 20 19 21 17 15 18 23 22 14 13 3 13 7 8 8 14 9 4 4 3 4
49 55 58 60 70 76 73 68 64 62 57 53 46 44 42 31 36 32 32 35 17 16 23 15 24 26 25 20 20 19 21 22 20 22 22 12 11 11 12 4 6 4 13 7 4 4 2
51 50 53 56 57 63 74 70 68 64 59 56 50 47 47 35 38 35 39 44 31 28 10 22 22 27 24 21 25 22 26 21 23 18 29 19 10 15 12 13 7 9 6 3 4 4 2
52 52 53 55 63 55 61 72 69 68 62 57 51 50 52 40 40 41 53 51 37 34 23 9 23 18 26 21 24 25 22 24 15 20 27 28 18 10 14 22 22 10 11 15 12 5 4
54 53 53 50 59 61 51 58 70 70 65 60 53 50 52 46 45 52 57 49 42 39 35 22 15 10 22 25 24 26 25 22 19 21 30 32 22 18 18 6 14 14 15 15 13 6 6
55 54 53 48 48 55 51 49 55 67 66 62 55 41 32 49 54 60 54 52 48 44 41 31 22 13 16 19 26 26 24 22 15 13 26 26 15 11 8 12 19 20 17 20 17 13 15
55 54 54 51 49 59 57 53 46 60 61 59 52 42 37 48 59 59 60 52 52 45 47 36 24 20 16 17 12 25 24 20 19 21 21 23 19 18 18 16 14 12 12 12 16 13 15
54 52 53 49 50 57 56 51 49 53 55 58 54 48 53 61 68 63 52 53 52 53 47 38 29 25 18 14 14 19 25 22 24 24 22 21 21 17 14 15 15 12 12 10 11 12 15
52 51 51 51 49 53 54 51 57 57 61 68 57 43 51 40 62 66 58 57 56 50 47 44 32 22 17 20 16 20 27 22 23 22 22 19 18 21 22 23 20 17 15 16 19 15 11
52 50 47 47 49 51 52 49 63 61 66 75 57 43 43 55 41 63 70 63 55 49 46 39 29 20 19 23 13 13 15 19 18 18 18 19 21 18 17 17 16 16 27 23 21 23 21
48 45 44 43 50 52 49 62 68 62 70 75 59 50 44 52 36 56 64 59 54 52 45 40 27 25 17 24 20 19 14 15 16 17 18 20 21 19 13 14 1 13 14 12 17 18 16
44 41 39 40 49 48 56 62 65 62 68 74 67 56 36 48 46 43 43 57 50 47 45 37 29 27 23 24 24 23 19 19 18 17 21 20 20 16 8 14 11 11 10 12 13 8 8
37 35 36 46 55 44 46 54 57 68 64 70 63 50 37 35 57 43 38 46 52 50 47 48 33 18 27 28 25 18 13 13 11 12 17 19 18 20 11 5 7 14 20 17 16 14 14
35 36 37 49 51 45 47 43 62 68 67 76 67 55 36 41 30 46 42 48 51 47 50 46 36 30 32 31 26 18 17 19 15 17 20 21 20 20 19 12 10 13 11 11 15 12 17
35 36 41 46 45 42 43 49 58 68 73 75 68 53 36 13 33 36 48 37 47 51 54 46 35 40 41 32 30 20 14 17 16 17 18 17 15 18 18 11 11 15 19 20 16 13 14
32 33 34 34 36 41 46 46 58 65 64 73 67 46 34 10 23 34 43 46 40 51 46 39 39 38 33 30 21 23 17 19 19 17 16 15 15 13 13 8 9 8 14 13 12 11 11

GFSGBSN_700_spd_021.txt.gz
Wind_Speed
29 28 29 30 31 31 32 32 32 32 32 31 30 29 28 27 26 24 24 21 21 20 21 19 18 15 9 5 3 3 3 10 10 2 9 11 10 7 4 8 8 4 5 3 2 5 5
32 30 29 27 27 26 26 27 28 30 30 30 30 29 28 27 26 25 24 21 20 19 19 18 17 13 8 5 3 3 4 6 7 4 12 8 5 5 3 3 7 10 2 1 3 4 6
37 34 32 30 27 26 24 22 21 22 24 25 28 29 28 26 26 25 24 21 20 18 19 17 15 11 8 7 6 8 5 3 5 9 7 4 4 2 4 1 2 3 3 1 5 11 12
44 41 37 34 31 28 27 25 21 19 19 19 21 25 27 26 27 26 24 21 20 18 18 16 15 10 6 5 6 9 5 3 4 11 9 8 10 5 5 3 7 9 3 5 10 12 9
51 48 44 40 37 34 30 29 27 22 20 20 20 19 25 26 26 26 25 23 21 19 17 15 14 10 8 6 9 11 7 5 3 3 14 15 11 11 8 3 3 6 5 7 12 12 1
55 54 51 48 44 40 36 33 30 27 27 29 29 18 20 22 24 24 25 24 21 20 18 14 14 9 9 12 18 17 12 5 4 3 1 8 10 10 8 3 3 3 1 6 10 12 9
60 58 56 53 50 47 42 37 34 33 33 32 25 20 18 20 23 23 23 24 21 21 19 15 11 13 13 17 18 17 13 6 6 5 3 5 4 6 6 4 4 6 4 3 1 9 18
66 63 61 59 56 53 48 44 39 34 30 30 31 24 22 20 20 21 22 23 21 21 20 16 16 16 19 22 21 20 16 12 10 3 2 1 2 3 2 3 3 5 3 6 6 11 13
72 70 67 64 61 58 53 49 44 39 34 30 26 30 26 22 17 20 22 23 19 20 19 17 21 16 24 24 23 24 21 15 10 6 6 4 3 5 4 8 5 1 5 11 16 4 10
76 74 72 68 64 61 58 53 47 43 39 34 30 25 25 19 16 16 22 20 16 15 13 18 15 17 30 28 25 22 24 18 15 9 9 9 7 9 10 12 7 9 5 13 7 5 6
73 76 75 73 70 66 62 58 53 47 44 40 34 29 24 22 20 18 19 18 10 11 4 6 14 14 30 30 12 23 23 22 20 16 9 11 4 9 14 21 18 11 16 12 8 7 11
50 65 76 75 73 70 66 62 59 53 48 44 39 33 29 24 21 19 22 17 13 9 8 6 14 18 33 32 15 14 27 26 19 16 17 11 6 8 19 15 11 15 15 8 9 7 1
51 50 56 73 75 74 70 67 63 58 52 48 43 38 35 26 21 25 21 19 13 10 9 11 19 20 30 34 29 16 29 27 21 15 18 13 7 9 14 18 17 13 12 3 1 1 4
55 51 49 52 69 73 73 69 67 62 57 52 47 43 39 31 26 25 24 24 17 11 24 9 19 20 23 30 27 21 23 27 24 22 12 16 8 12 9 7 11 8 8 4 3 3 3
55 53 51 49 51 63 67 72 67 67 62 56 52 48 45 38 32 30 32 36 18 17 23 15 21 24 24 26 24 25 25 23 23 25 24 12 14 10 12 5 7 8 6 6 2 2 1
59 55 52 49 47 54 54 58 69 66 65 61 57 53 52 40 37 34 41 48 29 32 11 19 18 24 27 24 26 25 24 23 22 20 14 22 3 15 14 11 9 11 8 4 2 2 3
62 58 53 49 48 43 48 53 56 66 65 62 59 56 57 45 41 39 55 46 37 31 22 12 17 19 29 25 27 27 23 27 22 25 24 23 19 10 17 14 14 17 15 11 7 5 4
62 62 55 51 49 45 52 53 49 53 61 61 61 59 56 51 47 52 59 51 42 46 34 26 18 19 26 29 26 27 28 26 18 21 27 23 22 22 19 20 19 24 24 14 6 5 7
60 62 59 54 50 48 52 52 49 41 52 62 61 49 35 51 55 63 57 54 48 47 46 38 23 15 15 22 30 28 28 26 27 20 23 25 26 18 18 22 20 18 22 18 19 18 16
58 60 61 55 55 53 55 54 51 43 46 55 52 41 38 47 64 60 57 51 55 50 47 45 36 24 15 12 20 33 29 29 24 20 15 20 26 24 25 20 19 20 20 21 21 21 19
51 58 60 57 58 57 54 64 55 48 45 59 52 46 52 61 69 68 54 52 56 55 46 44 47 40 22 15 15 18 25 25 20 22 20 23 25 17 21 17 18 17 16 18 18 17 19
54 60 60 58 57 57 57 55 60 58 50 63 53 48 47 55 65 68 58 56 48 58 42 47 47 42 28 23 14 19 20 27 25 26 27 25 17 23 20 18 19 22 24 19 19 18 18
49 58 58 56 53 54 52 51 60 56 61 70 62 45 44 61 52 60 76 64 61 52 53 44 38 41 34 21 17 13 19 22 27 27 29 26 25 21 22 21 21 22 31 32 29 26 24
49 54 56 55 53 51 49 56 54 60 60 72 64 51 45 51 50 65 62 64 62 57 53 45 31 35 33 19 19 20 19 21 24 21 29 29 25 23 18 17 3 24 24 26 31 33 33
52 53 52 52 51 49 53 59 58 57 69 71 67 57 32 42 55 52 44 60 55 54 50 46 41 32 29 20 16 22 26 25 24 23 27 25 21 17 11 19 16 10 16 15 19 18 17
51 51 49 50 45 47 51 56 58 56 76 57 64 64 30 30 47 49 51 36 53 59 50 47 38 34 27 24 28 20 16 16 18 21 22 22 21 23 13 6 8 25 21 25 16 16 16
44 42 45 44 41 44 47 51 57 65 81 56 60 64 46 21 33 30 47 42 29 46 53 44 42 42 28 29 33 23 22 24 20 29 24 24 24 24 25 14 12 16 14 14 20 17 21
41 41 39 39 43 43 49 51 56 76 78 60 73 65 57 27 29 31 33 36 42 32 53 46 40 42 42 33 35 22 13 25 24 24 28 28 24 21 22 19 14 16 18 22 17 19 10
33 33 36 39 42 45 44 49 70 74 55 64 74 66 56 33 31 30 33 43 44 38 33 46 44 38 38 32 30 25 18 24 25 24 24 22 26 23 17 18 15 11 16 21 22 17 12

GFSGBSN_700_spd_024.txt.gz
Wind_Speed
33 32 32 31 32 33 33 33 34 33 33 33 31 29 29 29 28 28 27 27 25 24 21 20 17 16 13 8 4 0 2 4 6 2 8 9 8 8 5 5 1 4 4 2 3 8 3
38 35 33 32 31 31 30 31 31 32 32 32 30 28 29 29 29 28 26 27 24 23 20 20 17 14 12 7 6 4 3 3 4 5 9 5 3 3 4 3 2 5 3 1 3 2 3
45 42 39 35 33 31 30 28 28 28 28 28 28 27 28 29 27 28 27 27 25 22 20 19 17 14 10 7 8 8 5 1 1 7 7 4 3 2 3 3 2 4 3 3 4 3 5
51 49 45 43 39 35 32 30 28 26 25 23 22 21 24 26 27 26 28 27 25 21 21 20 17 13 8 7 9 11 8 3 1 7 11 8 9 7 6 5 1 6 3 1 4 8 7
55 54 52 49 45 42 38 34 31 28 25 23 20 17 18 21 24 25 28 26 27 22 22 21 17 14 8 9 13 16 11 6 2 6 13 12 12 9 9 7 2 4 3 4 10 8 3
60 57 56 55 53 48 45 40 36 33 30 28 23 21 21 22 22 23 27 26 26 23 23 22 19 14 10 14 19 19 14 11 7 3 4 10 16 14 8 3 1 1 2 6 9 12 8
65 62 61 59 57 55 50 47 42 38 35 30 27 23 21 22 25 24 25 26 24 23 24 24 17 9 9 17 20 20 17 12 10 5 3 3 6 10 7 5 2 4 1 5 2 12 13
70 69 66 63 60 59 57 52 49 44 40 35 32 29 27 23 22 21 24 24 21 22 25 21 19 19 16 20 23 25 22 16 12 7 3 2 3 5 5 3 1 3 3 3 5 10 10
66 70 69 69 64 62 60 58 54 50 45 40 34 29 27 29 24 19 22 22 19 19 25 23 23 20 20 23 26 29 25 19 15 9 5 6 4 2 4 5 4 3 1 9 18 7 13
45 52 66 69 69 65 63 61 59 55 50 44 38 32 26 26 26 19 16 19 16 14 16 19 14 18 23 28 29 28 28 21 18 13 9 8 6 9 9 8 10 10 4 15 12 5 2
47 45 47 46 66 69 67 63 60 58 53 47 41 35 31 26 25 21 15 10 10 6 5 7 15 15 24 32 21 32 29 26 22 16 9 5 6 6 10 12 11 16 10 16 9 4 5
52 51 50 48 46 62 70 67 63 60 57 51 45 40 36 32 25 21 19 11 10 6 8 6 9 18 26 34 19 30 31 28 22 19 15 13 12 13 16 15 15 11 12 12 9 5 2
57 55 54 53 50 46 58 70 66 62 59 56 50 45 42 35 27 25 19 15 13 13 7 13 13 19 24 36 29 21 33 32 27 19 17 15 15 12 7 15 18 14 11 4 2 1 4
52 54 57 56 53 50 43 61 65 66 62 59 54 50 46 41 32 28 25 24 17 13 37 7 16 18 22 32 35 22 23 34 30 23 10 15 14 15 10 13 14 12 7 5 3 2 3
52 52 52 55 55 51 45 42 56 53 64 61 57 55 53 45 37 33 31 34 20 21 11 41 10 17 23 29 28 32 24 24 32 28 22 8 17 14 14 9 9 10 6 6 4 2 1
54 52 53 54 52 51 47 40 49 43 57 61 60 59 57 48 41 37 39 42 35 25 17 17 26 15 26 27 29 27 32 29 32 28 24 22 7 17 15 14 10 7 7 4 4 3 3
55 57 55 57 54 50 48 43 38 43 46 52 57 59 60 52 46 44 52 48 37 30 24 13 16 12 21 28 27 27 26 16 31 26 25 23 19 16 15 19 16 12 11 11 8 5 4
55 57 58 57 59 54 49 44 37 47 45 40 37 57 61 56 50 55 57 53 41 38 34 28 14 18 19 23 28 31 24 31 21 25 28 22 12 20 23 14 14 12 13 17 16 7 7
52 55 59 59 57 57 50 46 42 61 51 43 46 48 37 51 58 64 56 50 42 45 39 38 33 15 14 14 17 26 29 26 27 19 21 23 30 19 21 28 24 27 24 23 19 12 15
54 55 58 56 56 55 52 48 45 60 58 48 44 38 41 44 65 64 56 42 50 50 43 42 39 32 19 14 14 22 26 27 30 26 21 21 29 26 27 27 18 18 22 19 19 12 14
55 53 54 57 55 54 54 48 47 62 58 54 53 44 49 54 66 68 59 52 53 54 51 44 41 44 30 17 10 22 25 29 27 23 23 24 22 31 28 30 27 24 21 21 23 25 22
53 52 52 55 53 54 57 51 51 56 62 53 62 47 51 52 65 63 47 55 53 55 47 48 49 40 42 28 10 12 11 23 26 25 25 25 21 22 30 25 21 21 20 21 22 22 24
53 51 53 54 55 56 58 50 60 59 56 59 64 53 42 54 50 61 77 56 56 51 56 39 39 41 40 39 21 18 18 17 20 25 26 28 25 22 22 19 20 23 25 25 29 31 30
49 50 53 59 61 54 58 51 58 56 65 60 68 60 44 39 50 65 62 59 46 60 55 51 37 27 33 36 28 24 22 21 21 22 27 29 30 26 20 18 3 26 27 26 28 31 31
47 48 47 55 56 53 58 52 63 59 58 58 59 63 41 40 51 41 50 50 50 50 52 50 35 31 11 18 31 23 21 23 20 24 29 32 28 22 15 20 23 21 23 21 17 20 20
50 45 46 47 48 55 55 49 57 70 60 55 59 60 29 25 46 48 37 41 46 55 52 54 41 22 36 23 21 16 14 17 15 23 25 27 27 30 14 8 8 26 21 25 22 28 24
40 39 46 47 51 52 49 46 52 62 65 61 62 66 53 22 20 33 47 45 37 41 51 52 46 35 26 21 21 27 28 20 21 27 23 27 28 27 25 17 19 22 19 15 19 28 19
37 42 42 44 46 46 43 43 47 54 56 61 60 68 54 33 23 21 34 44 42 39 38 35 35 42 43 35 23 20 21 27 26 28 33 32 28 26 26 16 16 23 22 26 27 19 17
35 34 39 38 46 39 41 43 50 48 58 48 58 60 56 23 31 16 36 36 39 40 43 33 36 36 36 32 29 24 18 19 27 31 33 34 35 29 27 27 27 18 14 21 22 21 11

GFSGBSN_700_spd_027.txt.gz
Wind_Speed
37 35 34 33 32 32 32 32 33 34 34 33 32 32 30 30 30 29 29 28 26 23 22 20 18 15 14 11 6 5 2 2 4 4 9 8 8 8 4 2 1 3 1 4 1 6 2
42 42 39 37 35 34 32 31 30 29 32 32 33 32 31 30 30 31 31 30 26 25 21 19 18 15 13 10 8 7 5 1 2 6 10 8 9 8 5 3 2 3 4 4 3 7 7
46 45 44 43 41 38 35 33 32 30 28 28 29 30 31 31 31 31 31 30 28 24 21 19 18 17 13 11 10 11 8 4 1 8 8 8 9 8 6 3 4 4 3 4 3 7 4
50 49 48 46 46 44 41 36 33 32 29 27 26 26 27 27 28 29 30 29 30 25 22 19 19 17 13 12 12 15 12 7 4 8 9 9 8 8 6 5 7 2 4 4 6 9 6
55 53 53 51 49 48 47 43 38 34 32 29 27 25 24 23 22 23 25 28 28 26 22 22 21 17 14 13 16 20 16 11 7 8 11 12 11 7 9 6 5 1 1 2 4 6 4
58 58 57 55 54 52 50 48 44 40 35 33 30 27 24 23 20 18 20 22 24 25 22 24 21 18 16 13 22 23 20 15 10 8 8 11 14 10 11 5 2 1 2 5 7 7 8
55 57 59 60 58 56 54 52 50 46 41 36 34 32 28 25 23 22 21 23 24 25 23 25 16 9 12 17 24 25 22 17 13 9 8 5 6 8 10 5 2 3 5 3 4 9 12
49 52 54 58 61 61 58 56 53 51 47 43 38 35 32 29 25 22 20 22 24 25 28 25 23 25 20 17 26 29 26 22 18 12 10 5 5 8 8 7 5 3 6 3 1 4 15
47 47 49 50 56 60 62 60 57 53 52 47 43 38 34 33 30 25 21 22 20 22 26 26 25 27 21 25 27 32 30 23 19 17 11 7 9 8 7 7 9 6 5 8 8 5 7
48 48 46 45 45 48 59 63 61 57 54 52 46 43 37 34 31 27 27 21 18 16 14 19 15 24 22 28 29 32 32 25 22 18 12 8 10 6 6 6 10 9 10 8 10 2 3
52 50 49 49 46 42 41 50 63 61 57 54 51 46 41 37 32 26 24 18 11 10 4 7 16 21 17 32 22 35 34 30 26 22 18 10 9 7 5 3 8 11 12 7 8 4 4
48 51 52 51 50 48 43 38 43 63 61 58 55 49 44 43 35 26 24 19 10 8 8 6 8 14 20 31 31 30 37 32 27 22 19 16 9 6 6 9 12 15 9 8 6 3 2
51 50 50 54 54 52 50 43 37 45 62 61 58 54 49 46 39 29 26 19 13 11 4 8 9 12 18 30 29 26 40 37 32 25 25 20 15 10 10 10 14 14 11 3 1 2 3
53 51 49 51 56 56 53 51 43 39 51 58 58 56 53 49 43 35 28 24 17 13 32 7 3 7 16 24 31 24 38 38 35 27 22 19 10 15 10 6 9 12 13 7 3 3 2
58 54 52 50 52 55 57 55 49 41 38 52 53 53 58 54 47 39 34 34 23 29 10 31 24 8 18 23 28 26 27 40 38 37 20 19 15 12 10 9 9 12 13 11 7 3 2
57 55 53 53 51 50 50 54 51 42 39 42 47 52 59 56 49 43 41 45 35 25 30 17 18 14 13 23 28 37 24 27 40 35 31 15 7 16 14 11 11 11 11 6 6 4 3
55 57 57 54 55 51 50 50 47 42 38 41 43 50 61 54 48 43 52 51 42 28 28 33 20 14 21 18 28 25 30 17 29 31 31 28 19 12 13 18 17 15 13 9 7 4 3
58 57 57 54 55 56 52 51 47 41 38 45 49 50 65 46 46 52 65 52 34 44 34 31 27 17 20 17 21 30 31 30 18 30 32 27 18 19 20 16 16 21 17 16 6 5 9
53 50 48 53 53 57 56 52 50 43 41 50 52 47 55 47 51 51 60 58 47 36 41 37 33 19 13 9 13 21 29 23 24 26 31 28 22 17 13 17 18 17 17 15 17 20 17
50 50 48 50 50 53 58 54 51 46 49 52 55 42 41 43 59 63 46 45 44 50 38 40 36 29 15 13 12 10 22 24 24 19 27 25 30 24 24 22 19 23 27 23 22 17 19
52 50 52 49 50 52 57 57 52 51 49 60 59 39 47 54 59 63 55 48 55 49 47 46 43 42 30 24 7 15 14 21 23 30 31 26 23 23 24 28 28 27 27 22 24 24 23
52 51 51 48 51 50 52 57 53 57 58 66 49 45 47 54 62 62 41 50 52 55 49 42 44 44 35 36 18 12 11 16 17 27 27 34 29 25 24 24 29 27 27 27 24 23 24
54 49 52 49 50 49 53 55 53 60 57 70 66 49 58 57 47 53 64 44 39 49 51 39 43 37 35 34 32 23 14 10 13 16 24 29 28 24 21 21 24 26 30 25 26 26 26
46 47 51 51 51 52 54 60 53 62 54 69 70 56 57 42 54 58 43 44 45 52 50 42 25 26 30 31 29 27 32 27 19 22 20 25 30 28 18 19 7 22 23 22 24 27 30
36 46 48 52 52 51 52 63 53 60 50 63 75 59 53 43 47 46 43 38 33 41 42 36 36 25 19 22 26 31 29 25 26 23 23 23 26 21 15 23 22 18 21 25 23 34 28
33 43 44 47 50 50 50 51 49 56 50 63 68 58 53 43 32 45 40 38 45 40 41 45 35 29 25 20 14 14 15 20 9 15 23 26 26 29 15 11 10 23 23 24 22 38 32
33 43 45 45 45 46 50 46 48 47 54 59 63 56 49 43 23 32 38 36 37 43 41 44 38 30 33 33 19 16 18 20 11 20 21 27 29 30 29 17 19 18 18 19 19 37 22
32 38 44 40 39 46 48 46 50 53 54 55 56 53 50 41 28 25 32 38 37 38 44 34 31 40 30 30 26 19 15 27 21 20 28 30 28 24 28 19 16 24 24 28 28 24 19
34 35 32 35 42 38 44 49 45 53 53 52 49 53 53 50 23 19 32 35 38 35 35 34 36 34 46 34 31 17 17 23 29 33 29 31 31 31 28 29 30 24 26 27 24 19 21

GFSGBSN_700_spd_030.txt.gz
Wind_Speed
38 37 36 35 34 33 31 30 30 30 30 31 32 32 31 31 32 31 30 29 28 26 25 23 21 18 15 12 11 10 7 2 2 6 9 10 9 8 4 2 3 3 6 8 4 7 3
41 40 40 39 38 37 35 33 31 28 29 30 30 31 32 31 31 32 31 30 30 28 25 24 22 19 15 12 11 11 10 6 5 7 10 10 11 8 6 3 4 7 10 5 2 7 5
44 44 44 43 41 41 39 37 35 32 29 29 29 29 29 32 32 32 32 31 30 28 26 24 22 20 17 12 12 13 13 8 7 9 11 10 11 10 9 4 5 8 3 4 5 8 6
47 47 47 47 46 45 43 41 38 36 33 31 29 28 29 28 31 29 28 29 29 28 27 24 22 22 17 14 13 15 16 11 9 9 11 11 9 10 12 8 7 4 3 2 5 11 6
48 48 49 49 50 48 47 45 43 40 37 34 31 29 29 28 28 26 24 24 24 23 25 24 22 22 20 16 14 19 20 15 12 13 13 12 10 8 12 8 7 6 6 1 1 8 4
46 47 48 49 50 51 50 48 46 45 41 38 35 32 30 28 27 24 21 18 17 15 17 21 22 19 20 11 16 22 23 19 14 13 13 13 14 9 11 10 10 5 8 6 6 7 6
44 44 45 47 48 49 51 52 50 48 46 42 39 36 33 30 28 25 20 20 20 21 21 20 18 18 19 13 17 24 26 21 17 15 12 12 11 14 13 13 6 3 6 7 3 7 5
43 45 46 44 44 46 48 51 53 52 49 46 44 40 36 34 31 28 24 22 21 24 27 27 24 27 19 15 20 27 30 27 23 17 14 12 12 12 15 13 9 7 7 6 5 5 8
46 45 45 45 45 42 43 46 50 54 53 50 48 44 41 37 34 30 28 25 21 23 28 31 29 31 28 28 22 30 33 30 24 18 16 12 7 12 13 13 12 9 10 5 3 5 9
45 46 46 44 45 45 42 41 41 44 55 54 51 49 45 41 37 31 29 26 24 22 19 32 32 29 32 30 33 30 33 30 24 22 16 15 13 10 10 11 11 12 12 2 2 4 6
41 40 43 46 49 46 45 42 40 36 38 55 55 52 48 44 41 34 30 23 20 17 7 8 18 21 29 35 24 34 37 36 26 24 23 15 18 14 12 13 10 11 11 7 5 5 4
44 44 42 40 39 47 50 47 44 38 34 39 56 54 51 48 44 34 30 23 17 10 10 8 11 18 23 35 28 26 38 38 27 21 24 16 15 11 13 11 9 11 10 6 6 5 7
46 45 46 45 42 41 45 50 48 43 35 35 44 56 54 49 42 35 31 25 15 17 13 13 14 16 23 26 29 26 41 44 35 28 28 23 18 13 13 10 12 14 14 14 8 7 7
48 48 47 47 47 44 43 46 51 48 42 35 32 44 56 53 43 38 32 30 19 24 29 10 13 15 15 20 24 26 31 38 35 30 24 26 22 19 16 13 13 21 22 14 6 6 4
53 52 51 49 49 47 46 43 49 52 44 40 35 38 39 55 47 43 36 36 35 36 27 18 11 11 15 19 19 24 29 40 39 35 28 27 24 16 18 14 11 14 19 15 9 5 6
58 57 55 52 53 49 49 47 44 51 45 41 37 35 46 48 51 47 39 46 38 28 21 29 32 13 15 19 23 24 26 32 36 34 28 17 18 19 16 16 16 12 16 10 10 6 7
63 60 56 52 52 51 48 48 45 44 41 37 36 40 44 40 46 48 47 48 44 29 23 22 21 32 19 17 23 26 22 18 39 33 30 24 18 11 22 18 18 16 11 12 9 8 6
52 55 57 55 52 51 52 51 51 46 43 39 43 47 43 37 45 58 53 59 42 38 26 25 23 19 16 20 17 25 30 27 15 33 40 31 21 23 18 15 19 18 19 18 15 10 5
54 56 58 58 57 53 54 53 53 53 52 47 47 49 40 40 50 49 62 61 41 30 34 27 27 25 27 16 16 21 25 29 23 20 24 34 25 21 21 19 20 17 18 19 16 14 13
58 57 54 51 52 58 49 51 56 57 56 52 53 50 34 38 43 52 67 67 44 36 30 30 25 26 24 21 22 16 24 26 29 27 24 26 27 32 23 22 20 19 20 20 21 17 18
47 46 45 46 48 51 56 54 56 60 57 57 60 48 57 53 52 60 60 67 54 51 35 31 28 30 29 20 17 15 19 24 23 28 28 33 32 26 26 23 23 26 23 25 27 25 23
50 52 52 50 49 50 50 48 57 61 59 63 65 47 52 43 50 52 59 56 55 42 41 34 31 25 29 22 15 12 17 22 16 26 29 30 21 24 25 24 26 25 25 26 26 26 26
42 46 50 52 52 50 50 50 51 56 63 67 63 56 41 47 41 46 59 60 50 44 41 33 33 27 31 35 16 15 19 13 9 9 28 30 30 23 23 22 22 16 27 24 25 25 26
43 45 48 47 52 50 51 50 49 57 64 65 56 65 40 37 41 52 60 48 50 43 44 31 26 29 34 37 33 32 30 16 18 13 16 24 28 22 18 19 8 20 19 19 23 26 24
37 41 48 49 53 51 49 50 49 61 63 63 55 65 51 35 36 40 48 48 37 36 38 36 27 23 28 32 27 23 23 30 24 19 19 21 23 16 13 17 19 17 22 20 23 24 22
23 29 42 46 51 51 49 48 47 61 61 64 53 67 44 41 33 27 39 39 47 39 31 31 30 28 24 22 15 11 15 23 9 10 21 22 25 21 18 12 9 19 20 20 19 27 20
12 26 36 40 47 48 47 47 55 56 58 64 49 64 52 33 25 30 31 35 41 38 35 34 29 32 29 26 21 13 12 19 23 7 11 25 26 27 24 12 15 17 16 16 16 29 15
18 26 33 41 45 44 43 45 49 46 52 59 46 56 64 41 29 28 30 28 33 36 41 34 31 34 33 32 21 15 13 18 17 26 18 21 23 21 19 14 15 19 20 22 27 22 20
26 33 35 40 41 41 43 46 38 48 52 53 42 51 58 43 28 32 32 32 36 32 33 36 45 39 38 26 22 20 18 16 18 18 29 23 20 20 26 24 28 23 20 20 19 24 23

GFSGBSN_700_spd_033.txt.gz
Wind_Speed
36 36 36 36 35 34 33 31 29 28 27 27 28 28 28 30 29 30 30 29 29 28 28 27 26 24 21 16 13 14 12 8 5 4 7 8 5 3 5 6 6 8 8 8 11 5 3
38 38 38 38 38 37 36 34 34 32 30 28 28 28 27 28 28 29 29 30 30 30 27 28 26 25 23 17 18 15 12 10 7 4 7 9 5 9 6 8 8 6 9 10 8 6 8
40 40 40 40 39 39 39 38 37 35 34 32 30 28 28 27 28 27 28 29 31 30 28 27 26 25 24 16 16 15 13 13 9 7 10 10 10 7 6 6 11 10 9 8 9 7 2
41 41 41 42 42 42 42 40 39 38 37 35 34 31 28 27 26 26 26 27 28 29 29 27 25 24 26 20 16 16 16 16 13 9 9 13 12 14 11 9 10 10 12 9 5 8 6
42 42 42 42 43 43 44 44 42 40 40 38 36 34 31 28 26 26 25 25 26 26 26 25 24 22 23 22 18 17 18 19 15 12 11 10 11 10 10 12 14 14 16 6 7 8 8
41 41 41 43 43 43 44 45 46 44 42 41 40 37 35 30 28 26 26 24 23 23 20 20 19 18 20 13 16 19 22 23 18 15 14 13 10 12 12 16 19 13 16 10 4 10 8
38 38 39 40 41 42 43 44 45 46 46 44 42 40 38 34 31 28 25 24 20 19 22 18 11 12 19 15 20 18 24 26 21 17 15 12 14 18 15 17 16 10 8 11 4 3 8
39 39 39 39 39 40 40 42 43 43 46 47 46 43 41 38 34 31 27 24 24 21 28 25 21 22 23 21 19 21 28 31 26 20 16 15 18 16 16 14 15 12 12 13 7 4 6
42 43 43 42 42 42 41 40 39 39 40 43 48 47 45 41 39 34 31 26 26 25 30 33 29 29 25 29 23 22 30 31 25 22 20 19 8 13 15 16 15 14 16 8 9 7 10
37 38 41 43 44 44 43 42 39 37 35 36 39 47 48 45 39 37 32 26 23 21 20 26 31 36 33 31 37 25 26 30 25 26 22 20 15 12 14 17 17 18 13 8 5 9 9
36 37 38 39 39 40 46 46 44 40 36 33 33 37 47 45 46 36 24 27 20 14 8 10 21 24 22 34 19 37 30 32 30 24 25 23 21 17 18 18 15 11 11 11 12 13 10
38 37 37 35 35 37 36 40 45 47 40 36 32 33 39 47 44 36 36 21 17 12 17 12 15 13 22 26 24 13 35 34 29 25 25 23 17 19 18 17 15 13 9 11 14 15 12
39 39 39 40 38 35 36 38 39 42 46 39 35 32 34 40 44 35 30 23 19 25 22 23 15 15 17 20 31 25 36 39 37 34 33 27 21 21 18 18 16 16 14 17 10 13 10
43 43 41 41 40 39 37 35 38 39 40 42 36 33 33 36 38 34 36 28 24 37 38 5 15 16 20 19 29 30 31 40 39 35 28 31 30 26 20 24 21 20 23 21 5 9 10
46 47 46 44 43 43 42 41 38 39 40 39 37 39 36 36 32 38 38 37 46 37 28 37 12 15 20 22 20 31 35 39 42 40 35 32 31 26 25 20 21 17 24 25 27 11 8
49 47 47 48 48 48 48 46 42 38 38 31 36 41 44 34 28 41 40 47 43 42 30 19 38 19 22 22 26 34 34 35 39 42 34 22 25 20 22 19 19 20 11 21 19 12 11
52 54 56 57 60 58 54 50 46 38 36 33 33 38 46 37 32 40 46 48 50 41 31 32 34 32 20 23 27 28 31 24 36 38 38 36 20 24 20 25 25 19 18 18 16 25 10
58 59 62 62 59 54 52 48 45 40 39 39 41 48 39 39 42 46 56 61 55 49 36 30 27 30 38 24 18 28 30 30 22 38 41 37 26 26 26 25 24 22 22 24 21 17 19
59 60 57 52 46 45 47 48 49 46 45 47 51 51 43 41 52 51 53 56 61 52 43 35 34 26 21 30 30 21 29 25 22 36 39 36 36 22 26 22 20 23 22 20 22 22 10
57 55 52 53 49 45 48 50 50 51 52 53 58 52 45 44 54 46 42 55 59 53 50 34 36 31 31 24 22 21 25 24 28 22 37 37 30 37 27 28 24 26 24 25 24 21 21
50 49 48 51 56 54 53 54 47 57 58 60 67 45 53 57 57 58 54 49 51 54 48 46 36 32 35 33 29 25 20 19 28 32 28 31 39 32 34 27 26 28 29 29 28 28 28
46 48 51 51 47 50 52 55 52 55 56 68 70 50 54 43 58 51 45 48 47 52 48 49 42 40 38 28 25 22 18 18 17 26 36 29 29 29 33 31 29 27 25 26 29 30 30
48 49 49 50 49 49 48 48 53 49 55 76 71 64 45 50 40 49 54 50 52 52 53 46 45 34 30 28 15 25 18 24 7 4 21 24 29 27 30 28 28 32 28 27 27 30 26
46 46 46 44 47 52 51 50 52 52 54 69 64 64 44 40 45 47 52 45 47 50 53 47 43 39 31 26 26 19 24 10 22 4 11 17 22 28 22 19 15 23 21 25 28 27 26
41 40 44 47 44 45 52 53 51 51 56 56 62 63 49 41 43 43 41 41 37 45 39 44 45 36 29 24 17 10 20 26 28 17 13 18 16 19 22 21 20 22 21 20 21 24 22
36 39 39 40 41 47 48 52 51 52 54 69 55 58 46 43 37 38 37 38 38 49 36 44 36 32 33 27 19 18 17 15 11 15 16 17 21 23 16 21 19 23 22 17 18 25 18
21 19 32 39 41 44 48 51 50 52 56 61 54 58 61 38 30 29 37 37 39 46 47 46 40 34 33 27 21 16 22 17 15 20 16 21 24 29 26 16 19 17 16 19 19 24 11
15 14 22 30 38 43 47 53 46 49 49 57 55 57 60 46 35 25 29 32 39 39 45 41 35 26 28 24 22 16 18 21 19 24 24 15 18 18 22 23 20 15 19 21 24 18 15
3 11 17 32 42 43 46 45 47 47 45 56 54 54 52 29 22 35 21 35 36 42 40 33 52 45 28 24 23 18 20 20 23 20 28 26 16 18 18 20 25 21 23 22 17 18 19

GFSGBSN_700_spd_036.txt.gz
Wind_Speed
33 35 36 35 34 34 33 33 32 31 31 29 28 26 25 25 26 26 27 28 28 28 26 29 27 27 23 23 18 23 15 12 10 7 5 7 7 5 9 10 9 12 12 12 12 16 10
35 35 35 38 37 34 34 35 34 33 33 32 31 30 27 24 25 25 24 26 28 29 27 28 28 28 27 25 17 21 16 12 11 8 6 10 7 10 13 8 12 11 13 14 14 10 8
37 36 36 38 37 37 38 37 35 35 34 32 32 32 30 27 26 25 24 24 25 26 27 30 28 31 29 19 21 20 16 11 14 10 7 10 11 10 8 10 9 16 16 15 13 9 9
40 39 38 39 39 39 39 39 38 37 36 35 34 33 31 30 28 26 25 24 24 24 24 28 29 32 34 20 20 20 18 15 16 13 12 14 17 15 12 11 13 15 17 20 10 11 10
38 38 38 39 39 40 40 40 39 39 38 38 37 35 34 31 30 28 26 25 24 22 24 25 26 28 31 24 20 19 19 17 17 16 15 13 14 15 10 14 16 15 20 13 15 13 16
37 36 35 36 37 37 38 38 38 39 40 40 40 39 36 34 31 31 28 26 24 23 24 24 24 23 16 17 9 20 19 19 18 18 17 15 13 14 14 13 20 8 17 20 6 7 11
35 35 35 34 35 35 35 35 37 37 38 40 41 41 40 36 34 32 29 26 23 20 25 24 12 18 5 10 13 14 20 22 19 19 20 17 16 20 17 18 18 18 12 17 10 9 9
35 35 34 34 35 35 36 36 36 36 35 37 39 41 42 41 38 33 31 27 16 25 31 29 24 28 18 11 14 13 19 25 24 25 20 18 26 18 18 18 18 20 17 19 8 8 8
37 37 38 37 36 36 37 36 36 36 35 35 35 37 40 41 42 33 34 26 27 25 32 35 33 31 22 24 23 15 22 25 27 25 24 25 21 14 18 19 20 16 18 17 12 8 11
39 39 40 39 38 38 38 38 38 37 35 33 32 32 33 38 35 36 30 26 22 19 21 29 23 35 35 27 32 23 25 28 26 28 26 26 21 17 15 17 17 19 14 11 17 12 13
38 39 39 38 36 36 37 39 39 38 37 34 32 30 30 31 32 29 24 27 15 13 7 10 14 26 25 34 19 22 31 31 32 28 25 30 25 22 18 18 18 17 12 16 14 16 16
38 36 36 36 36 35 34 34 37 38 36 35 32 31 30 29 29 24 27 19 19 11 13 9 15 22 26 24 33 11 29 35 31 30 29 26 23 23 22 18 18 16 11 11 15 18 13
38 36 36 36 35 34 33 34 33 35 36 33 30 31 32 29 22 22 29 26 18 23 16 18 18 15 19 18 28 29 29 39 40 38 37 29 29 24 21 22 20 18 14 14 13 13 8
38 37 36 36 36 35 33 32 34 34 34 36 33 27 33 32 23 23 29 28 24 38 40 5 15 22 20 17 21 30 30 39 42 35 34 30 28 31 24 26 25 21 23 16 7 4 8
39 38 38 38 37 37 36 33 31 32 32 32 32 32 31 33 24 23 34 34 43 43 27 39 15 12 18 21 22 25 37 38 42 45 37 33 33 25 27 24 25 23 27 26 29 8 3
41 41 41 41 40 39 37 36 33 32 32 31 30 29 31 32 28 27 33 42 48 45 39 28 35 28 22 20 24 24 36 32 38 39 40 34 24 29 32 28 24 29 21 19 25 10 7
42 43 43 42 40 40 39 39 38 36 33 29 30 32 37 30 31 35 46 56 57 57 37 45 33 26 28 32 22 30 31 35 31 37 40 37 28 19 27 36 31 25 25 16 24 23 6
44 44 45 46 47 45 45 45 43 42 36 34 37 45 40 30 43 46 51 54 46 38 42 39 37 31 28 25 38 31 35 33 28 34 44 44 32 29 22 25 30 26 26 26 25 15 16
47 48 48 47 48 49 47 46 40 38 43 44 48 48 35 37 51 55 54 50 46 43 44 39 37 38 29 28 25 27 25 30 28 29 43 41 44 23 28 27 30 28 29 26 26 25 23
50 51 49 47 46 47 46 42 39 41 48 50 53 47 49 44 47 51 55 58 50 49 42 41 35 36 34 31 32 22 20 28 26 28 30 33 37 43 27 26 25 28 29 28 30 25 26
50 50 47 46 46 45 43 40 38 42 49 55 63 45 57 58 60 57 51 49 52 37 44 39 42 41 42 36 34 29 26 19 30 15 29 31 36 39 39 32 31 29 28 28 32 32 29
42 40 40 41 41 41 40 41 44 46 53 60 66 56 56 50 54 50 48 53 44 37 37 45 47 43 39 42 31 31 22 24 19 24 22 33 30 33 41 33 34 35 31 34 30 33 32
39 41 42 43 44 43 43 43 43 50 53 65 68 68 46 59 43 50 55 54 54 43 29 39 46 44 40 37 34 36 34 22 8 10 16 25 30 36 35 36 26 38 39 31 29 30 30
39 40 43 45 46 47 50 50 49 52 63 61 54 61 55 39 56 50 50 55 51 43 40 32 39 45 43 35 33 41 42 18 27 13 11 13 26 33 22 20 22 26 31 29 29 28 26
44 43 41 42 42 44 49 50 51 53 55 60 63 51 62 47 48 43 42 47 44 36 35 36 37 47 40 35 24 11 11 24 24 23 15 7 16 24 25 26 25 29 22 27 24 30 27
37 39 41 41 42 46 47 51 54 53 49 57 59 52 55 57 49 49 38 38 41 42 37 37 41 37 41 47 30 24 13 9 10 18 30 12 11 22 18 24 18 22 23 18 25 29 23
35 36 37 37 39 44 45 50 54 54 50 53 55 47 55 51 48 34 39 39 38 37 42 33 39 36 37 42 45 22 19 16 13 12 12 22 16 22 28 15 18 19 20 23 29 24 20
30 25 27 31 29 37 38 48 47 52 49 50 45 43 55 48 35 42 35 36 39 39 39 32 36 43 43 36 43 25 17 21 22 18 16 17 9 13 21 22 18 10 25 29 28 35 24
15 18 19 22 24 35 36 43 42 48 49 42 37 48 49 51 16 39 38 38 36 32 37 36 46 32 47 44 22 28 15 19 24 18 13 16 27 16 8 18 17 19 25 16 23 18 17

GFSGBSN_700_spd_039.txt.gz
Wind_Speed
32 31 30 32 26 31 31 29 30 31 31 31 29 28 27 25 25 24 25 26 25 25 28 29 29 28 26 25 18 23 20 15 12 11 8 9 10 2 7 18 15 11 13 12 14 10 17
33 31 31 33 33 30 29 33 31 31 31 32 30 30 30 29 27 26 24 25 23 23 26 28 29 29 30 28 20 22 17 14 12 13 10 13 10 5 22 17 12 13 11 16 14 10 13
28 29 35 36 35 34 34 32 34 34 34 34 33 31 30 31 30 29 26 24 24 22 24 27 27 30 31 21 20 25 16 12 14 14 11 12 9 18 15 12 10 11 14 17 13 18 13
37 36 34 33 32 39 36 36 35 36 36 35 34 34 33 32 31 29 27 25 24 24 23 27 26 29 33 20 23 23 18 16 14 16 15 12 17 23 18 11 12 11 11 18 11 14 16
35 34 36 36 36 38 37 37 36 36 36 36 37 37 36 34 33 31 28 25 23 25 25 26 26 27 29 21 21 19 21 18 15 18 17 18 20 19 17 12 13 13 20 15 23 17 16
33 33 32 33 33 34 35 35 34 34 35 36 38 37 38 37 37 33 29 25 24 27 27 28 28 27 18 15 12 15 19 21 18 19 19 19 19 17 17 13 20 14 14 11 9 9 13
32 32 32 31 31 31 32 32 33 32 32 34 35 36 36 37 37 35 31 27 26 28 32 30 25 23 17 16 9 12 15 19 20 17 24 19 19 24 18 16 16 17 21 22 15 15 16
33 33 33 32 32 31 31 31 32 32 31 31 31 31 33 35 34 31 33 28 24 28 36 32 30 31 22 16 21 14 14 22 26 26 21 19 28 21 14 14 22 26 26 21 20 8 8
35 35 34 34 33 32 33 32 32 32 31 30 31 30 29 30 26 26 30 27 23 28 38 40 33 36 28 27 26 16 16 18 28 28 26 26 25 15 17 19 22 23 24 17 16 3 10
36 36 37 36 35 35 35 34 33 32 30 30 29 29 29 27 22 20 22 25 23 26 25 42 35 40 34 32 37 23 21 20 27 31 27 31 25 20 26 29 21 25 16 16 17 12 12
37 37 37 37 37 38 38 35 33 32 31 30 29 27 29 24 22 13 18 20 24 15 6 8 8 11 16 36 33 27 26 29 33 31 29 36 28 30 27 22 17 22 15 17 9 11 15
38 38 37 37 37 38 38 36 34 33 33 32 28 26 29 25 15 9 11 18 20 12 12 7 11 17 18 21 29 26 17 35 34 31 32 32 24 28 29 22 21 19 22 17 14 13 12
39 38 38 37 36 36 36 34 34 33 32 31 29 26 25 28 14 19 20 23 19 17 13 18 11 17 19 21 23 26 18 41 37 34 39 35 36 30 27 24 23 22 20 5 3 6 7
43 40 38 38 36 34 34 34 32 32 31 31 27 23 24 23 21 18 30 29 16 28 36 9 16 13 18 21 22 22 32 29 43 36 12 31 29 35 28 30 23 25 23 11 4 2 4
43 42 41 38 36 34 33 33 33 32 29 24 21 23 23 19 25 24 33 35 31 32 24 36 13 18 15 20 17 21 28 42 32 46 35 21 36 20 31 28 27 28 27 25 23 5 1
41 41 41 38 35 34 34 33 32 33 29 23 25 25 28 14 28 31 28 41 47 45 40 17 26 20 19 12 16 21 21 16 32 35 44 38 21 34 30 29 28 30 24 19 22 4 4
41 42 41 38 36 34 34 33 31 31 29 25 27 29 32 19 30 38 45 52 47 46 34 45 31 27 24 23 19 14 16 26 17 30 36 40 36 28 24 36 34 32 28 26 18 21 4
43 42 40 38 37 36 36 36 33 31 29 30 34 38 31 28 37 47 54 52 49 23 24 42 49 41 32 25 28 22 21 28 8 20 36 40 28 37 44 24 18 35 35 30 18 10 11
45 41 40 40 40 39 38 37 38 37 35 36 40 43 41 33 46 53 51 51 48 43 35 22 37 38 38 32 30 21 26 28 31 22 12 38 42 35 28 37 30 37 40 32 32 31 27
43 42 42 43 43 42 43 42 40 40 38 42 45 42 43 48 48 49 51 52 51 42 44 40 34 25 33 30 32 33 37 32 30 30 21 20 45 41 36 23 29 26 32 36 32 29 28
43 43 44 44 43 42 41 40 38 37 39 46 54 50 55 57 65 57 49 46 50 50 37 25 41 39 43 32 32 31 36 36 30 31 20 19 26 51 46 38 28 26 38 33 34 33 33
44 44 45 43 41 39 33 38 40 40 44 54 60 66 56 64 49 53 49 57 56 49 40 38 34 35 41 40 39 34 30 34 31 37 31 23 25 29 30 43 43 38 29 30 40 31 28
42 38 36 33 33 32 33 34 37 37 50 51 62 66 53 56 47 47 61 61 57 46 30 23 33 25 36 50 28 32 32 33 32 32 22 21 16 29 34 25 35 35 47 33 32 36 27
35 35 36 37 38 38 39 39 39 42 53 60 60 65 66 45 54 64 62 55 56 44 41 27 18 32 37 30 29 27 28 26 30 31 38 41 24 15 29 32 9 40 40 41 29 36 36
36 38 37 36 36 38 39 40 41 43 50 60 51 67 61 60 44 54 60 53 44 47 40 41 31 28 21 19 35 31 28 27 31 35 30 29 22 9 14 29 19 32 21 22 34 35 30
34 35 36 38 38 39 41 40 42 46 50 58 57 53 35 55 50 62 52 55 51 42 44 40 39 29 23 24 30 31 23 24 15 16 21 32 34 11 14 15 17 26 27 24 16 32 29
32 33 36 38 39 39 41 40 41 42 50 55 57 65 56 46 41 51 48 51 46 46 39 36 36 34 33 33 25 35 30 26 12 12 13 17 25 29 25 12 17 14 20 22 22 17 18
26 28 32 36 40 40 41 43 46 46 45 53 56 62 61 47 24 47 50 38 37 35 43 42 35 38 34 30 30 20 26 25 21 25 21 19 11 16 10 15 11 10 20 28 30 23 23
25 24 26 28 29 33 37 41 44 47 49 50 55 53 46 45 38 31 43 42 35 34 34 36 37 38 27 31 34 32 24 23 39 31 23 23 18 13 14 12 9 17 16 21 24 23 12

GFSGBSN_700_spd_042.txt.gz
Wind_Speed
28 27 26 28 28 28 33 34 28 26 27 28 27 26 25 27 26 24 21 21 23 23 26 29 29 28 26 28 20 22 23 17 16 14 12 10 11 11 9 9 14 16 11 14 13 13 17
30 32 30 26 30 31 26 26 34 28 29 30 28 24 25 28 28 27 25 22 22 23 25 27 28 27 29 30 19 23 24 20 17 16 13 13 10 11 14 14 19 19 14 11 10 18 17
32 33 32 28 32 26 31 26 28 29 34 29 32 27 30 30 29 29 27 25 24 25 26 26 27 28 29 22 20 25 20 15 17 17 15 12 16 18 16 17 15 16 15 17 13 12 20
31 32 32 33 35 35 30 29 26 28 32 31 30 33 36 34 33 31 28 24 25 27 28 28 28 28 29 20 20 23 21 18 18 16 17 17 22 24 19 18 13 11 15 20 7 7 12
30 30 31 33 32 33 33 34 38 38 33 32 33 34 36 35 36 34 29 26 26 29 28 30 29 27 27 19 18 22 25 18 21 18 20 23 25 21 17 17 16 16 20 15 15 14 18
30 30 32 31 30 31 31 31 31 30 31 31 32 33 35 36 36 34 31 30 29 31 32 32 33 26 24 20 17 16 20 22 22 20 23 27 25 23 19 17 18 10 13 15 20 4 11
32 31 31 30 30 30 30 28 28 29 30 30 30 31 31 32 33 32 29 31 32 34 38 36 28 18 19 15 13 18 14 20 24 25 29 25 27 31 19 18 18 18 22 27 22 23 14
34 34 34 33 30 29 30 30 29 29 29 29 30 30 29 27 26 26 27 24 31 35 43 40 39 35 27 21 23 20 22 23 29 31 28 23 35 27 16 15 19 18 22 26 28 8 6
35 36 36 36 33 31 30 30 30 30 29 28 28 29 29 25 21 22 19 20 28 35 41 46 39 39 31 28 32 24 23 23 27 31 30 31 27 21 19 17 20 20 23 24 26 16 12
36 37 37 37 33 32 31 31 30 30 29 28 27 27 26 21 18 16 16 15 24 29 24 44 38 37 39 34 40 26 25 27 26 33 30 27 25 25 16 19 18 22 14 21 20 16 13
36 37 36 36 34 33 32 33 32 32 30 28 26 26 26 20 15 12 13 16 20 16 6 9 12 8 11 34 34 33 28 27 29 30 34 30 24 25 27 24 17 26 16 23 19 12 13
39 37 36 35 34 33 33 33 34 34 31 28 26 25 23 17 14 14 11 17 15 9 10 6 7 11 15 14 23 24 36 32 28 29 30 31 26 22 23 23 23 18 21 18 19 17 7
40 41 41 38 37 35 33 32 34 34 30 26 26 25 22 13 12 21 15 21 15 14 6 7 6 13 11 13 23 27 26 42 34 26 37 32 36 31 27 25 24 21 23 6 6 3 6
41 42 43 42 41 39 36 33 32 33 30 25 24 23 22 12 20 23 23 27 20 9 23 6 7 14 20 13 16 26 24 27 44 32 11 30 15 35 31 33 28 25 26 15 6 3 6
40 41 41 41 42 40 38 34 32 30 30 25 22 25 28 15 22 28 32 37 21 25 3 26 7 7 12 11 15 18 24 31 28 46 24 11 20 23 35 29 24 26 33 27 23 8 3
39 38 38 37 37 38 38 34 31 31 29 23 26 29 29 19 24 32 36 47 32 29 20 10 18 9 6 6 6 11 12 8 25 32 39 36 21 13 20 27 33 33 25 20 15 6 4
38 37 36 36 36 37 35 35 31 31 31 24 28 30 31 26 23 36 46 49 41 45 27 29 26 15 12 9 2 5 4 14 8 14 41 35 39 33 30 32 34 26 35 29 22 19 6
38 37 37 37 36 36 35 35 34 33 31 29 31 34 34 31 33 39 50 53 40 10 20 35 32 36 29 25 20 15 15 9 10 6 5 24 29 36 49 36 19 30 36 37 27 7 13
37 37 38 38 38 37 36 36 37 35 34 33 35 36 33 34 45 52 50 45 47 30 29 18 25 31 35 17 17 19 11 7 15 15 8 8 15 23 26 34 43 38 30 32 38 30 31
38 39 39 39 38 37 37 38 38 37 38 38 34 37 40 44 53 47 47 45 43 41 41 31 31 29 25 30 29 25 28 18 17 16 15 23 19 20 22 21 18 27 30 27 38 34 28
40 40 41 40 38 37 38 38 39 40 40 43 43 41 49 45 61 55 47 45 44 44 36 24 40 44 30 30 30 42 29 20 17 22 20 23 22 21 30 34 30 40 24 30 40 40 30
42 43 41 40 39 39 39 41 42 44 42 46 52 59 48 57 38 46 56 58 54 35 38 31 42 29 29 42 35 25 21 22 22 16 19 22 20 25 34 25 36 39 44 34 37 36 37
44 42 41 40 39 39 39 39 41 40 41 49 57 58 54 43 48 41 64 59 49 44 33 25 22 26 30 25 28 31 36 30 25 21 14 18 21 18 17 20 26 27 54 43 35 35 37
42 39 38 38 37 33 30 31 32 38 44 55 60 63 56 48 50 68 57 48 48 43 40 41 31 19 19 12 17 19 31 33 30 26 20 18 14 13 30 39 9 40 32 42 43 41 33
37 35 33 33 33 34 34 36 39 42 45 52 56 60 61 58 52 48 63 56 45 47 43 40 32 24 5 15 23 21 24 33 34 24 21 20 19 13 11 21 29 30 27 26 25 40 43
28 30 32 34 35 35 36 38 41 44 47 49 53 56 41 44 67 64 49 51 49 49 41 44 30 22 24 20 14 26 14 19 9 12 15 17 18 19 14 8 7 14 30 30 18 28 26
29 30 32 33 34 34 35 37 40 41 48 52 53 52 56 49 42 50 61 57 44 43 46 39 36 24 31 35 31 26 27 22 18 14 14 14 19 26 21 14 21 27 13 16 29 27 11
28 30 30 32 34 35 36 39 39 40 44 53 53 53 52 51 35 32 53 48 48 42 40 41 34 33 30 37 29 26 19 25 26 20 16 13 10 14 12 10 15 22 5 7 17 19 24
24 26 28 29 31 32 37 39 40 41 43 47 54 52 50 46 34 26 24 30 42 40 33 36 35 30 29 27 30 21 27 15 26 24 27 23 25 16 20 22 23 21 25 11 8 26 19

GFSGBSN_700_spd_045.txt.gz
Wind_Speed
25 26 27 27 30 26 22 29 29 26 38 40 37 29 29 29 28 26 24 27 21 24 22 24 24 24 24 25 22 23 25 22 18 19 15 13 13 12 19 14 12 12 12 9 10 13 15
30 32 32 33 32 32 31 26 29 29 27 38 32 30 29 27 29 26 26 28 22 27 25 26 25 24 25 26 21 22 27 23 22 20 18 15 13 18 19 19 16 16 15 12 10 12 17
29 30 30 32 33 33 34 34 32 29 27 27 34 31 29 32 32 31 27 26 27 29 30 30 28 27 26 20 21 23 22 20 17 18 19 17 16 20 23 23 19 18 19 18 14 17 20
28 28 28 30 31 32 32 32 33 32 29 29 24 28 33 32 28 28 29 25 30 31 32 31 29 30 30 22 19 21 23 22 19 17 18 21 22 23 24 22 17 13 16 20 14 13 13
29 29 30 30 31 31 32 29 30 31 34 39 35 37 32 34 33 28 30 29 32 33 33 33 30 29 31 27 23 25 26 22 20 20 18 23 27 24 25 24 19 18 19 17 12 9 15
30 30 30 30 30 30 31 30 30 29 29 31 34 32 33 32 36 32 29 30 36 35 36 35 34 28 27 17 14 18 22 24 25 24 22 29 29 29 27 23 20 17 20 16 14 6 12
31 31 32 31 31 29 30 29 30 29 28 28 29 30 30 30 31 27 28 27 31 36 39 37 33 27 25 22 18 28 25 19 29 29 29 31 33 40 29 22 20 15 13 15 15 9 20
31 32 33 33 33 32 31 29 28 30 29 28 28 28 28 24 23 24 24 26 27 34 39 42 41 41 33 20 19 19 22 21 29 34 29 31 41 36 25 20 21 21 20 19 15 5 20
32 32 34 34 34 33 33 30 28 29 29 28 27 26 24 21 20 19 19 24 27 29 33 44 41 43 35 37 38 26 23 24 25 32 34 37 28 27 31 24 23 23 23 18 16 17 18
34 34 35 35 35 34 34 32 30 28 29 28 27 25 23 18 17 17 19 20 21 24 20 35 33 33 37 39 44 30 31 27 27 30 34 32 34 12 9 28 22 24 21 18 19 22 20
36 35 36 35 35 35 34 33 31 30 29 27 26 25 22 18 15 15 18 15 14 10 6 9 9 14 14 24 29 38 31 33 31 29 34 30 32 33 31 24 20 23 16 20 22 24 21
36 36 36 37 35 35 36 34 31 30 30 28 26 24 22 17 14 18 15 14 8 6 9 4 3 8 15 10 17 24 31 38 32 29 27 30 22 18 19 22 23 19 19 20 23 20 9
37 37 36 37 37 37 35 35 33 31 30 29 28 23 20 16 13 17 17 18 9 11 2 2 2 9 11 7 16 19 26 43 35 26 32 28 32 30 23 19 22 21 19 4 6 5 7
39 38 37 37 37 37 37 35 35 34 31 28 25 22 20 16 18 19 23 24 16 8 21 4 2 2 12 5 13 19 19 41 40 25 12 27 16 33 29 34 28 25 27 13 6 3 6
39 38 37 37 38 36 36 36 34 36 32 29 23 24 25 18 19 22 29 35 14 19 7 14 3 3 6 6 7 20 16 21 41 40 20 9 15 16 19 25 33 31 33 25 26 17 5
38 37 37 38 38 36 35 35 32 33 30 27 24 28 30 22 24 25 35 39 26 13 18 13 6 3 1 4 6 8 8 5 20 26 33 33 15 11 7 16 23 35 19 11 12 4 5
37 38 39 38 37 35 34 31 30 29 28 25 28 30 36 25 28 29 43 43 34 31 21 17 17 13 7 3 2 4 5 3 8 3 17 24 35 29 26 22 15 21 31 30 27 23 8
38 40 40 38 36 34 32 31 31 29 26 27 33 30 35 30 37 40 44 46 34 16 31 33 28 26 30 25 21 12 6 4 7 7 7 8 15 21 37 38 31 23 18 28 27 14 13
40 40 39 37 36 33 33 32 31 29 27 30 36 35 33 29 44 51 40 36 37 28 18 17 27 31 37 32 11 18 20 8 9 9 8 9 4 11 22 30 24 25 33 33 27 24 36
42 41 38 36 34 34 34 33 32 31 29 32 33 32 35 37 46 49 44 34 31 38 41 32 25 24 19 19 19 15 15 9 8 13 13 12 12 9 5 10 19 24 17 21 32 36 25
42 39 37 38 35 36 34 34 33 31 30 32 40 42 37 43 49 47 40 39 41 39 31 34 41 34 25 19 14 16 20 25 15 10 20 16 17 19 21 17 19 25 32 33 31 37 38
41 39 38 37 38 36 36 36 34 32 31 37 46 53 40 44 38 48 49 52 42 32 30 32 31 27 28 30 28 31 9 9 13 10 10 9 17 28 33 25 20 28 31 41 42 36 37
41 39 38 39 38 37 37 36 35 36 36 44 49 54 48 44 42 48 54 48 37 35 33 30 23 17 19 20 22 14 14 18 17 15 11 10 10 11 18 18 19 25 23 23 41 44 38
40 39 39 39 39 38 36 36 36 36 39 46 50 52 57 52 56 47 38 40 44 42 35 26 20 15 5 8 10 15 15 14 18 22 17 16 13 11 15 17 3 36 33 25 30 36 45
40 39 40 39 38 36 36 36 34 32 37 45 50 53 55 60 48 45 47 31 30 33 35 31 26 16 14 10 8 12 16 18 21 19 23 17 15 10 7 5 20 42 34 30 25 34 21
39 38 37 35 33 31 32 33 35 38 38 41 47 51 53 54 56 48 26 33 42 42 36 37 28 22 17 25 23 9 7 5 4 7 21 21 19 18 11 4 7 48 35 23 36 48 18
31 29 28 28 31 33 34 35 36 39 42 42 46 48 52 56 45 39 52 46 34 29 29 26 21 23 22 27 27 21 19 14 10 11 12 12 13 21 20 10 19 25 23 23 15 19 22
22 24 27 30 31 32 34 33 32 37 43 46 47 43 50 55 49 34 22 23 33 43 44 36 24 24 22 28 27 23 17 13 22 18 18 17 13 15 14 9 14 10 16 13 22 11 11
23 23 24 26 28 32 34 34 36 37 37 47 47 50 43 41 42 46 44 18 27 26 24 33 33 27 24 28 33 23 23 15 19 22 21 24 23 11 17 16 19 22 28 30 27 31 5

GFSGBSN_700_spd_048.txt.gz
Wind_Speed
28 29 30 30 31 31 32 32 32 30 27 30 32 33 36 39 39 35 33 34 29 31 26 26 27 26 22 22 16 15 16 13 11 14 15 13 16 16 17 19 20 21 17 16 12 12 13
28 29 29 30 31 32 33 33 35 34 33 30 31 33 30 32 32 36 32 29 36 31 29 31 30 28 24 23 16 14 22 23 22 22 22 20 18 18 16 20 21 20 20 21 17 12 15
27 27 27 28 29 30 32 31 32 33 33 34 33 29 29 27 33 28 32 35 38 31 32 31 31 35 28 19 19 15 20 18 22 24 24 20 21 21 23 22 24 21 23 22 22 19 19
26 26 27 28 29 29 30 30 30 31 32 33 35 36 33 29 23 29 32 31 30 38 34 30 31 34 35 26 19 16 22 22 21 17 21 21 24 25 24 24 20 17 21 21 16 21 18
27 29 29 29 29 30 30 30 30 30 29 31 31 31 35 32 30 32 31 32 34 37 34 33 34 31 35 31 24 26 24 22 21 22 21 24 26 27 27 23 23 21 22 17 10 11 11
30 30 31 31 31 31 31 30 31 30 30 31 30 29 30 31 28 31 29 32 30 32 42 35 33 29 26 21 9 17 24 26 25 26 26 26 28 30 31 28 26 21 21 22 15 9 10
31 31 31 31 30 30 30 31 31 29 30 30 31 28 27 27 28 27 31 29 31 33 33 35 32 32 25 23 17 22 17 17 24 31 32 30 33 40 36 31 24 18 9 12 16 13 15
32 32 32 31 32 30 31 32 31 30 29 29 29 28 25 24 24 25 25 27 28 30 37 28 32 38 32 32 25 16 23 27 22 33 34 30 41 36 30 26 25 22 21 22 18 16 11
34 33 33 32 32 32 33 34 34 31 31 29 28 27 23 22 20 21 23 23 25 28 33 36 32 36 36 36 34 24 22 21 25 29 36 37 26 36 31 31 29 26 25 22 19 17 20
36 35 35 34 34 33 33 35 35 34 31 30 28 27 23 19 18 19 20 20 20 22 20 30 26 23 25 25 38 28 32 24 24 24 30 33 39 21 24 36 32 29 25 19 19 18 12
38 36 36 36 35 34 33 34 35 35 32 29 28 27 23 18 16 16 18 16 12 13 6 9 6 11 11 10 14 20 33 40 35 27 26 24 30 32 20 23 31 33 20 18 16 18 21
38 37 37 36 35 34 34 35 34 34 32 28 28 27 25 18 15 18 14 13 4 5 7 2 5 9 9 9 11 16 25 41 40 31 27 21 23 24 38 32 26 19 17 14 17 19 7
38 37 37 37 36 35 35 34 34 33 30 28 28 26 25 19 15 14 14 13 7 8 4 1 1 8 9 7 10 15 14 38 35 30 31 23 26 18 17 12 16 22 18 2 2 4 6
39 38 38 38 36 35 35 34 33 33 32 29 28 28 24 20 16 16 17 16 14 4 13 11 8 3 3 4 6 8 8 28 35 28 17 26 14 31 29 27 14 25 24 8 6 4 3
39 39 39 39 37 35 34 33 32 33 32 29 29 28 25 20 19 18 21 24 9 13 8 9 11 4 0 5 1 9 3 12 32 31 16 15 16 15 15 22 30 25 17 23 21 11 3
39 40 39 39 37 35 34 32 32 32 29 24 27 28 27 19 22 21 26 31 25 7 10 16 6 4 5 2 3 4 5 1 13 31 28 15 5 4 9 13 15 26 17 13 13 4 5
40 40 39 38 37 35 34 31 32 30 24 21 24 23 30 21 25 29 38 30 31 27 10 18 11 10 6 8 7 8 6 11 8 3 19 30 30 24 19 8 8 9 25 24 14 11 4
40 40 39 38 36 35 33 31 31 28 24 21 19 27 32 22 29 36 41 33 32 25 31 24 25 19 20 18 18 11 2 11 3 6 6 10 7 14 29 27 18 9 15 13 22 10 12
40 40 38 38 36 35 33 31 30 28 25 18 25 32 32 27 34 39 38 38 35 29 26 22 34 33 38 29 16 6 5 3 2 4 2 1 4 3 6 12 13 13 11 11 18 28 28
40 40 38 38 36 34 33 32 30 28 23 22 28 31 36 36 40 36 39 38 31 30 30 22 17 18 14 10 6 10 14 7 7 5 4 5 3 3 1 3 9 13 12 12 16 12 19
39 39 38 38 36 35 34 33 31 30 22 27 37 41 36 24 47 43 36 34 37 28 22 32 34 27 19 15 11 9 9 14 15 8 12 8 12 12 15 15 15 18 19 21 23 29 27
38 39 39 38 37 36 36 33 33 32 25 35 43 47 42 41 32 36 41 39 37 30 30 24 27 28 22 25 28 23 16 15 10 14 6 7 7 9 12 14 22 27 26 25 27 24 32
39 39 39 38 38 39 36 34 35 34 29 40 46 47 44 41 42 30 45 44 37 31 32 30 25 15 14 11 15 21 20 16 24 18 11 8 8 7 5 6 8 17 29 24 26 28 28
38 38 39 39 39 37 36 38 37 36 36 43 48 47 45 46 43 46 31 38 43 35 28 23 14 16 10 5 8 11 18 20 15 19 19 16 11 12 9 7 3 19 13 15 23 31 30
37 37 38 38 38 38 39 39 38 38 40 44 49 50 49 53 49 37 43 26 29 29 32 29 25 11 9 12 11 3 6 14 23 19 18 23 17 12 8 8 20 35 24 17 27 36 33
34 35 36 40 41 40 40 39 39 39 40 43 49 49 49 49 54 47 29 29 35 28 27 23 16 21 18 17 16 6 6 5 5 5 24 23 21 20 7 2 5 19 14 16 12 30 19
29 28 36 39 40 40 38 37 36 34 35 39 46 46 47 50 49 38 40 43 31 33 32 26 20 25 22 23 19 17 14 9 5 7 14 24 23 26 17 10 17 21 14 16 5 15 23
24 27 24 24 32 33 31 31 32 35 36 39 42 43 44 48 45 23 34 33 34 30 30 21 18 23 23 27 24 15 11 12 19 14 16 18 15 13 16 10 13 1 11 10 21 26 33
28 28 21 20 24 27 30 33 34 35 37 41 43 39 37 40 33 34 40 27 24 27 20 33 36 28 21 15 19 13 16 14 17 15 21 19 23 16 17 15 12 17 23 21 23 28 30

GFSGBSN_700_spd_051.txt.gz
Wind_Speed
25 26 27 28 28 28 29 29 30 32 32 33 31 31 30 29 30 31 30 34 35 33 33 32 33 32 25 24 16 14 12 12 15 17 16 15 16 15 18 19 19 23 17 19 17 15 15
27 26 27 28 27 27 27 27 28 29 29 30 30 30 30 31 31 31 32 29 32 35 30 34 35 32 30 27 16 17 22 21 19 19 18 17 14 15 18 22 20 22 24 22 22 19 19
26 26 27 26 25 25 26 26 27 28 30 31 31 31 30 29 30 31 32 27 25 32 35 35 36 38 36 23 21 17 23 25 28 26 24 21 20 20 22 21 20 22 25 25 23 21 22
27 27 27 27 26 26 26 26 27 29 29 30 31 32 31 30 30 30 32 25 27 32 31 29 36 37 40 20 25 23 25 24 24 33 31 28 25 24 24 22 20 20 22 26 22 21 23
29 28 28 27 27 26 26 27 28 30 29 30 30 30 30 31 30 30 29 32 37 32 29 30 33 34 41 27 23 26 26 25 25 26 25 28 28 27 27 25 22 24 21 20 19 11 12
30 28 28 27 27 27 26 27 28 28 28 29 30 29 29 29 29 29 30 27 30 33 30 28 27 29 26 20 16 10 21 30 28 25 26 27 30 30 33 32 26 24 23 22 23 14 13
29 28 29 28 28 28 27 27 27 27 28 29 30 28 26 27 28 27 28 26 26 27 32 27 23 24 23 23 21 18 17 18 24 29 32 33 32 39 39 35 29 21 17 15 16 14 13
30 29 29 29 28 28 28 28 27 28 30 30 32 30 27 24 24 26 28 27 25 26 31 24 25 27 23 27 29 17 17 23 20 26 33 32 38 34 32 30 29 26 23 20 18 15 13
31 30 30 30 30 30 30 29 29 30 31 31 32 32 29 24 21 24 25 23 22 24 29 29 23 23 23 28 31 27 21 19 26 27 31 39 27 36 31 30 30 29 28 21 19 15 14
33 32 31 32 32 31 32 31 30 30 30 31 33 32 30 24 20 21 22 22 19 20 19 13 8 3 12 22 30 30 32 28 23 26 27 35 39 16 26 35 28 32 27 22 20 15 8
34 33 33 33 34 33 32 30 30 29 29 30 31 31 29 25 17 19 19 18 14 11 6 9 6 5 6 5 7 11 30 39 33 24 22 23 30 38 24 18 23 31 24 17 18 19 17
35 34 34 33 34 33 32 30 30 29 29 29 29 28 27 23 17 17 15 15 10 2 7 2 4 4 13 5 8 10 12 37 38 30 26 19 19 19 27 32 26 14 17 17 11 13 9
36 36 35 34 34 34 32 31 30 29 29 29 29 28 25 21 16 15 12 13 4 6 5 4 2 12 11 8 6 10 9 30 22 27 28 27 26 16 15 28 21 22 14 3 5 6 8
38 37 36 35 35 33 32 31 31 29 29 28 29 27 25 20 18 15 11 9 9 4 9 16 17 13 5 5 3 5 5 13 27 22 20 21 12 26 21 20 23 28 25 10 7 5 3
40 39 37 36 35 34 33 31 30 29 28 27 29 26 24 20 20 17 14 14 9 7 12 13 8 7 6 0 3 4 2 5 26 21 11 18 17 14 21 27 22 12 21 26 5 5 3
41 40 38 37 35 34 33 31 30 28 26 26 29 27 23 21 22 16 21 24 16 11 9 12 9 7 7 12 6 5 3 6 7 26 19 10 4 10 13 19 26 25 14 11 10 5 8
42 42 40 38 36 34 33 31 29 27 23 24 28 27 23 18 22 19 29 24 27 24 12 10 8 10 10 12 12 12 5 7 8 4 27 15 12 11 9 5 15 18 20 15 8 11 4
42 42 40 38 36 34 32 30 28 26 23 24 25 25 18 14 22 27 26 26 30 21 23 29 26 24 16 11 9 11 4 5 3 8 8 20 13 19 22 9 10 10 10 12 17 9 5
40 40 38 37 35 34 32 30 28 26 23 21 22 26 22 15 26 27 30 24 31 30 26 16 19 20 18 22 17 7 2 3 3 1 5 7 5 7 6 10 19 14 9 8 8 12 13
37 39 38 36 34 34 32 29 28 26 23 21 21 22 21 24 29 27 26 31 34 34 30 27 26 15 16 10 6 6 7 10 8 7 1 1 3 3 5 4 6 6 8 5 4 3 6
33 34 34 34 34 33 31 28 29 28 24 25 28 30 25 13 29 33 31 22 28 31 23 23 25 28 12 9 11 13 11 10 15 11 10 7 5 5 8 9 10 10 8 10 13 12 10
33 31 31 31 30 32 31 28 30 30 26 31 34 34 29 30 25 18 30 32 38 31 27 26 25 20 21 30 28 26 21 17 12 8 10 7 5 7 8 9 12 16 15 15 16 20 25
30 31 33 33 33 31 29 31 32 32 31 36 36 36 32 32 31 34 32 30 34 27 30 29 28 22 17 12 13 17 17 20 18 15 10 9 9 6 5 8 8 14 19 20 21 21 24
34 35 36 34 33 33 34 34 35 33 36 38 33 37 38 41 41 39 35 26 29 35 34 28 23 22 20 19 10 8 13 20 22 18 19 12 9 8 5 4 5 9 12 16 15 19 23
34 33 31 31 32 32 33 33 35 36 38 38 35 37 40 43 43 44 41 36 32 29 28 31 27 19 10 10 8 5 8 11 17 21 19 23 17 6 4 8 15 22 13 14 14 19 17
31 30 30 30 31 32 33 34 36 36 38 40 36 36 42 43 49 42 39 37 31 34 33 31 23 18 15 14 12 5 5 4 3 5 24 20 21 17 8 4 5 6 9 6 7 14 7
31 31 30 28 28 29 31 33 37 38 39 38 35 39 44 46 48 39 35 37 35 31 33 31 25 27 25 18 15 12 9 7 4 5 7 21 20 23 12 9 12 12 3 4 1 5 19
30 27 28 27 25 26 33 37 39 40 38 37 38 42 44 47 46 38 36 38 25 29 33 25 24 27 22 25 20 14 11 12 14 9 7 14 15 15 17 10 12 4 7 4 9 15 17
22 22 21 23 26 29 29 30 35 35 33 37 43 41 39 41 37 38 36 23 24 24 25 31 26 17 21 18 18 13 14 11 13 9 15 14 19 16 18 13 9 6 8 16 22 25 26

GFSGBSN_700_spd_054.txt.gz
Wind_Speed
25 24 25 25 25 25 25 25 26 25 24 25 24 25 26 26 28 29 29 27 26 29 27 31 31 33 30 26 20 22 13 13 13 21 22 22 21 19 20 19 18 22 15 16 18 17 17
27 27 25 25 25 25 24 25 25 24 23 24 24 25 26 27 27 28 29 29 30 28 25 27 32 28 32 35 27 26 18 17 15 18 22 23 21 19 15 18 21 14 19 17 17 18 17
29 27 25 25 24 23 23 23 25 24 23 24 25 26 26 28 29 29 28 29 30 31 27 23 25 32 35 30 29 28 20 19 25 22 23 22 21 21 16 15 24 20 16 17 21 19 18
28 28 27 26 26 25 25 25 24 24 24 25 25 26 26 27 28 29 30 28 30 30 29 28 27 30 30 23 37 30 27 25 21 30 26 24 24 22 21 18 17 17 18 21 16 17 18
30 28 28 28 26 25 25 24 23 23 24 24 23 24 25 26 27 28 28 28 27 29 26 25 26 27 28 21 27 32 35 32 23 25 32 34 31 27 21 19 18 17 20 18 16 13 13
30 29 29 27 26 27 25 25 25 25 23 22 21 24 26 26 28 30 27 28 27 27 24 22 27 24 19 19 13 25 33 29 30 26 28 29 35 31 28 27 29 21 18 20 17 11 12
32 31 29 28 27 25 26 25 25 24 23 23 23 25 27 27 29 32 29 25 26 30 21 21 22 25 19 13 14 16 19 28 24 24 29 30 27 33 33 30 25 18 16 16 12 12 14
31 31 30 28 27 26 26 27 25 25 24 24 24 26 27 28 29 31 33 28 26 27 32 16 21 24 23 21 20 19 18 24 18 21 27 23 32 29 23 25 27 26 19 16 12 11 14
33 32 31 30 27 27 26 27 26 26 25 25 25 26 26 26 28 30 28 28 26 26 29 12 7 12 21 25 28 24 23 22 25 20 25 31 19 27 25 23 25 28 25 18 15 8 11
35 34 33 32 30 28 28 26 27 26 26 25 25 24 25 24 25 24 24 22 21 21 17 10 11 8 9 6 23 25 27 19 20 21 22 23 28 18 21 29 24 26 22 22 17 13 17
36 35 34 34 32 30 28 27 27 26 26 25 25 23 23 23 22 21 20 16 15 17 6 9 8 5 10 5 4 14 26 35 23 15 20 26 21 28 25 22 24 23 15 15 17 18 17
38 36 36 34 33 31 29 27 26 26 26 25 24 24 22 21 20 18 16 12 9 3 5 2 3 9 16 12 5 9 8 31 34 19 21 19 16 18 24 21 17 8 9 8 10 12 15
40 37 36 34 34 32 30 28 26 27 26 25 25 25 22 20 18 16 13 8 2 7 5 5 5 12 11 10 5 9 8 16 19 26 24 17 18 13 14 22 20 21 15 10 11 11 10
42 38 37 36 35 32 31 30 27 27 26 26 27 25 21 18 19 15 11 4 7 3 6 9 13 9 6 6 2 4 3 10 22 18 16 23 13 22 18 20 13 27 26 9 6 9 9
42 39 38 38 36 34 33 30 29 26 25 26 28 25 19 18 19 17 14 10 5 8 9 15 12 6 3 7 4 2 5 5 12 23 14 18 18 16 19 24 21 19 30 21 14 3 4
38 38 38 38 37 35 33 31 30 26 24 26 27 26 18 20 18 14 17 15 11 13 8 7 7 5 5 9 6 4 1 7 5 19 16 12 8 14 17 19 22 16 15 13 17 10 13
33 34 36 35 33 36 33 31 29 26 23 25 26 25 18 16 15 20 24 15 17 15 13 11 6 6 8 10 11 8 3 1 6 7 24 9 7 6 16 20 24 26 21 13 13 18 8
28 29 32 29 32 35 31 31 28 25 22 24 21 22 13 13 21 26 27 18 19 18 17 24 22 18 13 11 12 8 5 4 5 6 8 19 10 12 15 6 14 19 23 26 19 13 12
31 30 29 26 27 29 31 28 28 22 24 18 22 24 16 17 20 26 21 23 18 18 16 12 14 19 15 12 9 7 5 8 12 7 4 8 12 15 14 11 12 9 8 12 12 10 15
31 29 29 30 30 30 28 24 24 24 22 21 19 16 19 26 25 21 20 23 20 22 19 15 15 20 14 15 14 9 6 12 11 10 4 5 7 13 14 11 11 12 8 7 9 11 14
30 32 32 27 27 27 28 27 27 25 23 25 26 24 16 11 28 31 21 17 20 19 19 17 17 22 17 15 17 14 9 8 10 14 9 4 4 5 4 3 4 8 11 9 10 10 10
30 30 30 28 27 25 26 25 27 24 25 32 31 30 25 19 13 13 28 30 22 16 18 16 19 12 17 24 19 9 9 10 11 7 12 13 7 6 7 6 8 10 11 12 14 14 16
30 30 29 29 31 30 28 29 27 30 31 34 33 31 22 22 22 21 21 19 24 21 24 23 16 18 21 18 17 20 19 19 20 13 13 12 9 9 12 10 8 12 19 18 16 15 14
32 31 30 29 31 32 33 33 30 32 35 37 33 30 31 31 20 21 22 21 20 19 21 18 24 26 22 21 19 16 15 18 19 25 19 11 11 11 7 7 7 8 11 14 14 13 11
30 32 31 31 33 33 30 30 30 33 36 41 35 33 32 32 28 28 25 21 19 21 22 27 25 20 24 16 14 11 11 10 15 19 26 21 11 9 8 18 12 13 11 12 9 8 7
30 30 31 31 31 30 29 30 35 37 38 39 37 32 35 33 18 21 24 22 22 23 25 27 27 24 20 11 12 8 8 6 7 7 20 19 19 15 9 10 6 6 14 11 13 4 6
37 33 30 28 28 28 27 29 30 31 32 36 35 37 36 41 36 24 22 23 22 24 26 23 21 29 18 17 13 10 9 7 5 9 16 20 19 24 21 11 7 14 9 9 7 5 6
36 37 32 29 29 29 29 30 31 33 34 38 35 36 39 40 32 24 27 30 25 23 21 23 21 27 20 21 14 8 8 10 9 6 11 20 17 18 19 11 8 9 15 9 9 8 13
24 28 31 30 29 28 29 30 31 31 32 35 38 37 36 38 28 26 32 33 30 19 23 21 23 12 20 20 17 12 11 10 12 12 13 12 16 15 14 12 7 9 8 14 13 19 24

GFSGBSN_700_spd_057.txt.gz
Wind_Speed
24 25 25 25 25 26 26 25 26 25 23 22 22 23 23 23 23 24 24 25 27 27 28 30 29 28 25 32 30 27 20 12 13 15 23 24 24 23 25 22 23 23 24 18 19 19 17
25 26 28 27 26 26 25 24 24 25 24 23 23 24 22 22 23 24 24 26 29 28 26 28 27 25 24 30 29 29 27 27 14 10 18 17 19 19 19 23 21 23 22 23 20 19 19
25 26 27 26 27 25 25 26 24 23 25 24 24 25 23 21 22 22 24 25 28 27 25 26 26 26 27 22 24 32 22 27 27 19 19 17 18 16 17 20 20 21 27 19 23 22 21
26 25 26 25 25 26 26 26 26 24 22 23 25 24 21 19 21 22 23 26 26 25 24 25 24 26 30 22 22 20 26 33 33 23 23 23 17 21 20 16 18 17 23 25 21 20 20
29 28 26 26 25 25 27 26 26 25 24 24 23 24 21 20 22 24 24 27 25 23 23 23 23 23 25 13 14 16 22 32 38 23 22 26 25 25 17 20 19 20 23 23 19 19 18
29 30 29 28 27 26 26 26 26 26 25 23 24 22 21 22 25 25 26 27 26 24 21 20 18 13 12 12 15 20 16 20 41 23 26 28 29 25 26 26 28 22 21 21 20 17 18
31 31 30 30 29 28 26 25 26 26 25 24 24 22 22 22 25 27 26 26 25 25 23 18 19 23 21 16 10 11 10 17 19 22 24 23 26 36 31 30 28 23 19 18 15 13 16
31 30 30 30 30 28 27 26 26 26 25 25 25 25 23 22 23 25 27 24 23 25 27 19 14 19 19 24 23 17 15 16 19 25 22 23 34 28 26 29 28 29 29 21 15 11 13
32 33 32 31 30 30 29 29 27 26 25 24 25 26 23 22 21 23 23 21 22 25 30 3 5 9 10 11 21 19 15 14 16 26 24 29 24 25 26 26 28 29 30 25 20 11 13
34 34 33 33 33 32 30 29 28 27 27 25 24 25 23 21 20 18 19 19 19 21 11 3 4 5 9 7 10 23 18 15 17 19 18 21 26 20 20 29 26 29 24 23 21 19 21
37 36 35 35 34 33 32 31 28 28 27 26 25 25 22 20 17 15 15 14 12 16 6 2 4 4 7 6 8 7 23 26 19 18 16 24 14 27 30 25 27 30 19 20 21 23 21
39 39 39 37 36 35 34 32 30 28 28 27 26 25 21 21 17 15 11 9 10 4 5 1 1 6 8 13 10 9 8 27 23 21 20 19 15 21 23 24 22 19 19 16 17 20 20
39 40 40 38 37 36 35 34 32 30 27 27 27 25 22 20 17 13 8 4 8 8 2 2 3 7 9 7 8 9 7 12 22 20 30 22 26 17 17 21 21 21 20 12 14 16 15
39 41 41 41 38 37 36 35 34 31 28 27 27 25 22 20 18 13 7 3 12 5 7 7 6 8 4 4 3 5 6 8 20 17 18 27 22 24 16 23 24 26 27 15 14 11 15
38 38 39 38 36 37 38 35 33 32 29 28 28 25 23 20 18 14 11 16 9 10 9 8 11 10 6 3 4 5 8 4 8 18 20 17 29 11 22 20 22 22 36 31 24 12 9
34 33 33 32 33 34 35 35 32 31 30 27 27 28 22 21 17 13 18 21 16 13 9 6 7 6 6 4 2 3 4 4 1 11 21 16 14 20 19 19 27 27 17 28 24 12 12
32 31 29 26 26 30 32 31 30 27 25 24 24 23 16 16 15 22 28 20 14 15 13 9 9 11 9 7 4 4 2 3 5 3 14 18 16 16 16 26 26 25 29 21 25 25 9
34 32 31 27 26 25 22 25 26 24 20 21 18 18 16 14 23 28 30 21 18 13 18 18 13 15 13 11 10 7 7 6 10 4 5 19 8 20 21 23 22 23 28 26 20 12 23
36 33 32 29 27 21 23 25 25 22 20 19 19 22 17 20 24 24 19 21 21 19 18 15 17 16 17 15 10 8 10 6 10 5 4 7 14 15 19 14 15 21 28 28 29 21 17
33 32 32 30 26 25 24 25 22 20 21 23 23 16 19 25 28 21 21 18 20 18 20 19 17 17 15 16 17 14 10 7 9 12 7 3 14 20 17 16 18 20 14 18 16 20 21
33 32 30 28 28 28 27 25 25 24 23 27 30 28 14 16 27 24 21 15 21 22 17 19 20 21 18 19 19 21 19 16 10 10 14 5 8 12 17 9 8 12 19 14 16 18 15
30 29 26 26 27 25 24 22 24 28 28 34 35 30 20 22 15 21 28 26 17 16 21 19 21 17 20 23 20 12 17 15 13 10 7 9 5 5 8 8 7 9 13 17 17 17 18
30 31 30 31 30 30 28 25 27 28 34 38 37 32 25 16 20 19 19 23 24 20 19 18 15 18 18 16 17 19 21 14 16 14 11 11 12 7 6 8 8 12 19 18 17 17 15
28 28 28 30 30 29 31 32 31 30 33 39 37 31 30 23 19 20 21 18 18 19 23 16 22 21 16 21 20 20 21 22 21 25 20 15 13 16 8 6 4 7 3 9 17 16 15
27 27 27 28 30 31 31 30 32 33 34 40 37 33 32 29 21 21 17 21 20 16 18 18 22 21 20 21 17 12 16 17 24 24 24 22 14 11 11 12 11 8 5 11 10 8 9
25 25 24 24 26 31 32 33 32 34 37 38 40 33 34 29 27 21 23 21 19 17 18 19 21 24 20 11 13 13 12 16 12 11 24 23 19 16 9 14 11 11 8 11 8 10 10
29 33 33 35 29 28 32 35 35 33 38 39 39 35 36 38 28 15 19 16 18 17 15 15 19 18 17 20 16 13 14 8 7 12 23 27 23 24 20 14 11 13 10 4 14 8 7
32 28 28 33 36 29 30 32 33 33 38 41 38 37 37 36 29 29 18 16 16 17 19 14 14 16 16 23 11 12 9 8 11 7 19 25 20 19 24 16 16 8 13 10 9 4 1
32 29 29 28 33 32 31 32 32 33 33 36 36 35 33 37 27 26 31 27 28 22 19 17 20 7 13 13 13 9 7 7 9 11 12 17 22 16 18 19 5 5 11 11 14 11 14

GFSGBSN_700_spd_060.txt.gz
Wind_Speed
22 22 24 26 26 25 25 24 24 24 23 25 24 24 24 24 22 23 22 22 21 20 22 23 25 24 22 26 21 22 23 17 15 17 19 23 21 21 27 24 24 30 27 27 26 23 22
23 24 27 27 26 26 26 25 23 24 23 24 24 25 24 24 23 22 21 20 19 19 20 22 23 23 25 26 17 13 25 21 20 14 13 22 15 17 24 24 27 24 26 27 26 27 21
28 29 28 26 25 24 25 25 26 24 24 24 24 24 24 24 23 22 20 20 19 18 18 20 22 24 26 18 20 17 18 22 24 24 18 25 18 18 19 24 22 26 28 26 27 24 25
27 27 25 24 24 24 24 24 25 26 25 25 24 22 23 23 21 21 20 21 20 19 18 20 21 23 27 21 15 13 18 17 24 23 29 24 27 21 20 20 19 25 23 29 28 26 24
26 25 26 25 25 25 25 25 24 24 25 26 25 23 23 22 22 20 21 22 22 21 19 18 21 20 20 7 8 12 11 14 22 28 30 30 24 21 16 19 19 20 28 26 25 24 25
25 25 26 26 26 26 25 25 24 25 24 25 24 23 23 23 24 21 21 22 22 21 15 19 12 18 12 4 14 13 12 12 19 28 30 35 19 26 21 22 27 22 24 24 24 22 22
26 25 25 25 26 26 26 26 26 25 25 25 25 24 22 22 23 23 21 19 17 22 22 22 18 26 19 19 17 11 13 10 15 21 21 36 20 29 27 25 25 28 26 26 22 17 19
26 27 27 27 26 26 27 27 27 27 26 27 25 24 23 22 21 20 20 18 19 20 22 19 13 17 16 14 26 14 12 11 12 13 28 24 33 24 22 21 24 26 27 28 25 16 12
27 27 27 28 28 29 29 29 29 29 28 27 27 25 23 21 21 20 17 14 16 19 24 8 10 7 8 12 14 19 17 13 11 11 13 26 14 21 21 24 27 29 32 28 27 20 17
28 28 28 29 30 30 31 31 31 30 30 29 28 26 23 19 22 16 14 12 11 18 13 3 3 6 9 10 9 8 16 13 9 13 14 23 31 19 18 29 26 32 26 26 26 23 25
25 27 29 30 32 31 31 33 33 32 31 30 29 26 23 22 19 16 13 8 6 10 5 6 7 7 6 6 10 6 15 19 18 14 11 8 13 22 29 22 27 30 23 22 21 24 25
26 27 30 32 33 33 33 33 34 34 32 32 31 27 22 22 20 17 14 3 4 3 7 5 4 1 4 10 12 7 5 17 19 16 18 20 15 16 19 26 28 21 23 21 19 22 20
28 29 29 31 34 35 34 34 35 34 34 33 32 29 25 23 17 16 8 6 3 8 1 6 4 5 6 9 9 10 6 8 14 12 20 22 23 19 18 19 29 23 17 14 10 14 11
30 31 30 30 32 34 34 35 34 34 34 34 32 28 25 24 19 16 12 10 12 8 9 3 7 7 8 7 7 6 7 9 13 16 13 8 16 23 20 21 22 30 22 13 8 7 15
33 33 32 31 29 30 30 33 32 33 33 33 32 29 28 23 21 17 17 17 10 13 11 9 9 11 11 8 6 8 10 8 8 15 13 5 11 12 17 18 20 27 29 27 26 11 7
35 34 33 31 28 28 27 27 24 28 30 28 30 32 30 20 21 19 22 28 18 14 12 7 9 6 8 5 7 5 4 2 1 6 16 8 9 9 18 17 20 23 21 19 14 5 6
35 34 31 29 28 27 25 21 25 21 22 20 22 26 20 17 15 21 32 27 16 18 10 14 10 12 10 11 8 9 5 4 1 2 12 19 19 10 18 21 21 23 26 19 17 22 5
34 33 32 30 28 27 26 20 18 20 18 17 15 21 12 12 17 26 35 24 21 15 13 19 14 12 12 11 11 14 13 3 5 10 4 12 12 20 22 20 20 29 24 25 17 12 27
34 33 32 32 29 27 25 22 16 19 22 17 20 21 18 17 24 25 22 23 24 22 23 18 19 15 16 15 16 15 16 15 8 8 4 1 10 17 13 16 21 25 28 23 27 23 10
33 33 32 31 30 28 24 20 21 21 18 20 20 17 16 25 26 22 21 24 22 22 26 20 20 15 16 16 16 17 12 7 5 9 14 11 12 13 14 8 3 14 27 22 27 16 11
32 32 31 29 28 25 20 23 22 22 19 23 28 31 17 14 24 26 25 18 21 20 20 17 21 22 19 18 19 19 19 21 19 13 10 11 9 12 19 17 16 17 23 21 22 24 16
30 27 27 26 22 23 26 28 26 25 26 28 31 33 20 26 17 19 26 27 24 20 20 19 22 20 19 23 20 19 18 17 16 10 8 8 9 10 12 9 8 11 10 21 18 21 11
27 27 27 26 26 28 27 26 24 23 28 31 30 33 22 24 25 23 22 26 26 22 20 22 19 20 20 19 21 20 16 17 17 12 9 8 4 10 5 6 9 12 15 15 13 11 10
29 28 26 25 24 26 28 29 28 30 30 31 32 30 34 36 25 18 21 23 19 22 23 18 17 19 21 18 17 15 16 17 20 22 20 16 12 9 9 7 5 7 4 12 16 12 15
25 24 23 23 23 23 25 28 29 34 30 33 31 36 28 35 26 21 19 16 17 19 20 19 14 19 21 18 15 11 17 18 23 26 26 24 19 11 6 8 8 5 7 4 7 11 14
25 23 22 21 21 22 23 27 30 32 34 33 33 33 38 26 30 21 20 19 18 15 11 13 19 20 18 25 6 7 10 13 11 10 26 25 25 24 10 5 3 7 6 12 8 4 11
23 25 25 26 27 25 21 21 29 33 34 36 32 34 36 39 24 17 23 18 12 12 14 13 19 16 16 18 16 14 19 16 14 17 17 30 28 28 24 14 8 10 6 10 8 6 12
25 28 29 29 31 34 36 29 26 34 34 34 31 32 33 35 30 26 26 16 15 14 12 13 11 14 13 14 10 12 11 12 14 9 13 26 21 20 21 16 15 9 6 7 11 15 14
31 34 35 30 30 31 30 35 27 34 36 33 31 31 31 33 31 29 34 29 25 16 16 14 13 5 9 7 10 10 12 7 7 5 9 13 24 17 16 21 4 7 12 13 13 14 6

GFSGBSN_700_spd_063.txt.gz
Wind_Speed
20 20 21 21 22 23 25 26 27 25 23 22 21 22 21 21 21 22 21 19 20 20 19 19 19 18 16 20 8 18 17 20 17 17 14 14 21 25 28 25 21 27 27 26 28 30 27
18 20 21 23 25 27 29 29 29 26 24 23 22 22 21 21 21 21 21 19 19 18 19 18 19 18 16 15 17 11 17 14 17 18 9 11 14 18 20 24 26 23 25 27 26 29 30
22 25 25 25 26 25 25 25 25 25 24 23 22 23 21 20 19 20 18 19 18 19 18 19 19 20 17 13 16 14 15 15 16 24 18 16 23 22 21 25 21 25 28 33 34 33 33
22 20 23 28 25 24 24 24 24 24 24 23 22 23 22 20 20 20 20 19 19 19 18 18 19 19 15 15 11 10 14 12 13 23 22 22 23 26 25 23 23 24 30 30 32 27 25
20 26 26 24 24 25 25 24 23 23 24 24 22 22 22 20 20 20 20 22 20 21 18 19 19 18 9 9 8 11 12 12 15 16 22 22 27 30 28 25 23 27 25 26 25 24 26
28 25 25 26 25 24 24 24 24 23 24 24 22 22 22 21 21 22 21 23 21 21 18 17 19 15 13 8 12 15 12 11 12 15 19 26 28 29 32 27 18 23 24 23 24 15 24
23 25 27 25 24 24 24 24 23 24 24 24 24 22 22 21 22 22 21 22 21 21 15 20 20 20 17 15 20 19 12 12 14 8 16 26 29 35 34 31 24 23 22 26 30 19 24
27 24 23 23 23 24 24 25 25 24 25 25 24 23 23 21 22 20 20 20 21 21 23 18 19 18 9 13 14 12 17 14 13 10 11 24 25 31 30 19 24 27 29 34 25 19 11
22 21 21 22 23 24 25 25 26 26 25 27 26 24 23 22 23 19 18 17 19 18 25 14 12 7 7 9 11 8 20 15 12 11 13 14 23 22 23 20 27 28 28 28 25 17 26
17 17 18 18 19 20 22 24 27 28 27 27 27 25 23 22 23 18 18 16 18 14 15 10 8 3 3 5 4 9 16 16 13 12 20 15 10 15 26 21 25 29 27 24 22 30 27
17 18 20 21 22 22 23 24 25 27 29 29 29 26 24 25 23 20 21 14 13 9 6 3 6 4 6 2 5 7 1 15 18 15 15 11 9 20 22 21 22 20 22 23 26 31 29
18 19 20 21 23 24 24 24 26 28 29 30 31 27 24 28 21 21 16 13 9 2 8 11 8 4 6 6 7 9 7 14 16 20 18 20 15 15 32 18 12 15 13 19 24 27 16
20 21 22 23 25 25 25 26 27 28 30 31 31 28 25 26 19 21 14 11 4 7 3 10 6 7 6 8 13 15 10 8 15 15 21 22 20 17 16 19 11 20 14 5 7 8 5
23 24 25 26 26 27 27 26 27 28 30 30 31 28 25 25 19 19 16 14 11 8 14 2 9 6 9 7 9 14 10 10 12 13 12 10 6 13 17 23 13 17 24 10 3 2 5
25 27 28 29 29 28 28 27 27 27 28 29 29 28 29 20 20 19 20 17 12 17 7 12 8 10 9 10 10 9 17 9 8 14 14 5 7 6 9 21 18 13 28 29 14 17 6
28 29 30 30 30 29 27 26 25 24 24 25 26 28 24 20 19 20 24 29 28 22 10 7 7 7 10 7 8 4 8 9 11 3 9 8 12 9 2 14 14 22 15 15 6 3 3
30 31 31 31 30 29 28 25 23 19 19 21 22 25 12 13 17 20 30 35 35 27 13 8 10 14 16 13 6 8 1 2 3 5 8 13 17 13 6 11 26 15 16 13 10 12 2
31 31 31 30 29 28 27 24 21 17 15 17 15 20 5 12 21 25 29 31 32 27 18 15 14 16 15 13 10 5 9 4 3 8 7 9 7 13 25 17 14 15 25 25 6 3 11
32 31 31 30 28 25 25 23 20 17 14 14 20 21 13 14 31 28 24 27 26 25 27 16 12 12 18 17 12 8 8 12 9 5 6 8 6 7 6 9 19 18 20 18 22 18 14
31 30 31 29 27 26 24 22 16 15 15 18 19 16 11 23 26 19 17 20 21 15 22 21 22 19 17 18 14 11 11 7 7 5 13 14 14 8 8 13 11 18 21 24 26 13 15
31 30 29 27 25 25 21 17 15 16 20 21 22 22 16 11 17 30 23 25 18 17 20 18 21 24 18 18 17 17 14 16 16 16 16 12 12 17 19 18 13 14 12 18 22 25 17
29 29 26 23 20 20 17 16 19 20 24 25 26 22 23 26 24 20 18 27 27 29 19 19 22 17 19 19 17 17 16 13 11 4 9 10 6 11 18 14 13 11 13 17 21 17 31
28 27 25 23 24 23 21 22 21 25 24 30 28 24 26 23 19 21 24 18 15 20 21 23 17 19 21 17 22 22 18 17 14 15 11 5 4 12 4 10 11 11 12 17 16 21 15
28 28 26 24 23 20 20 21 25 24 27 29 26 22 26 31 28 23 19 16 18 16 26 22 19 17 17 20 17 18 23 17 26 22 18 17 7 8 11 15 3 8 4 17 20 15 8
29 25 22 20 18 18 16 18 21 28 28 29 27 23 25 24 28 29 27 25 15 20 19 19 13 19 19 19 13 9 11 17 23 26 27 25 23 12 7 6 18 17 7 3 15 10 10
24 23 22 20 19 19 19 19 21 24 30 31 29 28 28 32 34 21 18 18 23 18 17 19 13 11 10 8 10 7 5 5 8 8 9 29 27 23 9 5 4 5 7 7 1 7 10
26 23 20 19 19 19 19 18 20 23 29 32 31 27 27 31 30 23 14 15 21 14 5 8 12 13 12 12 12 15 12 12 11 13 16 20 28 32 27 11 8 11 11 8 8 8 9
20 19 20 22 24 25 26 25 23 20 28 31 30 28 26 31 30 27 21 9 17 13 9 3 8 10 13 10 9 11 10 14 14 22 19 18 20 22 26 14 14 12 14 9 11 15 19
18 20 24 27 29 29 28 28 26 34 24 31 30 27 24 26 25 25 29 21 23 19 16 16 11 3 6 4 5 7 10 14 9 5 3 5 17 14 21 25 7 13 19 15 20 19 24

GFSGBSN_700_spd_066.txt.gz
Wind_Speed
23 23 22 20 19 20 22 23 24 26 26 24 23 23 24 24 23 22 22 21 20 20 19 19 18 18 17 16 11 21 18 15 13 14 15 12 16 21 29 29 28 36 34 32 31 27 25
20 18 18 19 21 22 22 23 24 24 23 24 24 22 21 21 22 22 22 22 20 20 20 20 19 18 17 15 15 19 18 16 15 19 16 16 18 23 24 31 28 28 26 27 25 28 29
17 19 20 21 20 22 24 25 25 23 23 23 22 22 22 21 21 22 22 21 20 21 21 22 20 20 17 17 15 17 20 17 15 16 20 20 20 23 26 26 27 28 30 31 33 32 34
22 21 18 19 21 24 23 21 22 24 23 23 23 22 21 20 21 22 22 21 19 21 21 22 22 20 18 18 16 15 17 17 13 15 21 22 22 27 26 25 21 22 29 33 35 32 35
25 23 22 23 20 19 20 21 24 26 24 22 22 21 20 19 21 21 22 21 21 22 22 23 23 21 19 15 13 16 14 15 15 14 17 23 27 26 28 27 26 26 31 29 32 32 30
17 20 18 18 20 20 24 24 24 23 23 21 21 20 18 19 20 20 22 21 20 23 22 23 24 20 14 20 19 17 14 14 15 15 15 20 30 30 29 31 24 26 22 27 35 28 24
17 18 20 22 27 25 23 23 22 23 21 21 21 21 19 20 21 21 23 21 18 23 23 22 23 23 24 21 20 15 17 15 15 16 13 13 23 35 35 32 33 29 22 22 28 28 23
22 25 27 26 24 23 22 21 21 22 21 21 22 20 19 20 19 21 24 23 22 23 25 19 22 25 20 23 22 15 21 21 16 15 13 11 24 26 29 30 28 31 27 35 33 30 17
24 23 22 21 19 18 17 17 17 19 21 21 22 21 20 20 19 20 23 22 23 23 28 21 21 19 14 16 9 6 14 19 15 16 12 13 13 14 26 25 28 25 29 29 30 28 23
19 16 16 16 16 15 17 17 17 19 21 21 21 19 20 21 19 19 21 20 20 19 21 20 18 10 10 8 5 5 6 15 19 12 10 10 4 16 20 24 24 21 25 25 24 21 15
15 14 14 14 15 15 17 18 18 19 21 22 22 20 18 23 18 19 18 17 15 12 6 3 6 6 5 5 4 1 3 12 17 15 11 10 10 19 17 24 21 18 16 22 15 14 18
14 14 14 15 16 18 19 20 20 21 22 23 23 21 20 21 17 20 17 15 12 5 7 7 7 6 7 8 7 6 2 6 10 17 20 21 21 19 12 21 19 13 17 19 18 15 6
15 16 17 18 19 20 21 23 24 25 24 23 24 23 23 19 16 20 15 12 8 8 4 4 10 13 10 8 10 15 10 9 12 10 21 22 30 25 17 15 26 18 8 2 4 5 5
17 18 19 20 22 23 24 25 26 26 26 26 26 24 24 17 19 20 16 14 13 8 19 15 8 12 15 9 11 16 18 13 10 9 11 5 6 7 17 22 22 33 16 8 5 1 3
19 20 22 23 25 26 27 27 27 27 27 27 29 26 24 18 19 21 20 22 17 19 10 11 10 5 12 12 15 16 18 15 10 8 10 3 4 2 9 9 17 13 18 24 3 5 2
22 23 24 25 27 28 27 27 27 27 28 28 28 28 19 18 21 22 25 33 29 26 18 9 6 2 13 10 3 16 11 12 14 11 12 9 10 9 10 12 17 14 3 9 8 3 4
24 25 26 27 28 28 27 28 26 25 26 27 24 26 8 13 20 25 31 36 35 29 28 19 14 16 14 15 7 4 5 6 9 11 12 20 15 7 7 11 13 15 13 9 10 5 1
26 27 27 27 27 27 27 27 24 22 23 19 20 21 9 12 23 28 32 32 29 29 21 24 26 17 8 11 10 7 4 3 3 3 3 9 6 9 13 12 10 14 14 17 6 7 8
27 27 28 27 27 26 26 25 19 17 17 16 19 17 9 16 20 27 27 25 24 25 20 21 19 16 10 8 6 3 4 2 4 1 1 3 3 5 8 8 10 13 14 20 20 12 14
29 29 27 27 27 24 23 21 18 14 14 17 17 18 11 19 23 19 18 25 22 17 18 15 23 20 14 12 8 8 9 3 4 3 10 10 5 5 7 6 8 9 9 15 18 9 10
28 26 26 26 24 23 20 18 15 11 15 17 17 21 20 15 8 16 17 21 19 20 21 12 12 13 15 18 15 13 12 17 12 12 17 12 13 13 13 17 20 16 19 20 26 30 16
26 26 25 24 22 19 16 14 13 15 19 20 23 24 23 23 22 18 15 12 15 15 22 21 17 15 16 15 16 18 12 15 13 6 6 9 7 8 11 5 10 19 15 17 17 22 28
25 25 24 22 20 17 18 18 17 17 23 23 24 25 23 24 20 17 14 10 11 17 10 15 22 14 19 17 18 16 14 12 17 13 13 11 4 7 5 11 17 12 18 17 18 20 23
24 23 23 23 21 21 20 17 15 23 24 27 24 25 24 28 24 22 20 18 18 19 23 19 24 17 14 16 14 13 13 15 18 21 18 14 10 4 8 16 3 4 6 14 18 11 12
24 23 23 21 17 16 15 13 15 17 28 25 24 24 23 25 21 20 18 17 18 19 18 19 10 14 10 10 13 10 11 11 18 24 24 19 19 10 6 9 17 26 8 10 5 9 13
22 22 19 17 16 16 15 15 17 18 20 29 25 23 23 24 26 23 24 17 17 18 11 6 9 8 7 4 8 6 4 3 4 3 1 12 23 21 8 4 4 4 5 9 7 3 10
22 21 20 19 17 16 14 14 17 20 22 26 28 26 26 26 28 25 21 16 10 16 19 13 9 10 6 6 7 7 7 5 5 5 10 10 12 27 23 12 12 16 17 17 4 5 21
21 19 17 17 18 18 18 17 17 17 21 26 26 28 28 28 27 24 17 18 17 7 11 17 3 4 7 8 6 6 7 8 8 16 15 12 8 12 20 10 11 16 8 9 5 14 14
18 16 16 18 20 21 22 23 23 26 23 23 27 28 25 25 23 18 19 21 19 12 15 17 14 6 3 5 7 6 7 6 10 11 12 11 27 12 11 11 9 9 19 18 13 11 19

GFSGBSN_700_spd_069.txt.gz
Wind_Speed
27 27 26 26 25 23 22 22 23 24 24 24 23 22 23 22 23 24 25 25 24 24 25 25 24 22 19 19 18 20 20 21 19 18 18 19 20 24 29 30 30 40 40 36 35 35 34
25 24 23 22 21 21 22 22 24 26 25 26 24 22 22 22 23 23 23 24 24 24 24 24 24 24 20 18 20 19 20 22 22 19 18 22 20 22 26 26 31 34 34 32 34 35 30
22 21 20 21 22 25 26 24 24 23 21 21 23 22 21 22 24 24 24 23 23 25 25 23 24 25 23 20 18 22 20 21 22 21 19 23 21 19 18 22 25 31 32 31 33 31 31
21 22 22 25 24 22 23 25 20 19 19 21 23 23 21 22 24 26 24 23 23 25 24 24 25 26 24 21 19 22 23 20 21 21 20 23 24 24 24 23 16 20 28 32 33 31 31
25 28 28 25 26 26 21 21 21 21 22 23 23 21 20 21 23 23 25 22 23 24 24 24 25 25 26 23 22 23 21 19 19 20 19 17 26 27 26 26 27 28 26 23 29 30 27
27 28 23 23 21 20 21 20 25 23 21 22 22 21 21 22 23 23 23 21 22 25 25 25 26 24 22 24 17 18 21 17 18 20 18 21 25 32 33 29 27 26 23 25 29 27 23
23 22 21 21 21 21 24 27 25 25 24 22 21 21 20 22 23 24 22 19 20 26 26 24 23 24 20 22 23 21 22 23 21 20 19 20 25 31 30 34 34 29 31 26 28 20 23
21 22 21 22 24 26 24 24 22 21 21 21 21 21 19 21 22 23 23 20 21 24 29 21 25 28 24 26 28 27 24 23 21 18 19 21 23 18 23 27 29 28 28 33 34 24 26
21 21 22 22 22 21 18 17 15 15 16 16 16 17 16 19 20 21 21 18 19 23 32 27 21 18 24 27 24 14 24 21 26 18 18 20 14 13 15 18 24 29 28 26 31 27 34
22 21 19 16 15 15 14 15 15 16 17 17 17 17 17 16 17 19 18 16 16 20 22 22 15 9 11 14 8 14 11 14 21 18 16 18 19 11 12 18 19 27 28 21 26 23 18
18 16 15 14 13 13 14 15 15 17 18 20 20 19 18 19 17 19 17 16 13 12 6 8 5 3 4 5 6 6 4 9 18 16 15 9 10 13 16 13 15 16 16 18 18 19 11
16 14 13 12 12 14 15 16 17 18 20 22 22 21 19 21 21 22 15 14 11 5 7 6 7 8 9 8 8 5 5 5 7 15 21 23 21 20 14 13 13 18 16 15 17 19 11
14 13 13 13 14 15 17 18 20 22 22 24 24 23 21 20 22 21 16 13 6 6 3 1 4 9 15 10 11 11 12 12 10 10 17 15 19 20 23 19 13 15 9 3 6 7 7
15 15 14 15 16 17 19 20 23 25 26 27 28 27 20 22 24 22 19 15 10 8 14 18 19 11 16 12 13 15 20 20 18 16 12 5 5 2 2 12 11 24 20 5 4 3 2
16 16 16 17 18 19 21 23 24 26 28 30 29 29 22 24 23 22 21 20 12 9 18 18 19 9 6 8 9 14 17 23 22 18 11 5 5 3 5 7 12 12 29 20 2 3 2
17 17 18 19 20 22 23 25 25 27 29 30 30 28 25 23 22 20 24 30 20 17 15 12 11 5 7 11 8 6 16 12 26 20 16 5 7 6 9 9 7 10 19 13 7 3 3
18 19 19 20 23 24 25 26 26 27 29 29 28 24 19 18 19 21 26 27 29 25 15 18 17 15 14 14 10 10 3 11 14 12 13 16 13 6 3 12 11 12 10 7 12 5 2
20 20 21 22 24 25 25 25 25 25 25 24 22 15 9 12 15 18 27 28 20 23 18 20 26 22 20 15 10 6 4 5 4 3 6 7 5 10 16 13 11 15 17 14 5 5 5
20 22 23 24 24 24 24 24 23 21 22 20 18 13 10 12 20 14 28 23 19 21 17 22 16 8 13 17 7 5 5 2 5 4 3 1 2 5 8 1 4 15 16 13 14 10 13
21 22 23 24 23 23 23 22 21 18 17 14 14 8 8 9 13 18 19 14 19 13 20 19 20 17 22 17 15 8 8 7 8 4 6 5 1 2 5 11 12 10 8 8 18 8 6
22 23 24 23 24 24 21 20 19 16 13 14 13 14 13 10 7 5 9 8 14 13 10 14 8 9 11 17 16 16 14 6 12 6 9 7 6 10 12 13 16 19 20 18 14 16 9
23 24 23 22 22 20 19 18 14 10 11 15 17 19 20 20 19 17 15 10 9 7 12 6 9 14 12 13 14 13 15 9 6 8 2 4 6 9 15 11 9 17 16 19 18 15 22
24 23 22 21 20 19 17 14 13 13 17 19 18 18 19 21 19 15 14 15 13 15 8 16 15 15 15 15 15 13 12 12 8 5 8 8 8 7 6 10 22 15 3 9 17 22 20
23 22 21 20 19 18 18 18 18 15 21 21 22 22 20 24 23 19 15 13 15 15 19 16 18 14 18 13 19 16 13 11 14 12 11 11 9 8 8 15 3 6 12 11 12 13 17
23 22 20 19 19 17 15 13 13 15 18 23 21 21 22 26 23 19 12 8 9 12 13 12 8 10 13 10 11 12 10 11 14 14 17 16 16 10 5 8 15 21 6 10 13 12 15
22 21 20 18 15 14 13 11 12 15 18 19 23 23 19 22 21 18 17 13 14 14 8 10 11 10 10 10 14 8 6 8 4 3 6 13 19 15 7 4 4 3 10 11 20 19 14
22 20 18 17 17 17 15 14 17 17 19 22 20 20 24 24 23 21 18 16 13 11 11 13 11 7 4 6 3 2 4 8 6 5 5 5 8 21 24 11 12 21 19 12 10 11 13
22 20 18 18 17 17 17 17 16 16 19 21 18 21 24 26 25 22 19 16 12 9 10 12 12 10 2 4 5 5 6 8 9 10 6 5 5 8 12 9 11 19 16 14 13 15 11
22 20 19 17 17 18 20 21 21 19 18 20 21 19 23 26 22 19 23 19 15 15 14 12 10 14 6 5 6 5 6 5 7 5 10 7 10 9 9 7 11 7 3 8 14 11 10

GFSGBSN_700_spd_072.txt.gz
Wind_Speed
34 32 30 29 27 26 26 25 26 26 27 29 30 28 28 29 28 27 25 25 25 26 26 26 26 25 24 23 21 24 23 23 20 18 20 23 24 24 26 29 31 38 40 39 38 34 35
30 29 28 27 26 25 24 23 25 28 29 28 28 28 27 27 27 25 25 24 25 27 25 25 26 27 26 23 21 19 22 23 21 19 22 25 24 24 26 26 29 32 33 35 37 35 34
27 26 25 24 24 24 24 25 27 26 25 21 20 20 21 23 25 23 24 26 27 26 25 25 26 27 27 21 24 20 21 23 22 19 21 21 23 22 23 23 20 25 31 33 33 29 30
24 22 22 22 23 23 26 25 25 24 21 21 21 23 25 26 24 23 24 26 29 28 26 27 27 27 28 22 25 22 21 20 23 22 18 19 22 24 25 23 22 20 22 28 27 26 29
22 22 24 24 27 30 28 28 24 22 22 22 21 21 21 24 23 24 26 25 27 28 27 26 27 27 27 23 21 23 23 21 18 21 22 20 22 25 26 24 23 21 28 29 24 19 22
22 23 26 28 29 24 23 22 22 21 22 22 21 21 21 23 23 26 27 25 26 27 27 28 27 24 17 20 23 21 15 14 16 17 18 22 23 25 27 26 21 18 21 27 25 20 22
25 27 26 24 23 22 22 22 23 23 22 22 22 21 22 25 25 27 24 23 25 28 27 25 25 27 21 23 21 14 17 17 18 19 17 22 27 32 24 25 28 31 34 36 34 24 26
23 21 22 23 22 21 22 23 22 20 17 15 15 14 15 19 21 22 23 24 26 29 32 23 23 28 27 26 30 27 30 23 22 20 19 22 27 21 18 21 24 27 32 37 35 30 29
17 19 21 22 21 21 20 18 15 12 12 12 12 12 13 16 18 19 19 20 22 27 33 28 19 17 18 21 24 21 26 28 26 24 21 23 15 10 11 15 22 24 31 33 31 29 29
18 18 20 21 19 17 14 13 12 11 12 13 14 14 16 18 18 20 19 20 20 23 21 14 13 8 7 7 6 12 12 18 24 22 19 16 20 24 17 12 11 20 20 23 20 19 14
16 18 18 16 14 13 12 11 11 12 13 14 16 17 18 18 20 21 21 20 18 17 7 11 11 8 8 3 0 3 5 9 15 16 13 8 7 10 18 15 10 14 11 10 17 16 18
16 16 14 13 12 12 11 12 12 14 16 16 18 19 18 21 23 20 21 20 16 5 6 4 6 9 10 8 7 4 7 7 5 12 16 20 18 18 19 14 13 13 14 15 15 14 10
15 13 13 12 12 11 12 13 15 16 18 20 20 20 20 22 23 21 21 20 9 6 5 6 8 8 11 14 11 13 12 11 9 5 11 12 13 15 19 24 18 16 12 3 4 5 4
14 14 13 12 11 12 13 15 17 19 21 22 22 20 22 24 21 21 20 17 9 7 12 16 16 14 16 10 11 14 19 19 17 17 10 5 4 2 1 7 10 10 14 5 3 3 2
15 14 13 12 12 13 14 17 19 21 23 24 24 23 24 24 24 22 19 16 9 9 14 20 24 17 10 7 5 7 11 18 22 19 14 4 5 1 2 5 6 4 15 20 6 8 2
14 14 12 13 13 15 16 18 21 23 25 27 26 25 25 24 23 21 17 21 14 15 17 10 9 6 7 9 9 5 6 6 11 19 13 9 8 7 8 11 10 12 7 6 13 3 4
14 14 14 14 14 16 18 20 22 25 26 28 26 23 21 22 18 17 16 19 23 21 12 9 11 13 12 15 12 9 4 8 10 8 15 22 13 9 5 8 12 7 6 8 6 10 3
15 15 14 15 15 18 19 21 23 25 27 27 25 16 14 15 12 10 10 15 13 15 9 18 20 24 20 13 15 11 9 7 11 5 9 16 10 9 24 16 11 13 12 9 6 3 11
16 15 15 16 17 19 20 21 22 24 25 24 18 11 11 10 8 10 16 17 17 20 13 14 15 12 8 10 5 12 17 5 7 5 5 0 2 2 1 7 4 4 10 14 14 15 6
17 16 16 17 18 19 20 20 21 22 22 19 13 4 5 5 7 6 8 9 9 10 13 12 16 18 16 21 14 10 17 13 5 4 9 1 5 3 1 5 10 13 14 15 17 6 3
19 17 17 18 19 18 19 21 19 19 18 14 10 6 6 4 3 8 12 8 9 11 7 5 4 6 6 9 18 20 22 21 12 6 6 4 3 5 7 7 10 10 12 15 17 19 10
19 18 18 18 17 18 20 19 17 16 12 11 10 9 7 10 12 12 12 9 12 7 15 8 15 19 5 11 12 9 13 24 12 10 2 7 5 4 8 7 10 18 17 18 18 20 24
21 19 18 17 18 18 18 16 15 13 12 12 12 11 9 14 13 12 11 9 12 16 5 11 17 21 9 8 14 16 16 13 9 7 8 7 4 2 2 10 18 12 2 12 12 14 18
21 20 19 18 18 17 16 15 12 13 13 15 14 15 17 19 17 14 13 12 12 9 16 14 13 15 15 12 15 21 18 13 12 12 10 7 5 3 3 10 1 5 9 13 15 15 14
22 21 19 18 18 16 15 14 13 14 13 12 16 16 16 20 19 16 13 9 8 9 13 15 11 16 20 13 18 12 17 14 16 9 11 14 11 4 2 4 13 19 2 6 10 16 15
24 22 19 18 18 16 14 12 10 8 12 14 13 15 18 18 18 13 10 10 11 12 11 9 10 18 18 17 17 11 8 8 6 7 11 13 15 9 5 2 4 4 5 9 15 21 9
24 22 19 18 17 15 14 13 12 11 11 14 14 14 16 20 21 18 13 11 10 10 14 13 12 13 13 7 7 9 7 10 5 4 5 4 7 17 19 9 11 22 23 21 10 10 19
24 21 19 19 17 16 17 16 16 16 16 12 10 16 17 20 19 20 17 12 10 9 12 13 14 9 11 9 5 3 2 4 4 5 4 3 4 9 11 7 10 12 9 10 12 19 19
23 21 20 19 18 18 17 18 19 18 16 15 14 13 16 18 17 13 14 15 13 13 11 13 12 13 9 10 12 2 2 1 4 2 7 5 10 7 10 7 11 8 3 2 8 15 18

GFSGBSN_700_spd_075.txt.gz
Wind_Speed
42 38 39 35 35 33 31 28 26 24 24 25 27 30 32 32 31 29 28 28 28 27 26 26 25 24 24 22 21 25 22 21 20 18 17 15 18 20 22 24 27 34 33 34 35 35 36
40 41 37 36 32 30 28 26 24 23 24 27 29 29 29 26 23 22 23 25 27 25 24 25 27 27 25 21 21 20 20 19 20 17 20 22 20 21 24 23 25 26 25 28 29 31 32
43 38 37 35 30 26 24 23 23 24 27 26 27 25 24 25 24 23 21 23 25 26 27 27 28 26 27 21 22 22 21 21 21 18 18 20 22 23 23 21 21 23 26 24 27 26 30
37 33 33 29 24 22 22 22 25 27 27 26 22 24 24 25 22 18 19 24 24 24 25 26 27 29 25 23 23 21 21 20 22 19 16 17 20 22 24 21 21 23 25 22 16 16 17
35 29 25 23 21 22 22 25 27 24 22 21 22 23 22 22 20 20 22 24 25 26 24 25 26 26 24 20 15 13 17 21 18 18 17 17 19 22 24 22 23 20 19 20 24 19 18
34 23 22 22 22 23 25 23 19 17 20 20 20 20 21 22 21 21 24 25 26 25 24 24 23 14 8 12 12 14 16 14 10 9 13 18 22 24 24 22 15 14 14 17 17 13 14
31 26 23 24 24 23 19 18 17 18 18 18 18 18 17 17 17 17 16 19 22 23 18 22 23 23 21 22 24 22 17 11 14 13 13 15 20 28 24 23 22 23 27 26 28 28 28
29 25 22 22 20 19 17 17 17 18 16 13 8 9 10 12 14 15 16 18 20 24 23 17 15 16 19 24 22 24 24 21 21 18 16 18 24 20 19 20 21 20 24 29 28 23 22
27 26 24 19 14 15 16 17 16 11 8 7 6 8 10 11 14 16 18 20 22 26 30 11 10 8 10 10 11 12 23 27 26 24 20 19 17 16 13 17 15 16 22 26 26 27 28
23 20 12 11 14 15 16 13 10 8 6 6 7 9 11 13 14 17 19 21 22 24 16 8 9 9 12 10 6 6 5 21 28 22 21 18 18 20 17 13 13 13 11 11 13 11 9
22 14 11 13 15 14 12 10 8 6 5 6 8 11 13 14 15 16 18 19 19 19 6 9 7 6 9 8 8 9 5 2 13 17 17 8 7 7 17 24 18 12 11 11 10 13 18
13 11 12 14 12 11 10 8 7 6 7 8 11 13 15 16 16 17 17 17 17 5 5 4 5 7 8 8 8 8 8 6 6 10 13 14 15 14 12 11 14 10 14 11 12 10 8
9 11 14 14 12 10 8 7 7 8 9 10 13 15 15 16 17 17 18 16 7 5 5 7 7 9 13 13 12 11 11 11 8 4 5 8 8 11 15 19 18 15 9 3 2 4 5
11 15 14 11 10 8 8 7 8 9 11 12 14 16 18 18 19 19 18 15 6 9 12 15 18 19 14 14 8 11 12 15 16 15 11 6 2 2 3 2 4 2 10 4 3 3 4
14 14 12 10 9 8 7 7 9 11 12 13 16 18 20 21 21 21 19 11 8 14 16 18 20 18 12 11 8 6 9 11 15 12 10 5 3 2 3 4 2 3 8 9 7 12 6
13 13 11 10 8 7 7 9 11 13 14 15 17 20 22 22 22 21 16 11 11 13 16 13 10 7 6 9 6 5 2 4 7 8 13 8 8 10 6 7 9 10 8 4 8 3 5
14 13 11 10 9 7 8 10 12 14 15 17 19 21 22 21 20 17 9 7 10 12 15 12 10 14 13 14 13 11 5 3 3 5 11 17 11 6 6 6 6 8 8 4 4 6 3
14 13 12 10 9 8 9 11 13 15 17 19 20 17 19 18 15 10 4 5 8 7 6 12 17 21 24 16 14 11 12 7 8 2 3 14 8 13 18 17 8 6 9 11 4 3 8
15 13 12 11 10 9 10 11 14 16 18 19 17 14 12 12 7 8 7 6 8 10 4 11 12 11 9 14 11 15 17 17 13 10 5 3 7 4 9 6 10 10 8 4 9 12 10
17 13 12 12 11 9 10 12 15 17 19 17 13 6 8 7 4 4 5 4 3 9 7 8 12 10 17 20 21 13 13 11 13 12 10 10 9 8 2 4 3 2 3 9 10 7 13
17 14 15 13 11 9 10 13 15 17 19 15 9 4 3 1 3 2 3 5 6 10 6 11 3 11 13 7 12 24 20 21 23 20 9 11 8 11 7 4 4 4 8 9 13 16 11
20 17 14 13 10 11 12 13 15 17 16 12 8 5 6 7 7 7 6 5 7 9 12 10 12 15 10 12 8 12 10 13 14 16 10 4 6 9 4 2 3 9 9 9 8 7 18
21 17 16 14 12 12 12 13 15 15 15 11 7 6 9 8 7 5 4 5 7 11 7 8 16 18 15 5 13 14 16 17 13 14 18 5 3 4 1 2 8 8 8 6 9 7 11
20 19 17 15 14 12 12 13 14 15 12 9 7 8 7 10 10 8 7 8 8 8 13 12 14 15 17 18 17 17 17 20 17 15 16 2 3 3 3 4 3 3 5 8 7 8 12
23 21 19 17 15 13 12 12 13 13 11 9 8 8 12 14 13 12 9 8 6 7 10 13 12 14 21 22 19 14 15 17 19 12 13 10 11 4 1 3 12 11 3 1 6 11 13
24 23 21 18 15 13 12 12 12 11 10 6 7 7 9 12 10 6 4 6 7 8 9 8 11 16 18 21 16 14 8 9 8 7 15 16 16 10 4 2 4 3 6 3 11 13 2
24 22 20 18 15 14 13 13 12 11 9 7 8 9 9 11 7 8 7 8 8 7 10 10 11 10 13 15 15 10 10 13 6 8 7 11 12 15 14 7 8 13 15 18 9 10 15
23 22 21 18 15 15 14 13 12 12 10 8 7 8 8 9 8 9 8 8 8 7 9 9 11 11 12 15 10 11 9 4 4 4 4 4 5 7 8 7 7 5 3 3 7 12 15
24 22 20 18 17 16 16 15 16 17 16 13 11 9 9 9 8 7 9 8 11 11 9 6 7 11 9 12 17 8 7 4 2 4 5 3 6 4 7 5 10 9 4 5 9 8 9

GFSGBSN_700_spd_078.txt.gz
Wind_Speed
48 50 50 47 43 39 38 36 36 36 34 31 29 28 29 31 31 30 28 27 25 23 24 25 24 22 22 22 21 23 23 22 22 18 15 12 16 17 18 16 20 27 26 26 26 31 34
50 49 50 46 42 41 38 38 37 33 30 29 29 29 29 29 27 23 22 22 22 22 22 23 25 25 23 21 20 17 19 17 18 18 17 18 16 15 15 18 20 13 18 20 20 24 28
55 50 48 47 47 45 37 33 33 31 29 28 28 28 27 25 22 21 22 23 22 22 22 23 23 23 21 19 20 20 20 19 18 19 19 20 22 19 13 13 20 23 22 21 22 24 24
56 51 49 51 46 38 32 30 29 27 26 26 27 26 22 23 21 19 20 21 21 22 23 23 22 21 20 19 21 20 19 19 19 19 18 20 23 22 18 15 19 18 18 21 13 10 14
54 50 46 44 41 32 28 27 26 25 25 23 21 19 20 19 18 19 20 19 19 19 20 19 20 19 19 14 13 13 11 14 14 18 18 17 21 19 16 15 16 13 16 16 16 15 17
50 44 40 39 35 26 26 25 23 22 19 16 16 16 15 15 16 17 19 18 16 14 13 14 15 9 11 7 12 11 11 10 10 9 14 17 15 17 18 17 15 10 13 14 15 11 16
34 33 33 34 27 25 25 23 19 15 15 15 14 13 13 10 8 8 10 10 12 9 12 12 16 15 19 22 20 20 21 15 12 11 11 12 16 22 20 20 21 21 19 21 22 22 26
29 32 31 28 26 25 25 19 14 14 14 13 11 8 4 4 5 6 8 10 12 13 14 11 7 8 10 13 14 18 22 19 17 14 11 12 19 16 16 17 19 18 19 21 21 16 17
27 29 29 28 26 20 16 15 13 13 11 9 7 5 4 5 6 8 10 13 16 18 17 2 4 5 9 7 6 7 11 19 16 16 16 17 11 12 13 15 16 16 17 15 16 17 22
24 24 24 24 22 21 18 15 13 11 9 8 6 5 4 6 8 10 13 15 16 18 5 1 4 4 7 7 7 8 5 13 15 13 13 14 17 21 13 14 12 13 9 8 10 11 13
20 18 19 19 14 16 13 13 11 11 9 7 6 3 4 6 8 10 12 15 16 16 4 2 1 2 7 7 7 8 6 2 9 10 10 7 8 8 13 19 14 12 9 10 12 15 19
21 23 23 17 17 11 14 15 13 11 9 6 4 4 5 7 8 9 12 13 14 4 2 2 4 5 5 7 7 8 8 6 4 6 11 13 13 14 10 9 11 10 11 14 15 12 10
24 27 18 13 13 14 15 14 13 10 7 5 4 5 6 6 9 10 11 11 4 5 3 3 6 4 10 10 7 7 8 8 7 5 7 6 11 12 15 13 12 13 10 6 8 5 6
21 17 16 15 15 15 14 13 10 8 6 4 5 5 7 8 11 11 10 7 6 6 10 15 17 19 13 12 11 10 9 12 14 11 10 8 6 3 1 12 6 11 13 8 6 4 6
16 16 14 14 14 14 13 11 9 6 4 3 5 7 9 11 12 12 10 4 4 9 13 16 18 13 12 6 9 9 12 13 9 10 10 6 6 6 5 3 7 6 9 7 10 16 10
16 16 16 16 15 13 11 9 7 4 2 3 6 8 10 13 13 12 7 7 9 13 15 14 7 6 8 10 7 6 7 7 7 10 13 8 12 11 13 9 12 10 7 4 8 4 5
15 15 15 14 14 12 10 7 5 2 2 5 7 11 12 14 13 9 2 5 8 14 15 8 7 11 13 15 11 11 9 9 9 9 9 10 13 8 10 11 11 10 11 6 6 7 4
16 16 15 15 14 10 9 5 4 3 3 5 8 10 13 12 8 5 2 1 2 5 9 8 8 9 12 14 19 19 20 12 9 8 10 11 10 17 20 14 12 13 11 11 6 4 4
15 16 16 14 12 10 8 8 6 4 4 6 8 10 9 9 3 4 3 2 2 1 2 3 5 7 10 12 12 13 20 20 19 17 8 9 10 12 11 12 14 18 14 12 10 8 5
15 15 15 15 13 12 10 8 6 4 5 7 7 6 6 5 1 3 5 4 3 1 3 3 6 6 11 12 16 19 15 12 15 20 22 5 16 15 12 3 5 13 12 8 6 5 7
16 15 16 14 13 12 10 8 6 5 5 7 6 5 4 3 1 4 4 3 2 6 6 6 3 8 12 10 15 13 19 20 19 18 18 21 14 16 12 10 6 7 9 9 10 11 10
19 17 17 16 14 12 11 8 6 6 6 6 5 6 6 6 5 3 2 2 4 5 7 6 7 9 13 14 14 17 13 11 13 12 14 13 12 14 10 10 12 11 10 9 8 6 10
18 20 19 17 15 14 11 9 6 6 7 6 7 5 7 6 5 4 3 3 5 9 9 6 10 15 14 11 13 14 22 19 20 20 11 21 14 16 8 9 7 12 12 7 5 5 6
19 21 20 19 17 15 12 9 7 8 5 5 5 4 5 6 6 5 6 7 8 10 12 10 11 12 14 19 20 21 20 20 21 21 18 17 14 4 6 3 6 5 1 3 3 3 5
21 23 22 21 18 15 12 10 8 7 4 3 5 3 3 4 5 6 7 8 8 9 11 10 11 13 17 19 21 15 11 13 18 21 16 15 14 2 2 5 5 3 1 1 1 3 7
23 23 22 21 19 14 12 10 9 7 4 3 3 2 2 2 2 3 5 6 6 7 9 8 11 13 15 17 17 9 6 7 7 6 13 14 15 11 3 1 1 3 7 5 5 6 8
23 23 22 20 17 15 13 12 10 7 5 5 6 5 6 5 3 3 4 6 6 7 7 8 9 6 8 13 12 13 16 12 6 10 10 8 11 13 8 4 4 10 11 12 8 5 9
22 23 22 20 18 17 15 13 10 8 7 10 9 7 5 4 2 3 2 5 7 7 6 9 6 8 6 9 9 14 6 3 2 6 8 8 8 6 6 4 3 4 2 3 5 9 10
24 24 23 22 20 18 16 14 12 10 11 13 11 8 5 3 3 0 2 4 7 11 8 8 4 7 7 10 11 10 11 7 5 4 3 3 2 2 2 2 7 8 6 7 10 8 8

GFSGBSN_700_spd_081.txt.gz
Wind_Speed
53 48 51 45 46 49 48 46 44 39 41 40 40 37 34 36 35 33 32 32 30 28 25 23 20 19 19 21 21 25 22 18 19 20 19 14 12 15 21 20 24 32 28 31 29 28 27
55 53 53 52 53 50 49 47 45 41 39 39 40 37 35 34 33 32 31 28 25 23 23 21 19 19 19 19 20 18 17 17 14 14 14 13 12 14 17 19 24 22 20 27 26 28 28
54 54 59 54 56 53 50 49 46 43 42 40 37 35 34 33 31 29 27 23 20 19 20 21 22 21 19 15 17 17 17 16 17 15 14 13 15 16 9 15 21 23 27 27 28 27 28
56 57 52 50 51 52 48 49 48 40 37 34 33 33 33 30 26 23 20 18 19 19 19 19 18 18 17 15 17 18 19 17 16 15 16 17 15 17 18 18 22 21 23 27 22 20 18
62 62 59 56 55 53 51 53 49 36 31 30 30 29 27 21 18 16 15 15 15 16 17 15 15 14 13 12 12 12 9 8 11 15 19 19 19 17 16 18 20 19 25 20 18 15 16
67 60 59 55 55 54 52 51 45 32 26 25 26 23 18 15 12 14 13 12 9 8 7 9 12 5 9 11 12 11 11 7 7 11 13 15 11 16 19 22 25 17 21 23 18 14 15
66 64 59 56 52 45 44 42 28 23 23 22 19 17 14 11 10 10 7 4 5 5 8 8 14 12 15 18 20 19 15 13 11 9 10 10 15 21 20 23 24 23 23 27 25 24 25
58 49 40 36 35 37 38 28 22 20 19 18 17 14 11 10 9 5 2 2 4 6 11 12 9 6 5 6 6 7 12 12 12 13 11 15 20 18 18 21 21 23 24 27 24 22 21
37 30 30 32 31 33 32 27 26 22 16 17 15 13 12 10 6 5 4 5 6 8 11 9 5 1 3 3 4 5 5 9 12 13 16 20 16 12 14 19 21 22 23 23 23 21 24
30 30 30 27 27 28 29 22 17 16 17 15 14 14 12 9 7 5 5 6 7 9 4 5 3 3 3 3 3 5 5 6 10 15 15 23 22 23 23 22 19 23 18 19 18 18 20
33 33 28 25 25 25 22 18 20 17 18 16 15 13 11 8 5 4 4 6 8 7 4 4 4 4 3 2 4 8 5 3 7 13 10 17 13 13 16 18 15 19 13 16 18 22 24
26 24 21 23 21 22 19 18 17 19 18 17 15 12 9 6 5 4 4 6 6 1 3 4 4 3 3 4 5 6 6 5 5 10 15 19 16 16 16 14 14 16 14 19 22 22 19
20 18 20 22 25 21 17 17 18 19 18 16 14 10 7 6 4 3 3 4 3 7 2 2 6 4 5 10 11 10 10 11 10 9 15 14 16 18 14 15 11 10 12 9 12 12 11
20 20 21 23 20 16 16 18 19 18 16 13 10 9 7 5 3 3 2 2 7 0 3 6 8 15 16 14 14 15 14 17 17 18 19 19 14 14 14 17 14 14 16 12 7 6 12
19 21 25 25 20 20 20 20 17 15 13 11 10 8 6 4 4 4 3 6 5 2 9 9 14 15 13 10 8 12 16 19 18 10 17 18 17 10 9 8 13 9 15 17 20 25 17
22 21 21 18 18 18 19 19 18 15 12 10 8 6 4 4 5 5 3 7 4 11 13 6 7 7 9 9 11 11 10 7 9 11 15 21 24 17 12 11 14 17 9 7 11 5 9
21 19 17 18 19 19 19 18 16 14 11 9 6 4 5 5 6 3 3 6 7 10 10 4 6 11 13 14 16 17 15 10 7 11 12 15 22 23 19 19 19 15 17 14 10 10 4
19 19 20 20 20 19 20 19 17 13 10 6 4 5 6 5 1 3 3 4 6 3 6 4 4 6 7 9 14 17 22 23 14 15 16 12 11 23 30 21 18 16 17 18 11 9 10
16 18 18 19 19 18 17 17 14 11 8 6 6 5 5 3 4 5 4 3 4 1 2 2 3 4 7 10 11 9 13 16 24 18 12 10 11 16 21 21 22 21 22 19 13 11 15
14 16 16 17 17 17 16 13 10 8 8 7 6 3 3 2 6 10 7 5 3 4 3 2 3 2 4 6 9 14 18 15 15 16 19 23 18 18 21 10 6 14 26 21 18 9 10
14 17 18 18 17 15 12 11 10 9 8 6 5 4 4 3 4 5 5 6 4 3 5 3 4 3 8 10 17 13 13 16 16 20 17 17 17 18 24 28 13 12 15 22 19 13 11
13 15 16 16 16 12 12 11 10 9 7 5 5 3 4 6 7 7 5 5 5 4 4 7 7 6 10 14 15 21 15 15 16 13 12 17 20 17 27 23 18 12 8 10 11 11 12
16 14 16 17 15 15 13 12 10 9 6 4 4 4 6 8 5 6 6 6 6 5 5 7 8 12 12 15 17 20 23 23 23 21 19 18 12 11 21 21 12 8 17 15 10 7 7
20 19 19 20 18 17 13 12 10 7 5 4 3 4 5 4 7 7 7 6 7 7 8 9 9 12 14 19 24 23 24 25 24 24 21 24 17 16 27 23 11 8 4 7 6 5 1
21 19 19 20 18 16 15 12 10 7 6 3 3 5 5 7 7 8 9 8 8 8 8 8 10 11 16 19 18 17 18 22 22 20 19 22 17 12 10 17 10 11 7 5 2 6 2
21 19 19 20 18 16 15 13 10 7 6 4 3 5 7 11 4 9 4 5 3 5 7 8 9 12 14 14 10 12 12 18 4 8 18 18 16 16 17 4 5 12 4 0 2 7 9
21 20 21 21 20 18 17 13 10 8 7 5 7 9 10 10 3 8 3 6 3 3 4 7 10 7 9 10 14 12 13 14 7 11 14 14 14 18 11 4 8 5 8 4 6 3 11
22 21 23 24 22 20 17 14 11 10 9 9 12 11 9 8 4 5 3 2 3 3 4 8 6 4 5 9 8 10 13 1 4 4 9 8 7 6 7 3 2 4 3 1 2 6 11
21 22 26 26 23 21 19 17 14 12 12 14 13 12 10 7 8 4 3 3 1 4 7 6 5 8 6 8 9 13 18 9 7 5 1 3 2 1 3 6 2 4 8 7 7 12 12

GFSGBSN_700_spd_084.txt.gz
Wind_Speed
50 49 50 52 48 48 47 48 46 46 47 42 40 40 42 40 40 38 36 35 33 31 29 27 24 21 20 21 18 29 18 16 17 17 15 14 12 12 19 21 23 29 31 32 32 32 34
55 54 51 50 46 49 48 51 51 50 48 46 42 42 42 41 41 38 36 35 33 31 26 23 21 20 22 22 19 23 15 15 14 13 11 9 11 11 16 19 22 24 27 28 29 32 33
54 54 56 53 55 48 48 50 53 53 50 48 45 43 40 42 40 36 34 33 31 27 22 19 19 20 22 15 19 19 17 16 14 13 12 10 12 15 14 15 18 23 26 28 30 30 33
61 54 58 56 54 55 52 53 48 47 48 45 45 44 40 38 36 34 30 28 25 20 17 15 16 18 18 17 15 18 18 17 17 17 16 18 17 15 17 18 23 23 24 29 25 24 28
61 61 62 64 60 59 57 55 51 49 49 48 47 42 35 31 31 29 24 19 16 14 14 15 16 17 13 9 11 11 7 6 8 10 14 18 19 16 14 19 22 21 28 27 31 28 23
57 59 59 64 57 61 57 59 53 50 46 46 48 46 31 25 23 20 16 14 13 11 10 10 14 9 6 2 12 10 5 6 8 10 12 13 13 14 18 21 26 20 23 25 26 18 18
50 55 67 69 64 64 63 60 53 47 44 43 42 30 20 19 17 15 13 11 10 10 10 9 11 13 13 16 18 17 16 14 14 11 14 13 14 20 18 20 22 24 25 27 28 25 25
50 68 65 64 63 61 56 47 41 40 36 30 23 19 17 16 15 12 11 11 9 7 12 11 11 11 10 10 8 8 10 13 13 15 13 14 21 16 17 18 21 22 25 27 27 27 27
49 57 67 67 52 37 35 34 33 32 25 21 22 17 16 15 15 14 12 10 7 7 11 11 12 10 8 6 3 2 2 13 13 15 16 21 19 16 13 17 20 23 24 24 28 26 27
60 62 61 45 34 29 29 29 33 29 27 28 17 16 17 18 16 14 11 8 4 5 8 8 9 8 6 2 2 4 3 9 10 16 17 21 20 22 23 24 20 24 21 24 24 24 25
49 35 26 24 22 24 26 28 29 26 21 16 17 19 18 17 13 14 9 5 4 3 4 10 8 10 6 5 4 9 7 3 10 12 12 14 12 15 18 18 19 26 19 20 19 24 28
19 23 24 22 20 23 21 24 23 20 20 18 19 19 18 16 14 10 7 5 5 4 6 7 5 6 3 9 5 8 8 7 7 11 15 21 19 18 18 16 17 17 18 20 22 25 18
22 27 25 23 24 24 21 20 18 19 16 19 20 18 15 14 11 10 7 5 2 7 9 5 6 4 4 7 12 14 13 13 10 13 16 18 20 22 20 16 13 14 13 12 15 13 13
15 19 19 17 18 19 21 21 14 17 20 21 17 15 15 12 10 9 8 6 6 1 6 6 2 7 14 14 15 15 16 19 17 19 24 23 22 19 21 19 12 17 16 13 9 7 12
12 15 17 19 19 22 20 18 21 19 19 20 19 16 13 11 10 10 10 5 3 4 2 6 12 11 11 9 9 9 12 16 19 20 25 18 24 6 7 13 13 12 20 20 27 30 21
14 15 17 18 25 23 20 21 22 22 21 18 16 15 13 12 10 9 10 6 3 10 12 6 3 4 7 9 8 8 11 8 12 10 10 12 20 22 19 15 17 22 12 10 9 4 8
15 14 16 22 23 19 19 20 21 21 19 17 15 15 13 10 8 10 7 6 4 11 7 2 3 8 8 10 12 13 11 16 15 14 16 14 13 23 23 20 19 21 23 22 13 12 3
15 20 23 19 20 21 21 22 21 18 18 16 13 9 10 7 9 6 5 5 8 3 5 1 3 3 4 6 10 12 14 15 18 25 21 17 18 21 25 26 22 21 24 23 19 9 13
18 21 16 18 19 18 19 19 20 18 16 14 11 8 7 7 7 6 11 8 4 1 1 1 1 3 4 6 6 6 10 12 15 16 16 17 10 15 20 23 22 22 21 25 18 15 15
15 15 17 20 19 19 20 19 17 15 14 14 9 5 5 6 8 11 6 4 1 5 2 2 2 3 2 4 5 9 15 14 15 15 19 17 18 17 21 15 19 20 18 22 17 17 9
16 16 16 18 18 18 17 16 15 14 12 10 8 6 6 4 4 5 5 5 5 2 4 2 7 4 3 9 11 15 14 15 14 15 16 19 24 25 28 31 22 24 28 18 22 21 15
13 15 16 17 17 17 17 17 15 13 10 9 9 6 9 6 7 6 4 4 5 3 3 3 9 9 9 13 15 19 17 16 20 15 14 18 23 24 30 25 22 28 25 12 16 20 10
13 13 17 17 18 16 16 15 13 10 10 10 9 8 10 8 2 5 5 5 5 5 5 8 9 11 12 16 20 22 25 27 26 25 24 21 19 11 22 19 21 18 23 15 11 9 11
15 14 16 17 19 19 17 13 10 9 9 9 9 9 5 4 6 5 6 5 4 6 8 8 10 12 14 20 25 28 27 26 27 29 24 23 21 15 14 13 7 18 12 14 11 5 4
18 13 13 16 16 14 14 12 10 9 9 7 10 10 9 11 6 6 5 6 7 7 9 7 9 12 21 19 19 15 14 17 24 31 29 21 20 12 6 10 25 21 13 11 9 7 2
25 19 15 15 18 16 14 12 11 10 10 8 7 10 12 15 6 6 6 3 2 5 6 7 7 13 13 13 9 11 18 21 11 9 15 17 17 14 10 3 4 7 8 3 6 7 8
20 18 17 17 18 17 16 14 13 11 10 7 7 8 12 15 2 9 6 7 2 4 3 8 8 8 9 10 16 11 10 15 6 3 18 16 14 17 20 14 6 12 9 9 2 4 10
20 18 17 18 19 18 17 15 14 12 10 8 8 10 12 13 8 9 8 12 2 3 4 8 5 7 6 8 8 10 12 19 10 4 15 11 10 10 13 9 6 13 7 8 6 3 10
22 19 19 19 22 21 19 17 16 13 12 10 10 11 9 9 7 9 6 3 2 6 8 5 4 8 6 7 9 12 18 12 17 2 4 1 9 10 10 7 10 15 11 6 4 9 14

GFSGBSN_700_spd_087.txt.gz
Wind_Speed
50 50 48 49 48 51 47 44 45 47 44 45 45 43 43 42 39 38 37 38 37 33 30 30 30 28 27 27 19 24 20 18 17 16 16 15 16 12 17 18 22 30 31 31 32 33 34
53 54 48 48 48 51 50 49 50 45 43 47 44 46 47 45 40 38 38 38 36 33 30 28 28 26 26 24 24 22 18 14 14 13 13 12 12 4 13 14 19 20 26 30 31 32 31
59 59 59 58 55 51 49 50 47 48 47 47 44 43 45 43 42 37 38 40 36 30 28 26 25 25 26 13 21 23 16 13 14 14 13 11 7 14 18 19 20 26 30 32 33 35 35
56 53 57 60 56 54 55 53 48 51 49 47 42 43 46 41 39 36 37 35 33 28 23 21 22 23 22 17 16 16 17 16 15 16 16 16 19 21 24 24 21 20 24 26 28 23 21
53 51 52 55 54 58 54 54 55 54 54 51 47 45 47 43 39 34 32 28 27 23 20 19 21 22 16 15 13 14 13 13 12 12 15 18 21 25 21 19 19 19 29 25 28 16 23
51 49 49 51 50 57 57 53 55 54 50 53 50 45 45 41 40 33 26 23 20 18 18 17 19 15 11 6 10 10 8 9 9 8 10 10 14 17 19 18 19 16 20 24 27 26 26
48 48 49 49 53 49 52 56 63 62 54 53 47 43 41 39 36 27 17 20 17 18 19 16 12 14 8 14 14 15 13 16 9 12 15 10 13 18 14 13 14 18 21 26 30 31 31
47 50 47 51 48 50 61 65 59 57 53 49 40 36 35 31 22 17 18 21 18 15 13 16 15 14 15 12 7 8 6 14 15 15 11 14 22 11 8 12 22 28 28 28 32 30 27
45 46 47 48 47 61 63 62 60 50 47 40 36 34 25 17 17 18 19 16 11 12 13 14 15 16 10 7 7 2 4 10 10 11 10 17 19 16 20 19 21 24 23 26 30 31 32
40 41 45 47 57 60 57 45 33 33 34 32 30 20 21 20 20 20 19 14 12 9 7 10 13 11 12 6 4 2 2 4 9 10 12 18 20 21 22 25 20 27 22 25 27 29 26
39 44 51 57 58 48 37 32 29 32 29 27 23 28 23 21 22 23 18 14 13 7 2 8 10 6 8 11 7 5 2 7 6 12 13 19 14 13 19 27 25 29 24 26 25 28 31
37 41 43 35 25 22 24 26 28 27 25 26 24 20 22 24 22 17 16 16 12 7 5 11 6 7 9 6 5 8 9 9 6 10 16 23 20 21 24 19 19 22 20 20 24 25 15
18 15 18 21 22 20 18 18 20 21 22 19 19 22 23 21 20 17 17 13 7 5 10 10 9 10 8 6 9 11 14 12 9 8 16 20 24 23 24 24 20 16 15 5 4 5 9
11 14 16 15 14 14 15 15 15 20 30 24 22 23 23 22 18 18 17 15 6 4 7 9 11 11 10 10 14 11 14 12 13 19 25 23 26 19 22 31 23 12 19 9 4 3 11
7 11 13 13 12 12 14 20 21 22 19 24 26 22 19 16 17 17 16 10 3 3 7 10 7 4 5 6 11 9 9 9 6 11 11 11 18 16 5 21 23 19 21 27 28 26 15
9 10 12 14 17 19 18 19 21 22 22 20 19 21 19 17 17 16 14 7 3 9 8 6 2 1 4 6 3 1 2 4 9 13 13 11 18 17 16 11 18 20 18 9 9 4 5
7 8 9 10 13 17 19 22 24 21 22 22 17 16 17 14 13 15 11 6 10 16 11 5 7 6 4 6 4 4 3 12 12 12 12 13 10 22 19 13 15 20 24 22 19 13 3
12 13 11 13 17 21 20 22 22 21 19 17 14 11 16 15 14 12 11 8 11 11 6 5 7 6 2 2 1 2 6 7 17 18 18 15 12 19 30 32 22 21 25 23 22 10 14
13 10 17 21 21 18 20 19 21 21 17 16 16 14 14 13 11 13 10 11 9 3 5 4 4 6 6 3 2 1 6 6 16 14 11 14 6 13 19 24 20 12 17 18 18 21 22
8 13 19 20 18 20 22 20 18 18 20 19 15 10 12 13 16 11 10 6 6 9 6 8 4 4 4 4 4 4 8 9 13 10 12 15 19 21 14 22 23 27 29 19 20 9 13
12 17 18 19 18 17 17 19 20 17 17 16 11 11 12 10 10 11 10 11 6 0 2 5 3 2 2 3 9 10 14 16 14 13 10 12 20 21 26 30 31 28 29 25 25 25 10
16 15 17 18 19 21 18 19 17 16 15 14 14 17 12 10 7 6 7 11 4 3 6 3 5 4 4 8 11 18 20 19 21 21 16 14 17 21 29 23 31 28 28 28 28 17 19
17 17 16 17 18 17 17 16 14 14 13 14 13 15 12 7 7 9 2 6 6 9 4 3 3 8 11 13 20 26 28 31 31 30 29 29 22 17 18 22 15 18 27 23 25 15 11
16 13 15 16 18 17 17 16 15 13 13 10 10 12 11 10 10 7 8 7 5 2 6 8 7 5 13 19 24 25 27 22 19 23 24 26 23 19 21 24 6 8 13 17 15 9 14
20 12 15 15 17 17 16 16 15 13 10 9 10 13 12 18 8 7 8 7 4 1 4 6 7 11 17 19 18 15 17 9 14 17 21 29 28 15 8 12 19 16 4 4 17 11 7
22 14 12 8 12 16 18 16 14 11 8 6 5 7 12 20 14 9 8 4 4 2 1 2 8 10 14 12 13 6 6 13 8 14 8 10 17 22 9 4 4 19 24 6 9 10 7
20 20 18 14 18 18 17 16 13 10 8 7 7 9 16 16 14 12 13 9 4 4 6 7 10 8 8 10 13 6 5 13 6 8 5 11 14 22 20 6 7 17 17 6 6 4 6
19 21 17 14 14 14 15 14 12 10 8 7 7 9 18 15 13 17 13 12 6 6 4 3 4 3 4 5 6 9 11 12 16 5 5 10 7 11 14 7 2 15 15 15 9 3 7
16 16 16 15 20 20 19 17 14 11 10 9 7 11 13 7 7 9 6 5 3 1 2 4 2 3 4 5 6 7 15 12 22 7 13 3 10 12 8 6 5 12 12 8 3 4 7

GFSGBSN_700_spd_090.txt.gz
Wind_Speed
52 50 51 51 55 47 45 46 44 43 43 42 38 39 40 37 38 40 36 36 35 36 34 33 33 32 32 29 20 23 20 20 20 19 16 16 18 19 19 17 18 27 28 27 25 24 27
56 55 54 53 53 54 51 44 45 43 44 45 41 43 45 40 39 40 38 35 37 35 35 35 32 32 32 26 23 19 21 18 18 16 14 14 12 12 14 12 14 17 21 25 28 29 32
55 54 54 54 54 54 54 50 54 56 45 46 44 41 41 40 35 40 37 36 33 34 36 36 33 32 32 15 24 23 18 16 14 14 15 16 18 20 16 17 19 24 26 30 31 31 34
54 54 54 53 53 53 50 54 50 51 49 51 48 47 41 41 41 40 40 37 33 32 35 34 31 31 30 20 23 22 18 16 14 14 15 17 22 23 21 21 22 21 26 30 27 23 25
49 52 53 53 52 50 51 51 51 57 49 55 48 44 43 43 43 42 40 38 35 32 31 31 30 30 26 23 19 19 15 15 15 14 15 17 20 24 21 24 24 27 32 33 32 15 17
44 46 50 51 52 50 48 47 54 50 51 47 48 47 43 38 42 39 40 39 35 29 29 29 31 24 19 13 14 15 8 7 11 12 12 13 15 22 26 25 25 21 20 23 24 20 21
43 42 46 49 48 47 49 46 46 43 49 51 47 44 44 40 42 38 36 34 36 30 30 27 18 13 16 16 13 11 9 10 12 13 15 10 14 21 13 18 19 18 21 27 27 23 27
44 42 42 47 46 46 45 44 39 43 49 51 49 44 40 37 35 32 33 33 30 23 25 24 25 25 16 15 17 13 12 17 20 19 15 16 22 6 6 9 13 16 24 30 32 27 28
42 41 40 43 46 44 43 41 50 40 50 53 48 46 41 35 33 34 23 21 15 19 23 21 19 22 16 19 14 14 9 10 15 13 16 22 13 5 16 15 16 20 23 26 32 32 35
38 31 40 40 41 39 36 43 47 55 54 55 46 35 34 32 27 24 20 15 17 15 10 12 22 23 22 16 15 10 5 5 14 14 15 17 16 16 15 22 19 25 21 25 26 27 28
29 27 34 38 43 46 47 51 56 53 48 39 28 28 28 30 26 24 20 19 18 10 3 6 15 11 16 15 12 12 8 2 3 9 13 12 11 11 16 18 14 22 22 26 24 27 30
21 25 31 31 45 45 49 42 31 26 26 26 27 28 25 27 25 21 24 24 17 10 7 10 10 16 17 17 12 8 11 4 3 7 14 18 13 13 18 17 18 20 23 24 27 26 15
22 20 15 13 11 15 17 17 20 23 21 18 24 25 29 27 24 28 25 22 15 9 9 14 15 17 12 9 15 11 8 7 7 10 13 14 18 17 19 25 22 24 21 5 4 1 7
19 25 20 18 17 11 10 10 11 14 17 18 23 25 25 26 28 25 22 23 8 15 8 14 22 19 16 16 11 14 7 6 7 7 11 11 10 14 12 15 19 25 26 10 6 4 11
4 6 7 8 9 10 9 10 10 12 15 23 23 23 24 22 23 22 23 15 5 7 15 18 16 13 7 7 11 7 8 6 4 8 1 7 10 13 13 11 12 20 22 21 25 28 12
7 8 10 10 11 12 12 12 12 15 17 23 20 22 26 22 21 20 20 5 9 12 9 10 8 8 7 11 10 10 8 2 1 2 1 6 13 10 21 18 8 8 15 9 8 3 5
8 8 9 12 14 13 12 10 16 22 24 26 26 23 20 17 20 21 16 6 12 9 9 5 7 9 8 9 5 6 5 2 6 10 9 11 11 17 19 7 8 15 15 15 19 17 4
7 8 10 11 11 9 11 17 21 20 18 20 23 20 22 22 20 17 12 11 15 9 9 7 7 8 8 8 4 3 4 6 9 13 14 11 10 17 23 29 27 21 16 12 7 6 16
10 9 10 10 10 13 20 27 24 24 25 22 22 17 16 18 12 18 16 14 14 7 8 8 7 6 8 6 5 5 5 2 7 12 7 11 4 10 20 11 9 8 9 12 20 10 15
10 8 8 11 17 23 22 21 21 21 22 21 17 12 17 17 15 17 14 11 10 8 4 9 8 7 5 9 6 8 7 10 7 3 7 11 9 10 8 19 23 35 27 23 19 12 16
7 9 14 19 20 19 20 22 21 21 23 21 18 14 18 18 17 17 12 11 9 6 7 11 5 4 7 8 9 10 14 19 17 12 10 11 14 12 18 23 26 30 30 30 22 21 19
12 15 21 22 21 21 19 20 21 24 21 18 14 19 14 18 17 14 13 12 6 8 8 6 6 6 5 6 9 14 18 19 21 19 17 17 16 14 27 26 22 24 33 29 25 26 27
17 19 19 19 17 16 19 22 22 18 18 16 13 17 19 14 12 15 17 14 14 10 7 6 7 8 9 13 17 21 24 26 27 28 26 28 24 24 23 15 22 21 19 18 17 19 22
20 17 14 19 20 22 21 19 18 16 18 15 15 17 15 16 16 14 16 13 11 10 11 8 7 6 8 12 18 16 16 16 13 11 17 27 25 17 16 18 4 2 7 7 8 9 5
18 16 17 18 20 20 19 19 16 17 16 15 16 17 15 22 15 13 10 8 6 7 8 6 3 3 9 15 13 8 7 5 9 5 11 18 21 13 6 8 21 19 9 17 4 6 4
19 16 15 14 17 19 20 13 14 16 13 12 14 15 17 18 16 13 10 9 12 8 8 3 3 6 10 9 9 6 3 8 6 13 6 8 18 22 6 4 4 9 24 21 7 6 7
21 18 15 15 18 22 20 14 15 14 14 12 15 16 21 17 16 13 8 11 9 7 3 1 3 4 5 6 9 5 4 11 7 12 7 3 8 22 20 10 7 16 18 1 8 3 6
24 22 17 12 16 20 16 16 16 14 12 10 11 14 19 14 11 13 10 10 8 7 5 5 4 2 4 6 5 6 6 10 14 11 3 2 5 10 13 4 4 11 17 14 10 4 6
19 23 20 13 14 19 20 18 16 13 10 9 10 12 14 12 11 13 12 9 6 5 3 6 6 3 4 6 7 5 7 9 16 8 19 12 6 4 4 4 5 6 9 8 6 4 8

GFSGBSN_700_spd_093.txt.gz
Wind_Speed
49 49 49 50 50 52 50 50 49 48 45 44 42 42 40 39 40 40 36 39 37 38 37 36 37 36 36 35 22 27 26 24 24 24 25 24 23 23 22 19 20 30 30 27 25 22 25
48 50 51 52 51 51 53 55 54 54 50 42 44 41 36 45 43 41 39 39 39 36 38 39 39 39 37 36 28 24 21 20 22 22 22 20 19 20 21 22 24 22 16 21 22 22 25
47 49 50 51 51 52 52 53 54 52 51 50 47 46 48 47 48 41 37 36 34 34 35 38 40 42 42 25 30 30 24 20 20 18 19 18 20 22 22 22 24 25 28 27 24 23 27
47 47 46 48 48 50 52 51 51 54 54 51 53 42 51 46 47 44 39 38 38 38 39 40 40 43 47 27 34 28 23 19 19 18 17 19 20 25 24 23 20 21 23 26 22 18 17
45 45 42 42 43 45 48 50 50 50 53 52 47 51 46 43 45 42 39 38 37 37 38 38 38 41 39 30 26 24 25 19 19 19 19 20 25 26 25 25 25 22 24 25 27 19 15
43 46 45 43 43 42 44 47 49 49 50 48 46 56 48 44 39 36 39 33 35 36 37 36 37 34 26 24 18 17 16 17 16 17 20 22 24 27 28 28 21 23 20 20 19 11 12
42 46 45 44 45 44 42 44 46 48 47 44 43 48 57 46 41 40 36 32 33 33 39 34 30 28 24 20 17 17 14 13 14 20 23 21 21 26 26 23 21 23 24 26 19 14 24
42 43 46 45 44 43 43 42 45 44 42 40 42 42 41 42 43 42 38 28 27 33 34 33 32 36 19 18 19 18 17 18 20 22 20 21 26 18 13 12 11 13 18 22 22 17 21
41 39 40 43 42 40 41 41 44 43 39 39 41 43 42 39 37 35 37 31 32 29 30 36 31 30 26 27 22 17 21 17 21 24 25 26 14 14 14 13 13 14 18 21 26 25 27
42 38 33 36 39 37 41 41 38 38 37 41 50 51 45 37 39 37 35 26 24 12 12 21 26 30 27 30 30 21 18 15 21 22 20 18 20 22 16 15 13 22 14 20 24 24 22
40 38 35 29 27 30 34 36 35 35 40 50 59 50 50 43 37 31 26 20 15 11 4 4 17 16 25 32 14 21 14 9 10 13 21 12 7 10 15 16 10 15 11 14 17 22 32
33 35 34 28 17 25 42 45 48 50 51 50 40 34 29 26 28 28 23 22 18 10 9 8 16 18 23 25 19 21 17 11 7 11 16 17 14 14 12 15 16 17 16 13 18 21 10
25 26 26 20 15 18 29 25 25 24 23 21 22 25 26 27 26 26 27 21 16 9 5 11 17 21 22 27 21 18 19 16 11 9 14 11 13 12 14 17 16 14 16 3 4 1 6
20 19 25 24 22 20 19 19 22 20 17 15 13 15 22 24 23 24 23 25 11 10 5 10 14 22 18 18 16 14 18 17 15 13 9 8 4 7 10 3 8 13 14 11 6 4 7
15 13 13 15 17 19 19 18 17 15 15 15 13 19 21 27 28 30 23 25 13 4 15 12 20 23 13 16 14 21 15 16 12 9 8 5 7 11 9 7 9 5 10 18 26 22 8
14 13 13 14 15 14 13 13 12 13 14 15 18 20 22 23 22 20 23 19 17 10 12 16 13 13 12 15 16 16 13 9 7 5 6 5 6 10 15 14 10 3 4 3 3 3 4
17 16 15 15 15 15 14 14 15 13 13 17 22 21 18 19 20 20 21 14 12 14 8 13 14 14 10 15 13 13 8 7 9 11 9 8 9 8 12 8 14 18 13 10 7 9 3
15 14 14 14 14 12 13 13 12 15 21 21 22 18 27 22 23 24 17 8 10 11 15 11 7 7 10 13 13 8 8 5 3 7 10 12 8 6 16 13 15 17 11 5 3 4 7
17 15 13 12 11 11 12 15 26 29 26 23 22 19 20 22 18 22 17 16 14 10 6 10 13 12 10 11 7 12 11 8 9 11 4 5 3 5 3 7 6 5 2 10 15 11 15
16 14 13 11 11 13 17 25 27 22 23 24 23 18 22 24 23 21 18 16 14 10 9 9 10 9 9 11 10 15 12 10 8 10 12 11 7 6 6 11 15 21 23 22 16 13 14
16 14 12 13 15 17 26 25 24 26 27 23 20 19 20 21 20 22 19 13 13 12 10 9 8 8 11 10 11 11 15 14 12 10 12 11 10 13 15 16 19 22 26 26 28 27 28
14 12 12 17 23 23 20 23 24 23 23 22 16 18 22 17 17 17 16 11 11 10 10 10 8 9 9 8 7 7 12 12 13 12 12 12 10 12 22 20 22 27 32 31 29 29 30
13 13 19 22 22 19 20 21 21 22 22 20 20 17 21 20 20 18 16 17 12 8 9 7 9 7 5 6 9 13 16 16 16 17 16 19 17 13 14 14 17 23 15 22 27 29 25
16 15 23 22 23 22 23 23 21 22 22 19 13 19 17 15 16 19 17 13 13 9 4 7 6 3 2 5 7 6 6 5 5 3 10 21 18 10 10 10 5 11 14 26 6 12 17
18 19 20 20 19 22 20 22 21 18 19 16 16 16 15 19 16 16 17 12 10 9 10 8 3 1 3 5 5 3 5 3 1 1 6 10 16 10 5 9 19 24 7 22 13 5 9
19 20 18 20 20 24 22 19 19 19 18 12 15 16 15 23 20 18 12 9 7 12 9 7 3 3 5 4 6 5 5 5 3 5 4 6 10 19 9 4 4 6 16 27 11 4 3
16 20 20 17 21 21 21 19 19 19 18 17 21 20 18 17 19 15 9 11 13 10 8 6 3 4 4 5 6 5 4 5 4 8 5 0 8 18 18 7 10 18 23 3 7 0 3
18 19 19 13 19 22 21 17 17 16 15 16 21 21 21 15 15 12 8 10 11 10 7 8 8 5 6 6 5 3 3 7 7 6 7 1 4 8 11 9 4 12 7 7 7 6 4
21 22 21 13 19 21 17 14 14 14 15 16 19 20 21 17 10 12 14 13 12 9 8 10 9 6 4 5 4 3 2 4 9 5 9 5 5 0 2 3 5 7 6 7 8 6 7

GFSGBSN_700_spd_096.txt.gz
Wind_Speed
44 45 46 46 45 45 45 45 46 47 48 48 46 45 42 41 42 40 40 38 38 39 40 43 44 41 39 39 26 29 34 29 27 27 25 24 24 25 27 27 23 29 30 29 29 28 30
43 43 44 44 45 46 46 47 46 48 49 49 51 51 49 43 44 38 41 38 39 43 40 42 43 41 40 44 31 29 29 23 25 26 28 30 29 27 28 27 28 27 22 21 23 25 26
41 43 43 43 44 43 45 47 47 48 47 50 52 54 52 46 48 47 45 47 42 43 45 42 42 46 49 39 33 37 30 28 23 25 25 25 26 26 22 21 25 26 28 28 27 24 26
41 42 42 43 43 40 41 43 43 44 46 47 51 52 51 50 52 49 45 45 43 45 43 43 43 47 53 40 37 35 33 28 26 25 22 22 24 25 24 21 20 19 21 24 20 17 15
42 41 41 43 44 42 40 40 40 40 41 46 48 51 52 52 57 51 47 45 38 39 39 48 44 47 51 35 29 30 35 29 25 22 22 24 25 27 25 24 26 23 25 23 23 21 19
42 41 42 45 45 46 45 44 43 41 40 42 46 47 49 49 48 46 46 43 38 44 38 41 40 35 34 31 27 22 17 21 28 25 25 27 27 30 28 28 22 15 16 17 17 15 20
44 44 43 45 47 46 45 45 45 43 42 41 42 44 44 44 43 43 46 52 40 41 39 39 34 19 27 25 21 19 18 20 25 27 31 31 32 34 28 29 28 25 26 26 22 12 22
46 45 42 43 46 45 43 41 43 43 41 41 39 37 39 40 40 40 42 37 40 44 41 38 31 42 36 27 20 19 21 23 26 26 25 27 34 28 23 18 17 17 19 20 15 8 19
45 43 39 36 40 39 41 41 38 38 40 37 37 36 37 39 38 41 36 33 33 34 35 37 36 38 40 35 32 25 25 24 24 23 26 29 3 17 27 20 18 17 16 15 16 15 18
41 40 39 34 35 35 35 37 37 37 39 36 34 35 35 37 37 41 40 34 29 32 16 33 29 30 36 34 42 28 25 26 28 26 24 23 26 27 15 15 16 18 12 13 14 15 9
38 40 39 37 29 28 27 31 32 31 32 40 34 36 49 41 43 46 39 32 32 19 4 7 14 18 17 38 28 33 26 24 28 25 21 20 12 13 24 22 17 16 8 9 11 14 15
34 35 36 33 31 26 21 22 20 30 34 39 40 44 47 46 43 38 30 26 21 8 9 6 9 14 21 28 27 14 32 25 17 16 15 20 8 7 5 8 10 9 11 15 14 13 5
30 29 30 30 29 27 22 17 19 36 42 39 34 32 37 36 27 26 23 20 11 7 1 5 11 14 18 26 23 24 30 25 15 12 19 16 14 12 13 12 10 11 11 2 3 1 5
26 23 25 25 24 23 18 14 17 22 21 22 23 23 25 26 24 24 22 27 9 3 11 4 8 14 17 28 19 28 29 27 23 13 11 11 4 12 9 10 8 6 10 6 5 3 4
23 22 21 19 20 21 21 21 23 24 24 22 20 20 19 18 20 18 24 23 11 4 6 9 11 22 14 21 17 21 22 21 16 14 11 9 6 9 5 5 5 4 6 7 8 13 5
23 21 20 18 18 17 18 19 20 18 19 19 17 14 13 13 14 19 29 16 14 6 6 10 5 8 10 16 17 17 15 12 12 11 13 7 3 8 5 5 4 5 5 3 2 2 5
25 23 21 19 18 18 17 17 16 16 15 16 16 16 17 22 26 21 25 19 8 14 8 8 7 4 10 16 16 19 9 10 11 9 9 7 7 6 9 3 9 11 9 8 4 4 3
23 24 22 20 18 18 17 18 18 19 18 18 17 13 15 17 16 18 16 16 10 7 18 2 7 3 5 11 12 10 11 9 11 12 6 7 4 5 6 11 12 11 5 7 6 3 4
24 21 21 19 18 16 15 16 15 15 18 21 20 14 20 21 17 18 15 14 14 7 5 8 8 6 9 8 2 6 11 11 9 8 4 3 3 6 4 5 6 3 6 3 5 7 12
30 22 21 18 15 14 14 15 18 22 24 24 19 16 24 22 16 19 19 12 13 8 7 7 4 6 9 11 16 15 13 11 9 7 6 5 3 4 5 4 8 11 11 10 10 8 15
27 25 22 19 16 16 18 22 30 27 25 21 16 11 19 23 19 21 19 17 14 10 8 10 12 13 14 14 14 13 14 12 8 7 8 7 3 5 8 10 13 14 14 14 20 27 20
25 22 19 18 17 18 22 33 26 22 25 23 15 13 20 17 22 19 18 13 15 15 14 14 11 12 11 11 12 13 13 12 11 10 9 9 6 10 14 15 15 19 21 23 22 20 28
19 17 16 16 19 21 30 24 26 27 26 22 16 18 20 17 16 17 19 17 14 11 8 8 9 9 9 8 9 9 10 11 11 10 9 10 8 6 3 3 12 16 16 13 16 26 31
17 15 18 19 25 19 24 25 25 22 21 23 13 13 16 19 21 19 17 14 12 10 7 10 8 6 5 4 4 3 3 4 4 3 6 8 7 6 5 8 1 5 6 17 22 29 17
15 17 20 23 24 20 21 23 22 23 21 21 14 16 17 17 19 16 14 13 12 9 6 7 6 5 3 3 9 7 6 7 5 3 2 4 8 5 3 2 13 19 16 12 21 25 14
14 16 22 23 25 20 24 22 20 23 23 19 17 18 16 13 16 17 15 10 9 9 8 8 6 6 7 7 8 4 2 3 3 1 3 5 9 11 5 2 4 7 9 21 25 14 9
15 18 19 18 20 24 23 23 23 18 21 18 18 16 12 14 18 16 12 10 8 9 8 8 8 8 8 9 9 5 4 3 2 2 2 1 5 13 14 5 7 12 19 18 3 6 8
14 19 20 18 19 22 24 20 19 17 17 17 18 17 16 14 16 12 7 8 10 10 7 10 9 7 6 5 5 5 4 3 2 3 1 2 4 5 5 5 5 12 10 2 3 8 6
16 20 21 16 20 20 19 18 18 18 17 17 18 19 18 14 16 12 12 13 13 10 10 9 8 6 4 4 5 4 5 4 5 2 4 1 2 2 3 2 7 8 7 6 5 6 5

GFSGBSN_700_spd_099.txt.gz
Wind_Speed
41 41 42 42 42 43 43 43 43 43 41 41 42 42 45 45 45 45 42 41 40 40 41 41 42 40 43 43 34 31 34 34 31 30 29 29 28 26 26 26 25 28 27 27 27 27 27
40 40 40 41 41 42 43 43 43 43 44 42 41 43 44 46 46 47 50 48 41 41 45 45 43 42 44 50 33 29 31 31 30 27 26 29 31 30 33 33 31 30 28 26 23 22 23
38 39 39 39 41 42 43 43 42 42 43 42 41 40 44 46 48 49 51 48 42 41 47 45 48 55 52 51 39 38 38 33 33 30 29 26 28 31 31 28 29 28 29 28 28 21 24
39 39 38 39 41 42 44 44 41 41 42 41 39 38 40 43 47 48 49 46 43 47 47 49 51 52 59 50 42 41 40 41 34 31 29 26 29 29 29 26 20 19 22 21 15 12 11
39 40 39 39 40 42 44 44 43 41 40 39 37 37 38 40 43 45 47 46 45 51 43 50 50 47 52 50 45 44 45 44 36 34 30 30 29 28 27 25 23 25 18 16 15 16 19
41 42 41 40 41 42 45 45 44 43 42 40 39 38 39 39 39 40 43 42 42 41 45 51 43 44 39 40 29 22 26 18 36 34 33 33 31 32 30 27 22 18 24 20 14 9 12
44 44 43 41 42 43 46 45 44 43 41 41 40 40 40 40 38 36 36 36 38 42 44 45 40 44 42 41 39 21 22 25 29 34 40 36 39 43 38 30 29 17 18 22 23 17 23
44 45 44 43 42 43 45 43 41 39 38 39 38 40 40 39 35 34 34 39 35 39 43 49 49 54 49 38 32 26 27 23 31 40 38 37 45 40 31 25 26 25 25 25 19 10 15
45 45 44 42 39 40 41 40 38 37 36 35 36 37 38 37 34 29 41 32 34 38 39 50 50 48 45 41 50 43 34 25 26 33 35 39 20 26 32 28 23 19 19 17 12 11 16
43 44 43 41 38 37 38 37 36 34 33 34 33 35 37 39 32 36 38 32 37 33 22 45 41 39 39 43 47 42 40 40 28 27 27 22 29 8 17 29 24 21 20 12 12 10 5
42 42 43 42 39 36 35 32 30 30 31 32 33 33 32 36 32 39 37 36 36 31 4 13 16 21 17 23 27 18 44 34 36 28 24 25 15 25 32 28 16 22 13 10 9 12 12
39 39 39 40 37 35 28 26 25 25 26 27 26 31 35 35 38 44 45 31 31 13 7 8 9 11 15 18 16 5 36 31 27 28 33 27 20 11 6 11 26 13 12 9 10 10 7
39 37 35 36 36 31 26 21 20 18 16 22 28 35 41 40 40 39 34 31 15 8 7 5 12 13 12 14 24 11 40 32 21 21 21 16 21 13 14 9 11 17 13 5 4 5 5
35 36 32 32 30 25 21 17 13 10 15 26 34 25 18 18 21 21 23 23 8 6 8 6 6 11 14 13 19 18 29 28 25 14 15 14 6 16 14 14 14 18 21 8 5 5 2
28 32 29 28 25 22 18 18 16 16 20 22 22 21 21 20 21 21 22 16 9 8 7 7 7 10 9 21 14 20 23 22 20 16 5 12 5 12 12 12 14 12 12 14 5 5 4
29 28 28 25 23 21 19 20 22 21 22 24 22 19 16 14 15 17 22 14 11 5 3 7 7 8 8 20 14 18 19 17 17 19 17 8 6 10 10 9 8 9 11 4 4 4 7
27 27 28 25 23 22 20 19 18 17 17 18 17 15 14 15 16 21 25 17 14 11 3 2 7 6 5 8 12 9 9 11 16 12 13 7 6 5 8 8 10 7 6 6 5 3 3
32 26 26 25 24 24 22 21 20 18 17 17 17 15 17 18 19 22 21 21 12 3 7 2 1 13 3 8 11 16 11 10 10 10 12 14 8 8 7 10 12 14 12 13 6 5 3
32 26 23 24 25 24 21 21 22 21 21 20 20 17 16 26 26 22 16 17 10 5 9 12 5 8 8 8 4 15 19 14 15 11 9 11 7 5 2 4 7 5 9 10 9 6 6
32 28 28 23 23 23 20 20 19 19 19 21 20 13 19 23 19 19 18 13 13 11 8 4 6 13 9 5 3 11 13 12 11 10 8 6 11 7 6 4 9 8 11 8 8 5 8
38 42 28 24 21 17 16 17 18 19 24 22 17 10 17 20 20 19 20 8 13 10 5 10 7 5 8 8 7 7 10 12 11 8 7 5 7 10 11 11 12 13 15 14 13 13 13
42 22 30 21 22 19 19 23 24 27 24 23 13 11 19 6 16 17 17 15 17 12 12 11 9 15 13 12 14 13 13 13 9 8 7 6 6 7 9 9 12 16 15 16 17 20 24
33 26 18 18 22 21 22 26 30 27 29 24 14 14 16 9 18 16 18 17 15 13 11 9 10 11 12 11 12 9 11 11 9 9 8 7 6 5 3 3 4 10 10 10 10 9 16
23 15 13 18 19 22 22 29 32 26 26 25 19 15 17 13 21 15 16 12 12 14 9 11 11 10 9 9 8 7 7 8 7 6 6 4 4 2 2 3 3 2 4 5 11 10 16
17 14 16 18 22 24 23 31 23 29 23 25 19 16 13 17 14 15 14 15 14 10 8 10 9 8 9 8 11 9 10 11 8 5 5 4 6 3 1 2 6 7 11 8 14 18 22
16 16 17 21 24 18 24 25 26 28 21 18 16 13 12 10 17 16 13 11 10 11 10 11 10 9 9 12 10 5 4 6 5 4 3 5 6 6 4 2 2 5 5 15 16 11 8
17 19 19 22 27 20 23 24 24 23 25 18 11 16 14 10 16 17 15 13 10 10 10 12 11 9 11 11 8 5 4 7 5 5 3 1 3 5 6 3 5 8 14 15 2 7 15
19 18 19 19 27 24 26 21 23 22 19 18 16 18 15 10 21 18 11 9 8 9 11 13 13 8 12 9 6 5 6 5 5 5 4 2 3 2 3 4 3 10 10 3 5 9 9
21 17 22 17 21 21 23 23 19 16 18 20 20 18 16 10 20 14 10 13 12 9 11 13 9 10 8 7 6 5 7 5 8 3 3 1 3 3 5 3 3 8 7 7 5 5 4

GFSGBSN_700_spd_102.txt.gz
Wind_Speed
40 39 38 38 39 38 38 37 38 38 37 38 38 38 39 41 42 44 44 44 42 41 40 42 43 42 40 43 43 37 35 35 33 31 30 29 29 28 29 24 25 32 29 29 28 29 27
39 39 38 37 37 38 38 38 38 38 39 38 39 39 38 39 41 44 45 44 44 43 44 47 45 46 46 52 44 35 33 28 27 26 27 28 28 32 30 31 31 19 26 27 26 27 25
39 37 38 37 36 37 37 37 39 40 40 38 39 40 39 37 39 41 43 44 43 42 46 48 49 50 54 53 42 44 42 43 40 37 32 31 33 33 28 25 33 34 30 23 24 26 22
38 37 37 37 36 36 38 39 41 41 40 39 37 39 39 35 37 39 39 41 41 41 44 48 49 51 59 56 49 45 42 43 40 37 38 37 36 34 27 22 24 23 20 21 14 15 18
37 37 37 37 36 36 39 41 41 41 40 39 37 37 38 36 37 39 36 36 38 40 41 45 46 50 59 54 45 38 30 29 40 45 43 41 38 35 24 25 24 23 25 21 18 11 12
39 39 39 39 38 38 40 41 41 42 40 39 39 38 37 37 38 39 37 36 38 36 40 41 43 44 45 41 36 30 29 29 28 30 38 40 35 27 28 28 34 25 26 23 21 14 16
41 41 42 41 41 41 42 42 42 41 41 40 39 39 38 37 39 39 37 35 35 38 40 40 38 42 39 42 39 43 37 32 37 43 35 39 32 43 34 31 30 19 20 18 15 15 15
43 43 43 42 41 41 40 40 39 39 38 38 38 37 37 38 39 37 38 36 39 40 37 39 38 44 44 47 47 44 43 37 36 35 27 27 41 34 27 28 28 28 25 26 22 21 19
45 45 44 43 42 40 38 38 37 38 36 36 36 36 36 37 37 37 36 33 39 29 28 40 41 42 44 44 44 42 38 36 36 30 27 30 28 22 30 29 27 28 29 23 20 11 14
46 45 43 43 41 39 37 37 38 37 37 37 36 36 36 36 34 37 37 33 28 30 16 32 45 36 30 34 39 36 47 32 35 38 33 33 39 33 22 29 28 31 23 19 15 13 15
44 42 41 41 40 37 36 36 37 37 37 36 35 35 33 33 36 34 32 30 25 25 7 12 22 22 21 18 17 14 9 40 33 18 28 28 21 30 25 17 21 25 16 16 16 17 17
45 41 40 41 40 36 34 34 33 33 32 33 32 29 26 24 23 23 27 27 30 16 10 10 14 12 12 13 16 13 13 24 31 25 25 25 15 20 17 19 25 15 11 12 14 15 17
44 40 39 39 39 37 35 33 31 29 29 29 27 23 25 24 29 25 27 33 17 10 7 8 9 13 13 10 14 11 16 30 24 14 17 13 17 15 13 12 14 28 17 8 10 10 13
32 29 29 36 35 34 33 31 28 26 24 23 18 20 29 33 37 32 24 23 13 6 13 11 7 9 11 9 12 16 18 25 21 13 8 13 9 21 15 18 14 28 28 16 10 11 11
30 28 24 30 30 29 29 26 24 19 14 11 20 28 26 19 18 20 18 19 9 12 12 10 9 9 12 12 8 17 20 23 19 14 12 18 12 19 18 19 18 21 30 26 14 8 7
32 29 29 30 30 28 27 25 22 18 18 22 23 23 23 20 19 19 20 15 14 11 10 5 13 10 10 13 11 15 19 17 15 23 13 6 7 12 12 16 20 12 18 12 15 12 15
36 33 32 31 29 28 25 22 21 19 20 21 23 21 20 18 16 19 19 11 14 14 10 4 10 10 14 4 11 13 16 13 20 25 16 10 9 9 11 6 6 8 10 9 6 8 7
40 37 33 39 30 28 26 24 23 23 21 20 19 19 18 17 23 27 18 13 16 10 12 6 8 13 12 6 9 13 11 10 23 21 16 14 9 7 6 9 11 11 6 6 10 10 8
43 42 30 29 24 25 27 26 25 23 21 19 22 18 21 26 28 23 17 13 15 6 10 10 7 14 7 11 4 11 10 13 15 15 14 10 5 4 4 9 14 7 13 16 15 13 13
43 46 37 30 24 22 27 26 24 25 24 23 21 18 28 30 30 21 17 15 14 15 11 9 8 15 11 10 6 11 14 12 16 16 11 12 13 9 7 3 6 6 9 8 10 6 8
43 41 42 30 26 21 22 26 24 26 28 26 25 15 24 34 34 23 17 13 17 11 12 10 7 8 15 8 7 11 18 20 18 15 14 14 7 11 5 7 7 6 8 10 13 14 10
37 45 40 31 24 21 18 20 20 23 27 29 23 13 22 9 23 23 20 15 17 13 11 11 7 5 6 9 7 14 17 15 10 14 12 10 6 10 7 7 7 11 12 13 16 17 19
35 41 36 34 26 23 18 20 22 28 31 28 20 16 22 9 20 20 20 12 15 14 12 10 7 8 12 11 9 10 14 13 8 10 11 8 7 6 3 2 2 8 8 13 13 11 11
28 35 27 34 28 25 21 22 24 31 33 26 18 22 20 11 20 18 15 13 15 13 9 7 10 12 12 12 10 9 9 10 10 9 8 6 9 6 4 3 4 2 4 5 8 11 18
34 33 32 30 27 22 20 24 26 35 34 22 22 19 17 14 16 17 14 16 12 12 13 12 12 12 11 11 9 7 6 6 6 8 9 10 7 4 4 7 1 5 7 10 10 13 22
27 25 23 22 19 22 22 25 30 33 34 24 20 23 15 15 18 15 13 10 14 15 12 13 12 11 13 15 10 7 6 7 7 5 7 8 7 4 4 3 4 7 7 10 12 12 16
23 22 22 19 17 19 20 33 33 30 32 20 25 19 14 13 14 16 16 16 14 14 12 14 13 11 12 15 9 6 4 8 7 8 6 7 5 7 7 4 3 5 7 10 5 5 13
23 22 18 18 22 18 27 32 30 30 18 21 18 20 17 12 13 18 15 14 11 12 11 13 13 12 13 11 7 5 6 6 6 10 8 6 7 5 5 4 2 5 7 4 8 9 10
23 23 21 21 25 22 22 23 21 22 26 16 16 18 16 11 20 17 13 11 10 10 11 15 9 13 12 9 6 6 6 7 9 4 9 4 8 5 5 3 4 5 3 2 3 3 3

GFSGBSN_700_spd_105.txt.gz
Wind_Speed
43 41 40 39 38 38 38 37 37 36 35 34 35 33 33 34 35 36 37 38 40 40 41 42 43 44 42 44 44 35 37 37 34 31 26 29 25 20 25 21 21 32 31 28 25 27 27
41 40 40 39 39 37 37 37 37 37 35 35 35 34 34 34 35 36 37 37 38 40 39 42 44 45 46 50 40 35 33 32 28 27 27 26 25 21 27 29 29 28 21 29 29 29 26
40 39 39 38 38 38 36 36 37 37 36 36 36 36 35 36 35 34 36 36 36 37 37 41 43 46 53 53 42 45 40 40 38 38 38 37 35 29 23 24 25 31 39 34 35 29 31
39 38 38 38 36 38 36 36 38 38 37 37 38 37 37 35 36 33 35 34 33 35 37 39 41 44 54 49 44 42 40 42 35 37 39 36 36 39 33 30 35 34 30 37 30 30 31
38 38 39 37 38 38 37 37 39 39 39 38 39 38 37 34 33 35 34 33 35 37 38 39 39 40 47 46 33 30 25 22 22 23 28 33 34 35 35 29 33 33 38 33 28 25 24
39 39 39 40 39 38 38 39 40 40 40 39 38 37 36 33 33 36 35 34 37 40 41 39 37 37 31 25 18 13 16 18 22 22 28 28 25 30 35 31 37 31 37 36 34 27 24
41 41 42 42 40 40 40 41 41 40 40 38 38 37 34 33 35 35 34 36 39 42 44 37 36 38 26 14 35 33 27 32 32 33 26 24 26 40 35 37 39 39 37 37 31 27 27
42 42 43 42 41 41 41 40 40 39 37 36 35 35 34 33 33 31 36 39 41 40 39 41 40 42 40 33 41 37 20 29 20 27 26 28 33 38 32 31 32 36 39 39 34 23 23
43 43 43 43 42 43 42 40 39 38 36 34 33 33 33 32 30 35 36 37 38 34 31 45 41 43 38 33 43 41 26 30 25 28 28 36 39 22 30 28 28 29 35 36 33 26 27
44 45 45 44 43 42 41 41 40 39 36 34 34 33 32 30 33 35 37 37 32 21 13 39 27 38 33 32 33 27 19 32 31 32 28 32 37 35 22 28 32 32 26 30 31 28 29
50 47 48 46 45 44 41 40 37 34 33 33 33 32 30 30 33 33 35 27 26 15 6 15 17 30 28 24 12 7 10 23 32 28 25 34 25 31 41 40 20 28 23 25 31 30 28
49 49 48 47 47 45 42 40 35 33 31 30 30 30 29 30 30 28 23 23 15 10 10 13 15 22 20 19 16 10 6 17 26 31 31 29 21 16 31 29 29 18 14 20 22 27 23
48 47 47 47 46 46 42 39 35 31 30 29 28 29 31 28 25 20 17 16 16 13 12 18 16 16 17 16 14 16 11 25 21 19 31 23 28 19 13 16 19 23 10 5 7 10 11
36 40 41 40 35 40 39 38 33 30 29 27 27 28 30 24 22 23 27 23 16 18 29 12 14 15 20 16 19 18 22 26 25 18 7 15 8 22 19 21 18 30 32 10 5 5 9
37 33 31 30 28 30 28 27 30 28 24 24 26 26 24 29 26 32 34 30 16 17 13 11 13 18 22 20 20 18 25 26 25 22 13 7 12 10 14 17 21 11 37 28 20 21 13
39 37 35 33 30 32 33 30 29 20 20 18 19 26 33 31 30 25 24 22 14 15 12 12 16 13 16 21 21 20 21 17 23 22 16 6 6 10 15 13 19 22 20 25 16 5 10
40 38 37 38 34 33 35 30 34 27 27 25 25 24 27 25 23 24 28 19 17 14 12 11 12 13 15 11 18 18 13 9 16 17 17 6 5 7 8 12 16 21 14 15 10 13 6
44 38 41 40 38 35 38 33 30 26 28 29 29 25 28 25 26 30 27 15 17 15 13 12 11 13 13 15 14 13 17 9 20 14 20 16 7 10 15 8 8 8 10 7 6 8 11
42 42 42 44 44 34 43 30 28 30 27 25 28 29 19 25 30 30 20 19 13 14 15 13 11 14 12 16 11 15 15 16 15 18 18 13 10 12 10 10 11 12 13 12 9 8 16
33 40 40 45 50 34 34 29 29 29 28 27 25 24 32 30 31 21 22 17 17 17 13 16 13 10 12 14 14 10 12 14 22 13 20 17 9 12 7 3 5 12 13 11 10 9 16
33 36 40 43 41 37 30 25 25 25 28 28 28 20 26 38 37 24 20 14 20 15 18 14 11 13 13 10 12 13 12 13 12 12 10 8 7 9 6 2 2 5 8 10 11 12 10
30 34 37 41 36 31 32 28 26 26 25 33 29 15 19 12 24 30 23 20 20 19 16 15 12 12 16 12 9 14 12 13 11 16 10 17 8 8 11 8 8 10 12 14 15 15 17
26 28 31 29 38 32 39 24 23 23 27 34 32 26 16 19 22 28 26 19 20 18 12 13 14 9 10 12 8 10 12 12 7 10 10 9 9 6 9 4 6 11 10 12 14 13 13
23 23 28 28 35 29 31 26 22 22 29 30 29 21 19 13 23 24 21 19 18 17 11 9 12 11 13 8 5 6 9 8 8 8 8 7 7 6 3 4 5 3 1 2 5 5 10
17 20 30 32 31 30 32 25 19 21 30 33 23 20 20 15 19 20 18 19 13 15 8 10 13 16 11 11 9 8 7 5 4 6 7 7 7 5 5 10 3 1 4 6 10 6 18
18 20 22 27 28 34 31 27 22 23 29 32 26 23 15 17 18 17 16 15 13 14 13 15 11 12 13 10 10 9 8 8 7 5 7 8 6 6 7 4 4 8 1 5 11 9 17
15 22 24 25 33 38 32 27 25 27 37 26 31 20 19 12 18 17 16 16 12 12 10 12 14 12 15 10 10 8 5 6 8 9 9 8 7 9 9 7 2 5 8 11 5 4 10
27 25 26 27 26 25 23 24 24 32 36 31 20 28 18 9 21 18 17 14 14 11 10 13 13 13 12 11 11 6 5 7 6 11 10 8 9 9 8 6 4 5 9 6 10 13 14
26 25 22 21 20 19 21 26 26 36 37 20 24 25 19 12 18 18 14 12 15 17 13 13 8 15 11 10 8 7 7 7 8 9 13 5 9 5 6 5 3 5 6 6 6 4 1

GFSGBSN_700_spd_108.txt.gz
Wind_Speed
44 43 44 42 41 40 39 37 37 35 36 36 34 34 33 32 32 31 34 32 34 35 35 35 33 35 36 41 40 30 37 31 30 28 25 24 23 20 22 20 21 26 28 31 33 34 33
42 42 42 40 38 38 37 36 35 35 35 35 34 32 33 33 31 32 35 31 32 35 36 37 35 35 39 47 35 35 38 38 32 33 28 25 25 23 27 29 29 29 33 35 35 29 31
40 39 39 39 38 36 36 35 34 34 35 35 33 33 32 33 32 34 33 32 33 35 37 37 34 35 44 45 34 30 32 37 34 31 29 25 22 24 24 26 24 26 32 31 33 33 41
38 36 37 38 36 35 36 35 34 35 36 35 35 34 33 33 32 32 34 33 31 35 38 37 34 37 50 42 40 36 28 25 23 23 26 28 28 29 28 28 33 34 35 43 43 34 33
36 36 37 36 36 36 36 36 35 36 36 36 36 35 34 34 33 33 32 33 34 35 37 37 35 39 45 39 34 31 23 20 19 20 20 22 25 29 28 26 32 27 39 38 48 33 34
38 38 38 38 38 37 37 37 36 36 38 36 38 35 36 35 35 34 32 33 35 36 38 38 34 38 27 23 19 32 24 20 20 19 21 22 25 29 24 22 36 34 36 40 43 37 35
39 39 40 39 39 38 38 37 38 38 38 38 37 35 36 36 33 33 31 34 37 38 41 37 35 39 32 28 28 19 14 20 18 19 20 18 23 30 25 28 33 37 40 44 45 40 38
40 40 41 41 41 40 39 39 39 38 38 36 35 34 33 33 31 31 34 35 37 37 39 39 39 40 38 32 41 36 27 20 19 21 19 22 39 30 29 30 33 34 37 38 36 34 34
40 40 41 42 41 40 40 40 40 39 37 35 33 32 31 29 29 34 32 33 33 31 34 43 43 43 37 35 39 36 25 26 27 27 24 31 32 27 33 30 29 34 35 35 34 31 35
43 42 43 43 42 41 40 40 39 37 36 34 32 31 30 29 33 32 34 32 29 20 15 41 25 31 21 23 33 31 25 29 32 36 28 30 30 30 31 34 24 30 29 34 31 24 22
46 47 46 46 45 44 44 42 40 38 36 33 30 29 29 29 34 31 30 27 19 12 5 12 13 25 13 19 11 8 9 16 29 31 25 36 19 22 28 31 28 33 26 23 27 25 22
47 48 47 47 47 46 46 45 42 40 37 33 29 28 28 31 29 29 26 17 18 11 11 10 15 17 22 20 21 13 11 10 20 24 28 35 34 33 25 21 24 28 29 21 18 19 13
49 49 48 48 48 47 45 45 42 40 38 34 30 29 30 28 27 23 16 21 21 13 13 20 22 15 16 19 19 20 18 15 15 13 24 27 35 38 35 22 17 20 20 5 8 8 11
49 48 48 49 47 46 46 45 43 39 37 32 31 30 29 26 26 19 23 32 13 22 32 9 10 24 23 18 20 20 21 25 23 19 17 15 13 24 27 26 18 22 24 7 5 4 6
46 40 37 36 35 39 41 40 36 37 33 31 28 27 29 26 22 21 38 38 25 26 19 22 24 19 26 22 21 21 28 28 27 29 15 10 14 10 12 14 23 14 26 23 22 24 8
39 35 38 37 35 32 30 29 28 24 24 27 26 28 28 28 31 30 43 43 27 24 22 18 21 19 19 22 22 21 28 17 27 28 24 10 9 6 15 15 21 19 8 11 16 4 4
41 42 42 40 38 36 35 32 32 26 22 19 18 26 30 34 37 35 40 36 35 28 25 16 17 17 18 19 19 15 11 17 13 24 24 26 9 5 7 17 18 21 24 10 9 13 4
38 40 46 42 38 38 39 36 32 30 27 32 25 28 32 33 30 37 40 26 29 17 19 15 17 15 17 15 19 17 13 12 13 15 20 19 8 11 15 15 13 13 11 14 8 4 3
34 35 37 43 43 40 40 42 32 32 30 31 32 31 28 31 37 40 35 32 14 17 17 16 15 15 16 16 12 15 15 16 20 18 15 18 8 13 6 10 10 16 17 12 9 7 8
32 34 35 36 39 41 44 45 30 35 26 30 32 32 32 31 38 34 30 25 22 15 17 18 15 16 15 15 17 8 14 14 17 14 21 20 14 14 10 6 3 18 15 13 9 5 9
31 32 34 34 38 43 46 44 43 33 30 32 37 16 35 36 39 35 22 17 24 21 20 16 16 18 16 16 17 19 13 12 16 21 21 20 13 13 11 6 2 3 7 9 12 13 13
32 32 32 32 33 39 40 39 36 32 30 33 38 14 17 19 19 34 25 26 20 23 16 22 20 15 17 16 15 12 17 13 11 16 13 13 5 10 13 12 9 9 9 10 12 14 15
33 32 30 29 30 35 31 33 33 28 32 39 33 29 10 16 19 23 37 24 22 18 21 19 19 16 14 19 14 6 11 14 6 13 13 9 10 7 12 11 5 9 12 11 11 10 11
27 27 27 27 26 26 27 31 33 32 31 28 27 30 31 22 21 26 23 26 22 18 22 15 16 17 11 16 12 10 8 8 8 8 10 10 9 7 3 5 4 5 8 8 11 7 9
21 22 23 24 23 26 25 35 35 29 26 27 26 31 32 23 21 22 25 25 20 20 20 12 19 19 15 10 11 8 6 5 6 9 9 9 10 6 6 11 6 6 5 7 8 12 15
18 22 26 27 29 25 30 30 34 29 25 26 29 25 23 19 20 16 22 25 23 19 18 17 14 13 14 13 10 7 8 10 9 7 10 10 11 10 9 6 6 10 4 5 5 6 15
17 24 21 29 30 24 25 29 28 21 19 31 28 28 22 8 14 22 22 22 19 20 14 18 16 17 19 13 10 8 7 9 11 12 13 11 10 12 11 8 3 7 7 7 4 7 8
18 20 24 29 29 26 25 31 26 20 20 29 28 26 18 4 14 15 24 19 18 14 16 15 17 13 17 13 11 6 3 7 8 11 11 11 9 10 11 12 6 8 7 6 11 13 16
20 23 23 24 26 34 32 33 30 22 24 33 25 29 14 6 19 14 16 16 17 12 11 11 9 15 12 11 8 7 6 8 7 8 14 9 9 7 7 6 5 5 8 8 9 8 4

GFSGBSN_700_spd_111.txt.gz
Wind_Speed
42 41 43 42 42 41 40 40 39 37 35 34 33 32 32 31 31 31 30 31 30 32 31 29 32 30 32 34 27 26 24 21 21 21 22 24 24 22 24 20 17 22 25 28 30 32 32
42 43 42 42 42 41 39 37 36 34 33 32 32 30 30 30 30 30 30 29 30 31 32 29 34 34 35 38 30 26 30 26 23 22 20 21 22 20 26 26 26 30 32 35 35 36 36
40 40 39 39 38 37 36 34 33 33 32 31 31 30 29 29 30 30 31 29 31 32 32 30 32 37 42 33 32 27 30 30 27 26 19 18 19 19 24 26 25 26 32 35 34 28 25
39 38 37 36 37 36 35 32 32 31 31 31 30 31 29 29 30 30 31 29 31 34 34 33 34 39 48 37 36 24 19 16 16 15 18 17 18 23 25 27 32 34 36 44 43 34 35
37 36 35 35 36 34 35 31 31 30 32 31 31 30 30 30 31 30 31 30 31 32 34 34 37 39 44 31 28 25 17 12 16 16 16 16 18 23 22 23 30 28 37 36 52 28 28
37 36 35 35 35 34 33 32 32 32 32 32 31 31 31 30 30 32 31 31 32 35 37 36 36 38 21 20 30 33 23 10 12 16 16 19 21 24 23 19 28 30 25 32 42 35 34
38 37 36 35 35 34 34 34 33 33 32 31 32 32 32 31 32 34 29 33 32 36 38 36 37 39 34 31 32 19 17 22 23 19 18 17 22 28 27 23 23 28 32 37 44 39 35
39 38 37 37 36 36 35 35 35 35 34 33 33 32 32 31 31 32 30 28 31 32 40 39 37 42 32 27 30 23 18 19 22 23 15 16 30 25 25 27 28 30 35 40 45 40 29
39 38 38 38 37 36 36 36 36 35 34 33 32 32 30 30 31 33 28 28 28 26 35 46 40 41 34 29 36 37 32 31 29 25 23 25 25 9 21 27 27 33 34 35 36 35 40
41 39 38 38 38 37 36 36 37 35 34 32 31 30 28 29 34 31 31 25 24 22 18 40 34 33 22 23 28 17 25 24 28 32 28 28 28 27 25 29 24 34 27 30 32 30 25
43 42 42 41 40 40 39 39 38 37 35 33 30 27 27 26 31 27 25 22 13 9 3 12 10 12 10 13 5 9 8 13 22 24 28 39 27 21 22 25 22 25 23 23 26 32 30
43 42 42 41 42 41 41 39 40 40 38 35 32 28 27 29 28 23 22 18 12 9 12 9 12 14 15 16 11 6 11 12 14 21 24 32 31 32 35 33 30 27 28 31 31 22 13
46 45 44 43 44 44 43 42 41 40 39 35 32 29 29 28 28 22 18 14 19 12 10 15 15 19 20 19 19 22 17 15 16 15 20 26 33 40 36 36 34 25 18 4 4 5 6
50 49 48 46 46 45 46 44 42 41 39 37 33 30 30 28 26 23 20 26 13 25 35 15 7 19 24 19 18 20 22 29 26 21 13 9 8 13 23 26 16 20 17 9 5 2 5
50 50 48 46 44 44 44 43 41 39 37 36 31 30 29 28 28 23 25 37 32 33 23 33 26 28 23 19 22 19 29 29 24 29 24 10 11 11 15 11 17 11 20 15 14 22 9
46 45 44 41 36 34 34 35 34 34 31 27 27 28 30 30 28 31 30 41 41 33 27 21 17 16 27 27 21 19 22 11 19 31 33 24 15 17 11 10 14 21 4 8 8 3 4
36 37 34 40 33 33 33 31 27 25 22 20 18 27 30 25 32 34 39 46 42 35 21 26 28 24 27 20 18 18 14 17 21 16 26 30 21 6 9 18 19 21 26 13 8 8 2
34 33 37 36 39 38 36 35 30 29 27 27 23 23 33 38 35 47 45 44 38 39 38 30 23 20 26 16 21 17 22 18 14 18 30 30 19 12 15 10 11 15 23 25 10 4 3
31 33 34 35 38 42 40 35 33 34 35 31 34 32 28 31 40 47 44 46 29 24 30 35 28 24 20 20 13 18 17 20 18 23 17 27 12 6 4 15 18 22 15 16 15 8 6
33 33 33 32 33 36 41 40 35 35 39 35 34 30 33 28 40 38 41 43 33 31 22 22 18 20 19 21 22 10 16 18 14 22 15 12 11 12 6 6 3 9 20 19 15 11 7
32 32 31 30 30 31 32 37 40 40 40 36 41 33 33 27 40 36 37 36 39 27 25 18 21 21 25 22 19 21 19 19 17 25 28 21 15 16 10 9 3 9 4 15 16 13 9
33 32 31 29 29 30 31 32 39 38 35 33 37 31 33 28 28 31 36 30 28 28 21 25 26 26 23 22 21 17 24 22 16 19 24 27 14 18 20 12 10 9 9 7 8 7 8
33 33 32 32 30 30 30 30 35 35 37 34 37 31 28 21 33 28 34 34 30 22 23 22 25 22 23 23 22 22 14 19 13 14 21 17 16 10 6 15 10 8 13 13 11 8 10
34 33 33 33 32 29 29 29 30 24 29 30 37 34 35 35 20 23 19 26 32 22 25 28 25 29 26 23 22 13 9 15 10 11 16 18 12 10 4 13 5 7 14 14 16 11 9
29 30 29 29 31 28 25 25 28 27 31 35 30 28 31 30 23 15 17 19 23 28 21 22 19 26 19 19 19 14 12 12 10 11 6 11 13 7 5 10 7 6 10 10 11 15 16
22 22 22 23 25 26 26 26 28 28 30 30 28 23 21 26 25 24 22 22 26 29 21 22 25 19 19 16 14 8 8 9 8 7 12 15 16 11 11 3 5 10 12 7 5 13 11
16 17 23 23 24 28 27 25 24 27 28 31 27 24 18 20 21 23 28 29 31 30 20 25 27 27 23 19 15 9 7 14 11 15 20 17 17 17 15 8 4 15 15 11 6 9 7
19 19 20 25 29 30 28 24 26 29 28 27 21 23 27 19 11 16 24 24 25 31 31 27 25 22 26 21 13 7 8 7 12 14 19 18 15 12 14 7 6 13 8 7 8 11 14
23 25 24 25 27 31 28 26 33 31 25 21 30 20 24 13 6 12 20 19 27 26 22 21 12 22 21 17 10 8 5 8 15 13 15 13 13 13 11 12 7 8 7 9 9 7 5

GFSGBSN_700_spd_114.txt.gz
Wind_Speed
40 40 39 44 39 43 43 42 42 39 38 37 36 34 32 31 30 29 28 29 28 29 27 30 29 28 29 24 13 22 21 20 19 20 20 19 19 21 23 23 24 29 29 27 27 28 30
43 42 40 42 43 43 41 42 41 39 36 36 35 32 30 30 29 28 28 28 28 28 29 29 32 31 30 27 22 23 21 21 21 21 21 19 19 20 26 25 25 29 31 31 30 30 31
41 41 40 39 39 39 38 37 37 37 36 34 32 30 28 28 28 27 28 29 28 28 28 29 32 34 34 24 25 25 30 25 23 19 16 16 16 20 22 23 20 22 31 31 28 26 28
40 40 39 37 38 37 36 35 34 34 32 31 30 28 27 28 28 27 28 30 28 28 29 30 32 35 36 31 33 29 24 16 13 12 11 13 14 18 21 21 23 27 30 33 18 25 19
39 38 38 36 37 37 35 34 32 31 31 30 29 26 27 27 27 28 26 29 28 29 29 32 33 35 36 23 25 24 13 12 16 14 11 12 17 19 19 19 24 21 27 33 25 13 9
38 37 36 35 35 34 34 33 31 30 29 29 28 27 27 26 28 27 27 29 28 30 31 32 35 34 22 17 21 30 27 20 14 12 13 14 20 24 21 21 22 22 26 31 27 27 21
38 37 36 36 35 35 33 32 31 29 28 28 28 26 26 28 28 28 27 28 28 30 34 33 36 36 34 30 33 29 20 19 19 17 16 14 22 31 20 19 20 19 22 30 31 26 34
39 38 37 36 36 34 33 32 31 30 29 27 27 26 27 28 28 29 26 25 25 28 37 36 35 39 30 28 32 29 23 24 21 21 15 19 31 23 19 17 20 21 28 35 41 34 31
40 39 38 37 36 35 35 34 33 31 30 29 28 28 27 27 29 30 26 20 22 24 34 45 37 42 36 30 36 37 33 30 27 22 24 26 15 6 14 16 21 26 29 33 33 36 35
40 40 38 38 37 35 35 34 33 32 31 28 27 27 27 26 32 27 23 19 19 21 22 37 33 31 27 22 30 24 33 34 31 30 28 23 23 23 21 24 21 31 26 23 25 26 25
43 43 41 39 38 37 36 35 34 32 30 27 25 25 24 26 29 23 16 17 15 11 4 13 9 9 11 6 9 8 11 31 33 33 26 21 13 8 18 21 25 27 26 27 26 26 30
45 44 43 41 40 39 38 37 36 35 33 30 27 27 28 28 28 20 19 15 11 9 10 6 11 14 13 13 14 13 11 14 13 21 28 33 29 28 26 25 29 31 27 28 27 18 9
45 45 43 41 40 39 38 37 36 35 33 30 29 29 30 28 28 23 21 14 14 11 11 13 19 18 16 16 18 15 17 18 18 17 25 24 28 29 30 27 29 29 21 6 4 4 7
45 48 46 44 43 42 40 39 38 37 36 34 32 31 30 29 27 27 22 24 12 27 35 11 10 15 20 20 19 21 21 20 22 21 17 12 10 12 17 23 27 17 11 8 6 3 4
36 38 47 46 44 43 42 41 39 38 36 35 33 30 30 29 30 27 28 36 31 34 25 31 29 21 20 20 21 20 26 25 24 29 23 9 12 14 19 14 15 11 17 18 12 18 7
45 43 44 47 45 42 41 41 40 38 35 35 32 30 31 30 30 28 35 39 43 43 23 13 12 13 25 29 21 20 25 16 29 29 25 22 22 19 14 13 14 18 5 7 7 4 4
37 37 37 39 41 39 37 37 34 31 29 29 28 28 33 31 30 31 36 43 48 45 34 34 30 21 19 20 18 23 21 26 18 17 24 31 28 16 17 24 22 20 18 10 7 6 2
36 35 35 35 34 26 32 32 30 28 26 25 21 25 28 30 34 44 47 48 46 37 43 36 29 35 29 30 22 23 20 23 18 21 21 25 19 23 29 16 12 21 22 30 10 5 6
38 33 31 29 30 32 35 34 36 32 31 29 32 31 23 27 37 45 44 45 44 36 37 34 42 37 32 25 17 26 29 25 22 24 16 24 16 8 7 15 17 22 25 21 25 21 10
33 31 29 28 29 32 34 40 37 32 33 31 33 30 30 32 39 43 46 36 38 40 40 33 38 37 28 29 26 14 18 20 22 24 23 22 25 13 7 6 17 25 24 24 21 13 10
29 27 28 29 31 31 32 35 41 37 33 33 32 32 38 28 40 39 45 43 42 34 39 36 28 31 41 30 28 25 18 20 19 18 21 22 21 19 12 7 9 15 9 18 24 25 19
25 25 27 29 30 32 31 31 36 37 37 37 35 34 31 36 35 31 38 36 40 39 34 29 37 37 28 32 27 25 25 28 25 22 26 29 20 19 26 12 9 12 15 8 14 14 16
25 26 28 30 32 31 28 29 32 34 38 40 40 39 26 28 37 27 35 35 37 25 34 32 36 28 28 26 24 25 22 25 26 23 25 27 28 22 12 19 13 11 16 20 16 15 14
26 27 29 30 31 32 30 28 31 33 36 39 35 30 29 34 22 26 25 33 28 35 30 26 28 27 26 23 26 27 27 20 19 21 17 18 19 17 7 12 4 9 16 18 20 23 24
27 29 30 32 34 32 30 28 30 31 35 35 31 29 29 32 20 20 19 27 23 24 36 30 26 29 24 28 24 17 14 19 21 17 18 22 21 7 6 10 5 8 13 14 15 17 19
30 30 31 33 34 33 31 30 29 30 32 27 25 27 27 33 29 26 21 19 16 16 32 28 23 33 29 28 23 10 9 9 10 12 13 13 14 11 12 5 6 8 13 11 11 16 15
19 21 24 26 27 29 29 30 29 33 31 29 27 24 23 23 22 22 21 25 24 26 29 30 26 29 33 29 16 11 9 11 11 14 22 23 19 21 19 7 7 12 12 13 9 9 7
16 18 18 21 21 25 31 31 33 34 30 28 28 30 28 20 15 18 22 25 28 29 29 23 28 28 24 21 15 9 10 15 13 15 16 25 18 16 18 10 7 13 13 12 9 9 11
19 16 17 18 24 23 30 34 32 29 31 27 31 26 24 25 12 13 18 22 20 22 30 23 31 31 19 17 11 12 9 14 14 14 15 18 19 16 15 16 9 12 17 9 9 11 9

GFSGBSN_700_spd_117.txt.gz
Wind_Speed
46 44 38 38 39 39 37 36 38 40 44 41 41 39 37 36 36 33 31 29 28 26 27 27 25 24 21 20 14 19 19 19 16 15 16 15 18 20 21 21 22 24 26 28 29 29 32
46 42 41 40 40 40 40 41 39 41 40 39 38 37 37 36 34 32 30 29 27 26 28 28 27 26 23 21 16 18 20 19 20 18 18 17 20 23 25 25 25 26 27 27 28 26 28
41 42 44 43 42 42 41 40 40 40 41 41 40 38 37 34 32 30 29 28 26 26 28 28 29 29 25 18 21 19 20 23 23 22 21 20 22 24 24 22 21 23 26 26 25 21 22
42 41 42 44 42 41 41 40 39 37 36 36 36 34 34 32 31 30 27 27 26 26 28 29 31 30 27 23 22 22 11 7 8 10 14 18 20 23 24 20 23 25 26 24 13 23 18
40 43 41 43 43 40 40 39 37 36 35 35 34 33 32 31 30 30 26 27 25 27 27 29 31 30 27 18 16 20 9 6 6 12 16 20 24 24 20 20 24 20 17 19 18 14 19
38 40 41 41 41 39 38 36 35 33 33 32 32 31 30 30 31 28 25 25 26 28 28 29 31 28 19 12 14 15 22 23 19 17 17 22 26 26 22 23 20 16 15 15 15 18 24
44 43 40 40 39 38 36 35 34 31 32 30 31 30 28 29 30 28 26 24 25 29 31 28 29 28 28 29 30 28 24 20 20 18 20 23 27 30 21 19 20 22 25 24 23 20 26
46 45 45 44 41 39 37 35 34 32 31 30 30 29 29 30 28 27 26 21 24 27 34 31 30 32 26 31 31 29 26 21 21 23 20 23 31 23 21 22 23 22 26 28 25 19 24
44 45 44 43 41 39 37 36 35 33 32 30 29 29 29 29 30 26 21 18 23 23 31 37 32 35 27 29 33 28 29 26 26 24 26 28 12 11 14 15 19 23 24 25 29 23 24
42 44 44 43 42 40 38 37 36 35 33 31 30 30 30 30 30 23 16 19 22 21 19 28 27 26 20 17 27 19 30 30 29 26 23 19 22 22 24 23 19 25 20 24 25 28 19
41 38 40 39 38 38 39 38 37 35 33 31 29 29 29 28 26 17 17 16 16 12 4 11 10 10 13 8 11 7 14 28 27 28 23 18 13 13 14 15 15 29 25 22 23 26 28
37 44 44 42 41 40 39 37 36 34 33 30 28 28 29 26 25 16 17 15 13 8 9 7 8 10 12 13 14 12 12 20 21 32 33 33 29 21 16 15 18 23 22 21 25 20 7
38 36 38 43 42 40 40 39 37 35 33 31 30 30 31 28 23 19 20 17 13 11 12 10 18 13 11 15 19 18 19 19 25 21 28 30 36 29 29 29 25 23 18 4 4 2 5
41 39 38 36 36 38 38 38 37 36 35 32 31 31 32 29 24 24 21 26 13 25 36 9 9 9 17 18 21 21 21 23 23 23 16 9 7 12 18 24 24 21 21 8 5 3 3
50 48 45 41 38 39 37 39 38 36 34 33 32 31 33 30 27 27 29 33 26 36 25 31 21 17 15 21 19 26 27 30 26 20 21 8 10 12 13 9 12 13 18 16 9 6 3
46 45 45 46 42 38 42 42 39 38 34 34 33 32 32 31 29 28 37 41 43 41 18 17 25 21 28 26 20 23 26 21 36 30 26 22 21 20 15 13 13 22 12 7 8 3 5
50 47 45 46 44 39 34 38 36 32 33 34 33 32 34 32 29 35 45 47 46 42 37 30 20 20 25 19 15 23 23 28 24 23 28 32 26 16 19 26 27 22 20 11 10 7 4
49 39 43 43 44 47 36 34 29 30 29 29 27 30 33 32 37 46 43 52 49 45 42 34 36 36 30 24 25 18 17 19 18 23 23 26 19 23 31 27 19 31 30 34 15 7 8
37 46 40 39 37 38 34 31 32 30 32 31 30 31 28 29 38 46 45 50 44 41 40 28 42 38 32 33 25 32 32 29 23 20 20 23 16 7 11 20 31 27 33 31 28 17 16
40 41 39 38 31 27 28 33 33 34 35 33 32 29 22 33 37 44 36 46 42 49 43 32 39 33 33 40 35 27 26 27 28 33 29 26 26 22 17 15 8 24 30 34 28 20 20
36 37 37 38 33 26 29 35 36 36 37 36 37 27 36 23 39 42 45 38 38 35 37 35 39 37 35 32 34 34 27 25 28 26 26 25 26 28 29 30 20 22 25 29 32 34 21
31 36 31 30 30 28 30 31 40 40 36 36 40 40 36 34 24 36 37 37 39 40 39 31 37 36 29 35 44 33 34 31 27 20 24 27 21 21 27 26 19 18 17 19 23 36 34
30 29 29 27 27 27 28 32 33 39 43 42 42 32 35 26 33 33 38 35 42 38 42 41 31 32 32 38 38 38 33 35 36 27 27 24 24 21 22 20 22 19 25 24 21 26 28
23 24 25 26 26 26 28 31 31 33 42 41 40 43 34 31 20 30 32 33 36 32 35 30 27 28 33 31 33 22 22 23 20 22 23 25 26 20 7 9 7 13 19 27 28 25 20
24 25 26 27 27 27 29 29 28 32 36 39 41 34 36 37 38 27 20 24 22 22 36 30 31 28 25 28 28 22 21 23 25 25 22 22 21 11 6 9 12 11 17 23 23 21 25
26 27 27 28 28 29 30 30 31 31 35 35 34 33 30 35 30 25 26 17 16 18 29 36 31 36 27 32 26 19 7 14 11 13 22 20 17 20 9 4 6 8 15 16 15 18 20
26 31 32 32 31 30 32 32 32 33 34 36 33 30 34 30 29 24 32 27 23 22 23 21 28 32 26 26 27 16 13 16 13 16 23 21 21 22 15 8 7 14 12 15 12 8 8
24 26 28 31 32 32 33 34 34 34 35 35 30 30 29 29 31 25 28 30 26 27 26 19 18 31 23 22 21 12 10 17 14 16 23 27 19 17 17 8 10 11 16 17 11 8 8
15 18 21 24 28 30 32 33 33 33 35 34 32 30 29 31 17 21 18 24 26 24 24 24 23 19 22 28 9 15 10 17 17 14 20 21 26 19 17 14 13 7 17 15 16 11 11

GFSGBSN_700_spd_120.txt.gz
Wind_Speed
50 49 47 46 44 41 40 39 35 35 36 38 37 38 38 38 39 39 35 34 34 31 29 26 24 22 19 18 17 18 17 15 15 13 12 16 16 15 18 17 19 21 23 25 25 23 26
53 54 54 52 51 45 43 40 38 38 37 37 38 39 39 37 36 36 35 35 33 32 30 27 25 23 21 19 17 15 15 16 15 14 15 16 18 20 20 21 23 26 28 26 26 23 25
54 53 51 44 44 43 43 41 40 41 40 40 40 41 40 39 38 37 35 33 32 30 31 28 26 24 22 17 20 18 15 17 18 20 18 18 21 22 22 19 22 24 26 25 22 24 24
53 51 49 51 51 48 43 42 40 41 41 39 39 39 39 38 35 33 32 30 30 30 30 29 27 26 22 22 21 18 18 13 12 11 14 18 21 23 20 18 24 24 28 27 19 18 24
53 54 57 60 49 44 40 40 39 40 41 39 38 38 36 35 33 30 29 30 29 30 29 28 28 26 23 22 18 12 11 16 6 7 11 19 22 24 20 22 23 20 19 22 23 18 22
47 43 51 53 51 43 40 40 39 38 40 40 36 36 35 33 31 29 28 28 29 31 29 29 29 25 18 22 16 12 10 12 18 18 17 23 26 26 22 26 19 15 11 15 21 23 24
41 40 38 36 34 34 36 38 38 38 38 38 35 34 33 32 30 28 28 26 29 31 32 29 25 20 13 18 21 22 20 20 19 19 20 24 29 31 21 19 22 21 20 23 26 22 28
41 40 41 38 37 36 38 38 38 37 36 35 34 33 32 31 30 29 26 25 27 30 33 29 29 29 27 26 26 21 22 24 23 23 23 26 33 23 21 23 23 21 21 24 25 17 28
42 41 43 43 42 42 43 40 38 37 35 35 33 33 33 32 30 27 23 24 26 26 31 34 32 33 29 28 28 22 28 27 27 25 24 26 16 10 14 14 20 23 21 21 21 24 24
42 38 35 39 41 42 42 42 40 38 36 35 33 33 34 33 30 24 21 25 23 21 20 28 27 23 21 22 26 20 30 30 27 25 23 19 22 26 26 25 19 22 18 16 19 20 12
43 41 36 35 35 35 40 42 39 37 36 35 34 34 34 32 30 20 23 23 19 15 4 11 13 15 11 13 11 11 14 26 27 26 20 14 13 11 14 11 12 22 17 17 19 20 21
47 46 41 35 37 36 34 38 41 40 37 36 34 34 35 32 27 21 20 19 14 10 8 8 9 13 14 15 16 15 14 18 23 26 27 25 24 18 16 12 10 12 14 17 18 19 9
43 44 44 44 41 39 36 35 36 37 38 36 35 34 33 31 20 22 20 18 12 11 8 9 13 13 14 16 20 18 15 17 21 21 27 27 30 30 31 29 25 25 18 4 3 2 6
41 38 44 43 47 47 42 38 39 40 36 36 35 35 33 32 23 23 20 22 15 19 23 5 10 10 15 18 19 18 16 20 21 21 10 6 5 7 15 28 26 20 22 10 5 3 3
57 47 36 47 45 40 39 39 36 32 37 36 37 37 37 33 28 28 28 30 26 31 16 24 11 10 16 18 16 22 22 24 22 20 19 7 6 4 7 6 16 13 24 23 15 11 3
47 56 50 41 40 45 40 37 34 30 27 31 35 36 37 31 29 31 35 38 44 42 13 13 22 16 16 19 20 18 18 16 28 24 23 20 13 14 13 16 15 24 9 8 10 3 5
36 41 52 53 42 38 36 36 40 35 29 30 31 32 36 31 27 35 44 46 45 42 34 22 18 22 20 13 16 21 17 24 16 18 21 33 27 15 15 22 24 22 22 15 11 9 4
42 46 40 45 53 51 47 43 37 33 36 35 30 30 33 29 32 38 46 45 43 40 36 32 28 29 26 19 13 11 11 20 11 26 27 27 17 32 35 25 23 25 26 24 14 7 12
47 48 45 44 54 44 41 43 40 34 35 34 36 36 36 30 37 30 49 43 41 43 39 30 37 35 32 35 28 23 24 23 19 16 17 24 14 11 10 18 24 30 31 32 31 30 30
42 43 36 37 44 47 39 41 38 34 35 32 34 32 35 31 37 41 47 44 43 46 46 31 39 32 29 37 33 31 30 22 19 24 27 27 28 23 18 12 8 16 23 23 32 23 20
39 45 34 31 35 32 32 34 36 34 36 34 38 25 33 36 38 39 40 46 46 45 40 30 37 34 34 28 30 35 35 32 32 27 28 29 33 31 32 32 27 28 34 29 29 39 25
35 34 31 30 30 32 32 32 28 34 40 38 44 42 36 37 23 38 42 40 40 43 40 29 36 37 36 37 34 33 29 28 34 28 33 32 31 29 28 27 25 28 31 29 28 33 32
26 31 32 29 34 30 32 32 26 34 41 44 44 39 41 31 36 31 43 41 41 43 40 39 35 28 27 33 29 29 29 32 35 23 27 29 24 22 21 24 21 19 36 31 34 30 26
29 23 34 42 34 31 31 30 29 36 46 44 43 42 31 40 32 37 39 29 34 38 34 32 30 29 35 33 35 31 35 34 35 37 37 37 32 24 15 13 11 17 22 21 26 36 33
20 22 32 31 31 30 30 28 28 34 38 41 42 35 29 26 34 30 24 31 28 33 35 32 29 29 27 21 20 21 26 28 34 38 43 43 26 15 7 12 16 25 19 16 24 30 32
15 17 18 24 27 29 29 30 27 28 36 36 36 37 31 33 39 29 30 20 19 18 24 28 28 29 28 28 20 21 13 15 12 15 21 20 19 23 12 5 6 11 13 20 21 29 24
18 20 22 24 26 27 28 28 27 27 32 34 32 34 36 23 29 29 38 34 26 25 22 21 19 24 32 29 28 21 28 23 15 13 20 26 26 28 21 11 11 15 14 15 15 13 11
19 22 26 30 31 31 32 30 27 28 31 29 29 30 37 35 31 26 30 33 27 26 24 20 13 20 22 24 27 25 11 20 18 17 22 30 21 18 19 11 11 17 15 18 16 15 9
21 25 28 31 35 35 33 31 30 30 32 31 29 29 28 31 24 31 29 26 29 22 22 20 22 9 12 19 19 16 9 17 23 15 21 22 22 21 19 15 15 5 11 15 21 12 10